Wetterdaten: Freitag, 29.04.2016
Datum Zeit Temp. A. Feuchte A. Luftdruck Regen Wind Richtung Richtung Sonnenschein ET UV Solar Taupunkt Windchill Windben Empfang
29.04.2016 00:00 2,2 C 87 % 1018,4 hPa 0,0 l/m 4,2 km/h (1 Bft) S 184 0 min 0,000 mm 0,0 UV-I 0 W/m 0,3 C 2,2 C 4,8 km/h (1 Bft) 95,83 %
29.04.2016 00:02 2,0 C 87 % 1018,4 hPa 0,0 l/m 4,7 km/h (1 Bft) S 184 0 min 0,000 mm 0,0 UV-I 0 W/m 0,1 C 2,0 C 6,4 km/h (2 Bft) 97,37 %
29.04.2016 00:03 1,9 C 88 % 1018,5 hPa 0,0 l/m 5,6 km/h (1 Bft) S 171 0 min 0,000 mm 0,0 UV-I 0 W/m 0,1 C 1,9 C 8,0 km/h (2 Bft) 95,65 %
29.04.2016 00:04 1,9 C 88 % 1018,5 hPa 0,0 l/m 5,8 km/h (2 Bft) S 178 0 min 0,000 mm 0,0 UV-I 0 W/m 0,1 C 1,9 C 8,0 km/h (2 Bft) 95,83 %
29.04.2016 00:05 1,9 C 88 % 1018,5 hPa 0,0 l/m 4,9 km/h (1 Bft) S 170 0 min 0,000 mm 0,0 UV-I 0 W/m 0,1 C 1,9 C 8,0 km/h (2 Bft) 96,15 %
29.04.2016 00:06 2,0 C 88 % 1018,5 hPa 0,0 l/m 5,7 km/h (1 Bft) S 190 0 min 0,000 mm 0,0 UV-I 0 W/m 0,2 C 2,0 C 9,7 km/h (2 Bft) 100,00 %
29.04.2016 00:07 2,0 C 88 % 1018,5 hPa 0,0 l/m 5,2 km/h (1 Bft) S 185 0 min 0,000 mm 0,0 UV-I 0 W/m 0,2 C 2,0 C 8,0 km/h (2 Bft) 95,65 %
29.04.2016 00:08 2,1 C 88 % 1018,5 hPa 0,0 l/m 3,4 km/h (1 Bft) S 182 0 min 0,000 mm 0,0 UV-I 0 W/m 0,3 C 2,1 C 4,8 km/h (1 Bft) 95,83 %
29.04.2016 00:09 2,2 C 88 % 1018,5 hPa 0,0 l/m 4,3 km/h (1 Bft) S 185 0 min 0,000 mm 0,0 UV-I 0 W/m 0,4 C 2,2 C 6,4 km/h (2 Bft) 100,00 %
29.04.2016 00:10 2,2 C 88 % 1018,5 hPa 0,0 l/m 3,8 km/h (1 Bft) S 180 0 min 0,000 mm 0,0 UV-I 0 W/m 0,4 C 2,2 C 4,8 km/h (1 Bft) 95,83 %
29.04.2016 00:11 2,3 C 87 % 1018,5 hPa 0,0 l/m 4,7 km/h (1 Bft) S 180 0 min 0,000 mm 0,0 UV-I 0 W/m 0,4 C 2,3 C 6,4 km/h (2 Bft) 100,00 %
29.04.2016 00:12 2,3 C 87 % 1018,5 hPa 0,0 l/m 5,0 km/h (1 Bft) S 184 0 min 0,000 mm 0,0 UV-I 0 W/m 0,4 C 2,3 C 6,4 km/h (2 Bft) 100,00 %
29.04.2016 00:13 2,4 C 87 % 1018,5 hPa 0,0 l/m 6,2 km/h (2 Bft) S-SW 192 0 min 0,000 mm 0,0 UV-I 0 W/m 0,5 C 2,4 C 6,4 km/h (2 Bft) 100,00 %
29.04.2016 00:14 2,4 C 87 % 1018,5 hPa 0,0 l/m 6,2 km/h (2 Bft) S-SW 198 0 min 0,000 mm 0,0 UV-I 0 W/m 0,5 C 2,4 C 8,0 km/h (2 Bft) 95,83 %
29.04.2016 00:15 2,4 C 87 % 1018,5 hPa 0,0 l/m 6,0 km/h (2 Bft) S-SW 193 0 min 0,000 mm 0,0 UV-I 0 W/m 0,5 C 2,4 C 8,0 km/h (2 Bft) 91,30 %
29.04.2016 00:16 2,4 C 86 % 1018,5 hPa 0,0 l/m 5,6 km/h (1 Bft) S-SW 198 0 min 0,000 mm 0,0 UV-I 0 W/m 0,3 C 2,4 C 6,4 km/h (2 Bft) 100,00 %
29.04.2016 00:17 2,4 C 86 % 1018,5 hPa 0,0 l/m 4,0 km/h (1 Bft) S-SW 195 0 min 0,000 mm 0,0 UV-I 0 W/m 0,3 C 2,4 C 4,8 km/h (1 Bft) 100,00 %
29.04.2016 00:18 2,3 C 87 % 1018,5 hPa 0,0 l/m 4,4 km/h (1 Bft) S-SW 196 0 min 0,000 mm 0,0 UV-I 0 W/m 0,4 C 2,3 C 6,4 km/h (2 Bft) 100,00 %
29.04.2016 00:19 2,3 C 87 % 1018,5 hPa 0,0 l/m 5,8 km/h (2 Bft) S-SW 200 0 min 0,000 mm 0,0 UV-I 0 W/m 0,4 C 2,3 C 8,0 km/h (2 Bft) 95,65 %
29.04.2016 00:20 2,3 C 87 % 1018,5 hPa 0,0 l/m 4,1 km/h (1 Bft) S-SW 196 0 min 0,000 mm 0,0 UV-I 0 W/m 0,4 C 2,3 C 4,8 km/h (1 Bft) 95,83 %
29.04.2016 00:21 2,2 C 87 % 1018,5 hPa 0,0 l/m 3,3 km/h (1 Bft) S-SW 196 0 min 0,000 mm 0,0 UV-I 0 W/m 0,3 C 2,2 C 4,8 km/h (1 Bft) 100,00 %
29.04.2016 00:22 2,2 C 87 % 1018,5 hPa 0,0 l/m 2,2 km/h (1 Bft) S-SW 196 0 min 0,000 mm 0,0 UV-I 0 W/m 0,3 C 2,2 C 3,2 km/h (1 Bft) 100,00 %
29.04.2016 00:23 2,2 C 87 % 1018,5 hPa 0,0 l/m 1,8 km/h (1 Bft) S-SW 196 0 min 0,000 mm 0,0 UV-I 0 W/m 0,3 C 2,2 C 3,2 km/h (1 Bft) 100,00 %
29.04.2016 00:24 2,2 C 87 % 1018,5 hPa 0,0 l/m 2,6 km/h (1 Bft) S-SW 196 0 min 0,000 mm 0,0 UV-I 0 W/m 0,3 C 2,2 C 4,8 km/h (1 Bft) 100,00 %
29.04.2016 00:25 2,2 C 87 % 1018,5 hPa 0,0 l/m 3,0 km/h (1 Bft) S-SW 196 0 min 0,000 mm 0,0 UV-I 0 W/m 0,3 C 2,2 C 4,8 km/h (1 Bft) 100,00 %
29.04.2016 00:26 2,2 C 87 % 1018,5 hPa 0,0 l/m 3,4 km/h (1 Bft) S-SW 196 0 min 0,000 mm 0,0 UV-I 0 W/m 0,3 C 2,2 C 4,8 km/h (1 Bft) 91,30 %
29.04.2016 00:27 2,2 C 87 % 1018,5 hPa 0,0 l/m 3,6 km/h (1 Bft) S-SW 196 0 min 0,000 mm 0,0 UV-I 0 W/m 0,3 C 2,2 C 4,8 km/h (1 Bft) 100,00 %
29.04.2016 00:28 2,2 C 87 % 1018,5 hPa 0,0 l/m 3,8 km/h (1 Bft) S-SW 196 0 min 0,000 mm 0,0 UV-I 0 W/m 0,3 C 2,2 C 4,8 km/h (1 Bft) 100,00 %
29.04.2016 00:29 2,2 C 87 % 1018,5 hPa 0,0 l/m 3,1 km/h (1 Bft) S-SW 196 0 min 0,000 mm 0,0 UV-I 0 W/m 0,3 C 2,2 C 3,2 km/h (1 Bft) 100,00 %
29.04.2016 00:30 2,2 C 87 % 1018,5 hPa 0,0 l/m 3,1 km/h (1 Bft) S-SW 196 0 min 0,000 mm 0,0 UV-I 0 W/m 0,3 C 2,2 C 4,8 km/h (1 Bft) 100,00 %
29.04.2016 00:31 2,2 C 87 % 1018,5 hPa 0,0 l/m 2,7 km/h (1 Bft) S-SW 196 0 min 0,000 mm 0,0 UV-I 0 W/m 0,3 C 2,2 C 3,2 km/h (1 Bft) 100,00 %
29.04.2016 00:32 2,2 C 87 % 1018,5 hPa 0,0 l/m 2,4 km/h (1 Bft) S-SW 196 0 min 0,000 mm 0,0 UV-I 0 W/m 0,3 C 2,2 C 3,2 km/h (1 Bft) 96,15 %
29.04.2016 00:33 2,2 C 87 % 1018,5 hPa 0,0 l/m 1,8 km/h (1 Bft) S-SW 196 0 min 0,000 mm 0,0 UV-I 0 W/m 0,3 C 2,2 C 3,2 km/h (1 Bft) 100,00 %
29.04.2016 00:34 2,2 C 87 % 1018,5 hPa 0,0 l/m 1,3 km/h (1 Bft) S-SW 196 0 min 0,000 mm 0,0 UV-I 0 W/m 0,3 C 2,2 C 3,2 km/h (1 Bft) 91,67 %
29.04.2016 00:35 2,2 C 87 % 1018,5 hPa 0,0 l/m 1,5 km/h (1 Bft) S-SW 196 0 min 0,000 mm 0,0 UV-I 0 W/m 0,3 C 2,2 C 3,2 km/h (1 Bft) 96,15 %
29.04.2016 00:36 2,2 C 87 % 1018,6 hPa 0,0 l/m 1,2 km/h (1 Bft) S-SW 196 0 min 0,000 mm 0,0 UV-I 0 W/m 0,3 C 2,2 C 3,2 km/h (1 Bft) 100,00 %
29.04.2016 00:37 2,1 C 86 % 1018,6 hPa 0,0 l/m 1,5 km/h (1 Bft) S-SW 196 0 min 0,000 mm 0,0 UV-I 0 W/m 0,0 C 2,1 C 3,2 km/h (1 Bft) 100,00 %
29.04.2016 00:38 2,0 C 87 % 1018,5 hPa 0,0 l/m 0,9 km/h (0 Bft) S-SW 196 0 min 0,000 mm 0,0 UV-I 0 W/m 0,1 C 2,0 C 1,6 km/h (1 Bft) 100,00 %
29.04.2016 00:39 2,0 C 87 % 1018,6 hPa 0,0 l/m 0,3 km/h (0 Bft) S-SW 196 0 min 0,000 mm 0,0 UV-I 0 W/m 0,1 C 2,0 C 1,6 km/h (1 Bft) 100,00 %
29.04.2016 00:40 2,0 C 87 % 1018,5 hPa 0,0 l/m 0,3 km/h (0 Bft) S-SW 196 0 min 0,000 mm 0,0 UV-I 0 W/m 0,1 C 2,0 C 1,6 km/h (1 Bft) 95,83 %
29.04.2016 00:41 2,0 C 87 % 1018,5 hPa 0,0 l/m 0,7 km/h (0 Bft) S-SW 196 0 min 0,000 mm 0,0 UV-I 0 W/m 0,1 C 2,0 C 1,6 km/h (1 Bft) 100,00 %
29.04.2016 00:42 2,0 C 87 % 1018,5 hPa 0,0 l/m 0,7 km/h (0 Bft) S-SW 196 0 min 0,000 mm 0,0 UV-I 0 W/m 0,1 C 2,0 C 1,6 km/h (1 Bft) 100,00 %
29.04.2016 00:43 2,0 C 87 % 1018,5 hPa 0,0 l/m 1,3 km/h (1 Bft) S-SW 196 0 min 0,000 mm 0,0 UV-I 0 W/m 0,1 C 2,0 C 1,6 km/h (1 Bft) 100,00 %
29.04.2016 00:44 2,0 C 87 % 1018,5 hPa 0,0 l/m 0,9 km/h (0 Bft) S-SW 196 0 min 0,000 mm 0,0 UV-I 0 W/m 0,1 C 2,0 C 1,6 km/h (1 Bft) 100,00 %
29.04.2016 00:45 2,0 C 87 % 1018,6 hPa 0,0 l/m 0,9 km/h (0 Bft) S-SW 196 0 min 0,000 mm 0,0 UV-I 0 W/m 0,1 C 2,0 C 3,2 km/h (1 Bft) 100,00 %
29.04.2016 00:46 2,0 C 87 % 1018,5 hPa 0,0 l/m 0,9 km/h (0 Bft) S-SW 196 0 min 0,000 mm 0,0 UV-I 0 W/m 0,1 C 2,0 C 3,2 km/h (1 Bft) 100,00 %
29.04.2016 00:47 2,0 C 87 % 1018,5 hPa 0,0 l/m 0,7 km/h (0 Bft) S-SW 196 0 min 0,000 mm 0,0 UV-I 0 W/m 0,1 C 2,0 C 1,6 km/h (1 Bft) 100,00 %
29.04.2016 00:48 2,0 C 87 % 1018,5 hPa 0,0 l/m 1,2 km/h (1 Bft) S-SW 196 0 min 0,000 mm 0,0 UV-I 0 W/m 0,1 C 2,0 C 3,2 km/h (1 Bft) 100,00 %
29.04.2016 00:49 1,9 C 87 % 1018,5 hPa 0,0 l/m 1,5 km/h (1 Bft) S-SW 196 0 min 0,000 mm 0,0 UV-I 0 W/m -0,0 C 1,9 C 1,6 km/h (1 Bft) 95,65 %
29.04.2016 00:50 2,0 C 87 % 1018,5 hPa 0,0 l/m 1,5 km/h (1 Bft) S-SW 196 0 min 0,000 mm 0,0 UV-I 0 W/m 0,1 C 2,0 C 3,2 km/h (1 Bft) 100,00 %
29.04.2016 00:51 1,9 C 87 % 1018,6 hPa 0,0 l/m 2,4 km/h (1 Bft) S-SW 196 0 min 0,000 mm 0,0 UV-I 0 W/m -0,0 C 1,9 C 4,8 km/h (1 Bft) 100,00 %
29.04.2016 00:52 1,9 C 88 % 1018,6 hPa 0,0 l/m 3,0 km/h (1 Bft) S-SW 196 0 min 0,000 mm 0,0 UV-I 0 W/m 0,1 C 1,9 C 4,8 km/h (1 Bft) 100,00 %
29.04.2016 00:53 2,0 C 87 % 1018,6 hPa 0,0 l/m 3,0 km/h (1 Bft) S-SW 196 0 min 0,000 mm 0,0 UV-I 0 W/m 0,1 C 2,0 C 4,8 km/h (1 Bft) 100,00 %
29.04.2016 00:54 1,9 C 87 % 1018,6 hPa 0,0 l/m 3,8 km/h (1 Bft) S-SW 196 0 min 0,000 mm 0,0 UV-I 0 W/m -0,0 C 1,9 C 4,8 km/h (1 Bft) 100,00 %
29.04.2016 00:55 2,0 C 88 % 1018,6 hPa 0,0 l/m 4,1 km/h (1 Bft) S-SW 196 0 min 0,000 mm 0,0 UV-I 0 W/m 0,2 C 2,0 C 4,8 km/h (1 Bft) 100,00 %
29.04.2016 00:56 2,0 C 88 % 1018,6 hPa 0,0 l/m 3,4 km/h (1 Bft) S-SW 196 0 min 0,000 mm 0,0 UV-I 0 W/m 0,2 C 2,0 C 4,8 km/h (1 Bft) 100,00 %
29.04.2016 00:57 2,0 C 87 % 1018,5 hPa 0,0 l/m 2,8 km/h (1 Bft) S-SW 196 0 min 0,000 mm 0,0 UV-I 0 W/m 0,1 C 2,0 C 4,8 km/h (1 Bft) 100,00 %
29.04.2016 00:58 1,9 C 87 % 1018,6 hPa 0,0 l/m 3,4 km/h (1 Bft) S-SW 196 0 min 0,000 mm 0,0 UV-I 0 W/m -0,0 C 1,9 C 4,8 km/h (1 Bft) 100,00 %
29.04.2016 00:59 1,8 C 87 % 1018,6 hPa 0,0 l/m 3,6 km/h (1 Bft) S-SW 196 0 min 0,000 mm 0,0 UV-I 0 W/m -0,1 C 1,8 C 4,8 km/h (1 Bft) 100,00 %
29.04.2016 01:00 1,8 C 87 % 1018,6 hPa 0,0 l/m 4,0 km/h (1 Bft) S-SW 195 0 min 0,000 mm 0,0 UV-I 0 W/m -0,1 C 1,8 C 4,8 km/h (1 Bft) 100,00 %
29.04.2016 01:02 1,7 C 87 % 1018,6 hPa 0,0 l/m 2,6 km/h (1 Bft) S-SW 195 0 min 0,000 mm 0,0 UV-I 0 W/m -0,2 C 1,7 C 4,8 km/h (1 Bft) 100,00 %
29.04.2016 01:03 1,7 C 88 % 1018,6 hPa 0,0 l/m 3,0 km/h (1 Bft) S-SW 195 0 min 0,000 mm 0,0 UV-I 0 W/m -0,1 C 1,7 C 4,8 km/h (1 Bft) 100,00 %
29.04.2016 01:04 1,7 C 88 % 1018,6 hPa 0,0 l/m 2,3 km/h (1 Bft) S-SW 194 0 min 0,000 mm 0,0 UV-I 0 W/m -0,1 C 1,7 C 3,2 km/h (1 Bft) 95,65 %
29.04.2016 01:05 1,7 C 88 % 1018,6 hPa 0,0 l/m 2,3 km/h (1 Bft) S-SW 194 0 min 0,000 mm 0,0 UV-I 0 W/m -0,1 C 1,7 C 3,2 km/h (1 Bft) 100,00 %
29.04.2016 01:06 1,6 C 88 % 1018,6 hPa 0,0 l/m 2,7 km/h (1 Bft) S-SW 193 0 min 0,000 mm 0,0 UV-I 0 W/m -0,2 C 1,6 C 3,2 km/h (1 Bft) 100,00 %
29.04.2016 01:07 1,6 C 88 % 1018,6 hPa 0,0 l/m 2,1 km/h (1 Bft) S-SW 193 0 min 0,000 mm 0,0 UV-I 0 W/m -0,2 C 1,6 C 3,2 km/h (1 Bft) 100,00 %
29.04.2016 01:08 1,6 C 88 % 1018,6 hPa 0,0 l/m 2,3 km/h (1 Bft) S-SW 192 0 min 0,000 mm 0,0 UV-I 0 W/m -0,2 C 1,6 C 4,8 km/h (1 Bft) 100,00 %
29.04.2016 01:09 1,5 C 88 % 1018,6 hPa 0,0 l/m 2,0 km/h (1 Bft) S 191 0 min 0,000 mm 0,0 UV-I 0 W/m -0,3 C 1,5 C 3,2 km/h (1 Bft) 95,83 %
29.04.2016 01:10 1,5 C 88 % 1018,6 hPa 0,0 l/m 1,7 km/h (1 Bft) S 191 0 min 0,000 mm 0,0 UV-I 0 W/m -0,3 C 1,5 C 3,2 km/h (1 Bft) 90,91 %
29.04.2016 01:11 1,5 C 88 % 1018,6 hPa 0,0 l/m 0,8 km/h (0 Bft) S 191 0 min 0,000 mm 0,0 UV-I 0 W/m -0,3 C 1,5 C 1,6 km/h (1 Bft) 100,00 %
29.04.2016 01:12 1,5 C 88 % 1018,6 hPa 0,0 l/m 1,4 km/h (1 Bft) S 191 0 min 0,000 mm 0,0 UV-I 0 W/m -0,3 C 1,5 C 3,2 km/h (1 Bft) 100,00 %
29.04.2016 01:13 1,5 C 88 % 1018,6 hPa 0,0 l/m 0,6 km/h (0 Bft) S 191 0 min 0,000 mm 0,0 UV-I 0 W/m -0,3 C 1,5 C 1,6 km/h (1 Bft) 100,00 %
29.04.2016 01:14 1,5 C 88 % 1018,6 hPa 0,0 l/m 1,0 km/h (0 Bft) S 191 0 min 0,000 mm 0,0 UV-I 0 W/m -0,3 C 1,5 C 1,6 km/h (1 Bft) 100,00 %
29.04.2016 01:15 1,5 C 88 % 1018,6 hPa 0,0 l/m 2,5 km/h (1 Bft) S 191 0 min 0,000 mm 0,0 UV-I 0 W/m -0,3 C 1,5 C 4,8 km/h (1 Bft) 100,00 %
29.04.2016 01:16 1,6 C 89 % 1018,6 hPa 0,0 l/m 2,5 km/h (1 Bft) S 190 0 min 0,000 mm 0,0 UV-I 0 W/m -0,0 C 1,6 C 3,2 km/h (1 Bft) 100,00 %
29.04.2016 01:17 1,6 C 89 % 1018,6 hPa 0,0 l/m 3,5 km/h (1 Bft) S 184 0 min 0,000 mm 0,0 UV-I 0 W/m -0,0 C 1,6 C 4,8 km/h (1 Bft) 100,00 %
29.04.2016 01:18 1,7 C 89 % 1018,6 hPa 0,0 l/m 4,1 km/h (1 Bft) S 175 0 min 0,000 mm 0,0 UV-I 0 W/m 0,1 C 1,7 C 4,8 km/h (1 Bft) 100,00 %
29.04.2016 01:19 1,7 C 89 % 1018,6 hPa 0,0 l/m 4,1 km/h (1 Bft) S 175 0 min 0,000 mm 0,0 UV-I 0 W/m 0,1 C 1,7 C 4,8 km/h (1 Bft) 100,00 %
29.04.2016 01:20 1,7 C 88 % 1018,6 hPa 0,0 l/m 3,9 km/h (1 Bft) S 175 0 min 0,000 mm 0,0 UV-I 0 W/m -0,1 C 1,7 C 4,8 km/h (1 Bft) 100,00 %
29.04.2016 01:21 1,7 C 88 % 1018,6 hPa 0,0 l/m 3,7 km/h (1 Bft) S 175 0 min 0,000 mm 0,0 UV-I 0 W/m -0,1 C 1,7 C 4,8 km/h (1 Bft) 100,00 %
29.04.2016 01:22 1,7 C 88 % 1018,6 hPa 0,0 l/m 3,8 km/h (1 Bft) S 174 0 min 0,000 mm 0,0 UV-I 0 W/m -0,1 C 1,7 C 4,8 km/h (1 Bft) 100,00 %
29.04.2016 01:23 1,7 C 88 % 1018,6 hPa 0,0 l/m 3,1 km/h (1 Bft) S 175 0 min 0,000 mm 0,0 UV-I 0 W/m -0,1 C 1,7 C 3,2 km/h (1 Bft) 100,00 %
29.04.2016 01:24 1,7 C 88 % 1018,6 hPa 0,0 l/m 3,4 km/h (1 Bft) S 175 0 min 0,000 mm 0,0 UV-I 0 W/m -0,1 C 1,7 C 4,8 km/h (1 Bft) 100,00 %
29.04.2016 01:25 1,7 C 88 % 1018,6 hPa 0,0 l/m 3,4 km/h (1 Bft) S 175 0 min 0,000 mm 0,0 UV-I 0 W/m -0,1 C 1,7 C 4,8 km/h (1 Bft) 100,00 %
29.04.2016 01:26 1,6 C 88 % 1018,7 hPa 0,0 l/m 4,0 km/h (1 Bft) S 175 0 min 0,000 mm 0,0 UV-I 0 W/m -0,2 C 1,6 C 4,8 km/h (1 Bft) 100,00 %
29.04.2016 01:27 1,6 C 88 % 1018,7 hPa 0,0 l/m 3,2 km/h (1 Bft) S 175 0 min 0,000 mm 0,0 UV-I 0 W/m -0,2 C 1,6 C 4,8 km/h (1 Bft) 100,00 %
29.04.2016 01:28 1,6 C 88 % 1018,6 hPa 0,0 l/m 2,9 km/h (1 Bft) S 175 0 min 0,000 mm 0,0 UV-I 0 W/m -0,2 C 1,6 C 3,2 km/h (1 Bft) 100,00 %
29.04.2016 01:29 1,5 C 88 % 1018,6 hPa 0,0 l/m 3,0 km/h (1 Bft) S 175 0 min 0,000 mm 0,0 UV-I 0 W/m -0,3 C 1,5 C 4,8 km/h (1 Bft) 100,00 %
29.04.2016 01:30 1,4 C 88 % 1018,6 hPa 0,0 l/m 3,0 km/h (1 Bft) S 175 0 min 0,000 mm 0,0 UV-I 0 W/m -0,4 C 1,4 C 4,8 km/h (1 Bft) 100,00 %
29.04.2016 01:31 1,4 C 89 % 1018,5 hPa 0,0 l/m 3,2 km/h (1 Bft) S 175 0 min 0,000 mm 0,0 UV-I 0 W/m -0,2 C 1,4 C 4,8 km/h (1 Bft) 95,65 %
29.04.2016 01:32 1,3 C 89 % 1018,5 hPa 0,0 l/m 2,0 km/h (1 Bft) S 175 0 min 0,000 mm 0,0 UV-I 0 W/m -0,3 C 1,3 C 3,2 km/h (1 Bft) 100,00 %
29.04.2016 01:33 1,3 C 89 % 1018,5 hPa 0,0 l/m 2,5 km/h (1 Bft) S 175 0 min 0,000 mm 0,0 UV-I 0 W/m -0,3 C 1,3 C 3,2 km/h (1 Bft) 95,65 %
29.04.2016 01:34 1,3 C 89 % 1018,5 hPa 0,0 l/m 1,1 km/h (1 Bft) S 175 0 min 0,000 mm 0,0 UV-I 0 W/m -0,3 C 1,3 C 1,6 km/h (1 Bft) 100,00 %
29.04.2016 01:35 1,4 C 89 % 1018,5 hPa 0,0 l/m 2,1 km/h (1 Bft) S 175 0 min 0,000 mm 0,0 UV-I 0 W/m -0,2 C 1,4 C 3,2 km/h (1 Bft) 100,00 %
29.04.2016 01:36 1,4 C 89 % 1018,5 hPa 0,0 l/m 3,0 km/h (1 Bft) S 175 0 min 0,000 mm 0,0 UV-I 0 W/m -0,2 C 1,4 C 3,2 km/h (1 Bft) 100,00 %
29.04.2016 01:37 1,4 C 89 % 1018,6 hPa 0,0 l/m 3,9 km/h (1 Bft) S 175 0 min 0,000 mm 0,0 UV-I 0 W/m -0,2 C 1,4 C 4,8 km/h (1 Bft) 95,83 %
29.04.2016 01:38 1,4 C 88 % 1018,6 hPa 0,0 l/m 4,0 km/h (1 Bft) S 175 0 min 0,000 mm 0,0 UV-I 0 W/m -0,4 C 1,4 C 4,8 km/h (1 Bft) 86,96 %
29.04.2016 01:39 1,5 C 88 % 1018,6 hPa 0,0 l/m 3,9 km/h (1 Bft) S 175 0 min 0,000 mm 0,0 UV-I 0 W/m -0,3 C 1,5 C 4,8 km/h (1 Bft) 100,00 %
29.04.2016 01:40 1,5 C 88 % 1018,6 hPa 0,0 l/m 2,0 km/h (1 Bft) S 175 0 min 0,000 mm 0,0 UV-I 0 W/m -0,3 C 1,5 C 3,2 km/h (1 Bft) 95,65 %
29.04.2016 01:41 1,6 C 88 % 1018,6 hPa 0,0 l/m 2,8 km/h (1 Bft) S 174 0 min 0,000 mm 0,0 UV-I 0 W/m -0,2 C 1,6 C 4,8 km/h (1 Bft) 96,30 %
29.04.2016 01:42 1,6 C 88 % 1018,6 hPa 0,0 l/m 2,7 km/h (1 Bft) S 174 0 min 0,000 mm 0,0 UV-I 0 W/m -0,2 C 1,6 C 3,2 km/h (1 Bft) 95,65 %
29.04.2016 01:43 1,6 C 88 % 1018,5 hPa 0,0 l/m 3,4 km/h (1 Bft) S 174 0 min 0,000 mm 0,0 UV-I 0 W/m -0,2 C 1,6 C 8,0 km/h (2 Bft) 100,00 %
29.04.2016 01:44 1,6 C 87 % 1018,5 hPa 0,0 l/m 3,6 km/h (1 Bft) S 173 0 min 0,000 mm 0,0 UV-I 0 W/m -0,3 C 1,6 C 4,8 km/h (1 Bft) 95,65 %
29.04.2016 01:45 1,6 C 87 % 1018,6 hPa 0,0 l/m 3,7 km/h (1 Bft) S 173 0 min 0,000 mm 0,0 UV-I 0 W/m -0,3 C 1,6 C 4,8 km/h (1 Bft) 95,83 %
29.04.2016 01:46 1,5 C 87 % 1018,6 hPa 0,0 l/m 4,4 km/h (1 Bft) S 173 0 min 0,000 mm 0,0 UV-I 0 W/m -0,4 C 1,5 C 4,8 km/h (1 Bft) 100,00 %
29.04.2016 01:47 1,5 C 87 % 1018,6 hPa 0,0 l/m 3,7 km/h (1 Bft) S 173 0 min 0,000 mm 0,0 UV-I 0 W/m -0,4 C 1,5 C 4,8 km/h (1 Bft) 95,83 %
29.04.2016 01:48 1,5 C 87 % 1018,6 hPa 0,0 l/m 3,1 km/h (1 Bft) S 173 0 min 0,000 mm 0,0 UV-I 0 W/m -0,4 C 1,5 C 3,2 km/h (1 Bft) 100,00 %
29.04.2016 01:49 1,4 C 88 % 1018,5 hPa 0,0 l/m 2,9 km/h (1 Bft) S 173 0 min 0,000 mm 0,0 UV-I 0 W/m -0,4 C 1,4 C 4,8 km/h (1 Bft) 96,30 %
29.04.2016 01:50 1,5 C 88 % 1018,5 hPa 0,0 l/m 3,1 km/h (1 Bft) S 173 0 min 0,000 mm 0,0 UV-I 0 W/m -0,3 C 1,5 C 4,8 km/h (1 Bft) 100,00 %
29.04.2016 01:51 1,5 C 87 % 1018,5 hPa 0,0 l/m 3,0 km/h (1 Bft) S 173 0 min 0,000 mm 0,0 UV-I 0 W/m -0,4 C 1,5 C 4,8 km/h (1 Bft) 95,83 %
29.04.2016 01:52 1,5 C 87 % 1018,5 hPa 0,0 l/m 3,1 km/h (1 Bft) S 173 0 min 0,000 mm 0,0 UV-I 0 W/m -0,4 C 1,5 C 4,8 km/h (1 Bft) 95,83 %
29.04.2016 01:53 1,5 C 87 % 1018,5 hPa 0,0 l/m 3,3 km/h (1 Bft) S 173 0 min 0,000 mm 0,0 UV-I 0 W/m -0,4 C 1,5 C 4,8 km/h (1 Bft) 96,15 %
29.04.2016 01:54 1,5 C 87 % 1018,5 hPa 0,0 l/m 3,4 km/h (1 Bft) S 173 0 min 0,000 mm 0,0 UV-I 0 W/m -0,4 C 1,5 C 4,8 km/h (1 Bft) 95,65 %
29.04.2016 01:55 1,5 C 87 % 1018,5 hPa 0,0 l/m 3,4 km/h (1 Bft) S 173 0 min 0,000 mm 0,0 UV-I 0 W/m -0,4 C 1,5 C 4,8 km/h (1 Bft) 95,83 %
29.04.2016 01:56 1,5 C 87 % 1018,5 hPa 0,0 l/m 3,0 km/h (1 Bft) S 173 0 min 0,000 mm 0,0 UV-I 0 W/m -0,4 C 1,5 C 4,8 km/h (1 Bft) 95,83 %
29.04.2016 01:57 1,5 C 87 % 1018,5 hPa 0,0 l/m 3,8 km/h (1 Bft) S 173 0 min 0,000 mm 0,0 UV-I 0 W/m -0,4 C 1,5 C 4,8 km/h (1 Bft) 95,65 %
29.04.2016 01:58 1,5 C 87 % 1018,5 hPa 0,0 l/m 3,7 km/h (1 Bft) S 173 0 min 0,000 mm 0,0 UV-I 0 W/m -0,4 C 1,5 C 4,8 km/h (1 Bft) 95,83 %
29.04.2016 01:59 1,4 C 87 % 1018,5 hPa 0,0 l/m 3,4 km/h (1 Bft) S 172 0 min 0,000 mm 0,0 UV-I 0 W/m -0,5 C 1,4 C 4,8 km/h (1 Bft) 95,65 %
29.04.2016 02:00 1,4 C 87 % 1018,5 hPa 0,0 l/m 4,0 km/h (1 Bft) S 172 0 min 0,000 mm 0,0 UV-I 0 W/m -0,5 C 1,4 C 4,8 km/h (1 Bft) 100,00 %
29.04.2016 02:02 1,4 C 87 % 1018,5 hPa 0,0 l/m 3,1 km/h (1 Bft) S 172 0 min 0,000 mm 0,0 UV-I 0 W/m -0,5 C 1,4 C 4,8 km/h (1 Bft) 95,74 %
29.04.2016 02:03 1,4 C 87 % 1018,5 hPa 0,0 l/m 3,1 km/h (1 Bft) S 172 0 min 0,000 mm 0,0 UV-I 0 W/m -0,5 C 1,4 C 4,8 km/h (1 Bft) 96,15 %
29.04.2016 02:04 1,4 C 87 % 1018,5 hPa 0,0 l/m 3,2 km/h (1 Bft) S 172 0 min 0,000 mm 0,0 UV-I 0 W/m -0,5 C 1,4 C 4,8 km/h (1 Bft) 100,00 %
29.04.2016 02:05 1,4 C 87 % 1018,5 hPa 0,0 l/m 3,5 km/h (1 Bft) S 172 0 min 0,000 mm 0,0 UV-I 0 W/m -0,5 C 1,4 C 4,8 km/h (1 Bft) 91,30 %
29.04.2016 02:06 1,4 C 87 % 1018,4 hPa 0,0 l/m 3,6 km/h (1 Bft) S 172 0 min 0,000 mm 0,0 UV-I 0 W/m -0,5 C 1,4 C 4,8 km/h (1 Bft) 100,00 %
29.04.2016 02:07 1,4 C 87 % 1018,5 hPa 0,0 l/m 3,4 km/h (1 Bft) S 172 0 min 0,000 mm 0,0 UV-I 0 W/m -0,5 C 1,4 C 4,8 km/h (1 Bft) 95,65 %
29.04.2016 02:08 1,3 C 87 % 1018,5 hPa 0,0 l/m 3,8 km/h (1 Bft) S 172 0 min 0,000 mm 0,0 UV-I 0 W/m -0,6 C 1,3 C 4,8 km/h (1 Bft) 100,00 %
29.04.2016 02:09 1,3 C 87 % 1018,5 hPa 0,0 l/m 3,3 km/h (1 Bft) S 172 0 min 0,000 mm 0,0 UV-I 0 W/m -0,6 C 1,3 C 4,8 km/h (1 Bft) 100,00 %
29.04.2016 02:10 1,3 C 87 % 1018,5 hPa 0,0 l/m 3,2 km/h (1 Bft) S 172 0 min 0,000 mm 0,0 UV-I 0 W/m -0,6 C 1,3 C 4,8 km/h (1 Bft) 100,00 %
29.04.2016 02:11 1,3 C 88 % 1018,5 hPa 0,0 l/m 3,1 km/h (1 Bft) S 172 0 min 0,000 mm 0,0 UV-I 0 W/m -0,5 C 1,3 C 3,2 km/h (1 Bft) 95,65 %
29.04.2016 02:12 1,4 C 87 % 1018,5 hPa 0,0 l/m 3,6 km/h (1 Bft) S 172 0 min 0,000 mm 0,0 UV-I 0 W/m -0,5 C 1,4 C 4,8 km/h (1 Bft) 95,83 %
29.04.2016 02:13 1,4 C 87 % 1018,5 hPa 0,0 l/m 3,4 km/h (1 Bft) S 172 0 min 0,000 mm 0,0 UV-I 0 W/m -0,5 C 1,4 C 4,8 km/h (1 Bft) 100,00 %
29.04.2016 02:14 1,3 C 87 % 1018,5 hPa 0,0 l/m 3,7 km/h (1 Bft) S 172 0 min 0,000 mm 0,0 UV-I 0 W/m -0,6 C 1,3 C 4,8 km/h (1 Bft) 100,00 %
29.04.2016 02:15 1,3 C 87 % 1018,5 hPa 0,0 l/m 3,0 km/h (1 Bft) S 172 0 min 0,000 mm 0,0 UV-I 0 W/m -0,6 C 1,3 C 4,8 km/h (1 Bft) 100,00 %
29.04.2016 02:16 1,3 C 87 % 1018,5 hPa 0,0 l/m 2,8 km/h (1 Bft) S 172 0 min 0,000 mm 0,0 UV-I 0 W/m -0,6 C 1,3 C 3,2 km/h (1 Bft) 91,67 %
29.04.2016 02:17 1,2 C 87 % 1018,5 hPa 0,0 l/m 1,3 km/h (1 Bft) S 172 0 min 0,000 mm 0,0 UV-I 0 W/m -0,7 C 1,2 C 3,2 km/h (1 Bft) 100,00 %
29.04.2016 02:18 1,2 C 88 % 1018,5 hPa 0,0 l/m 1,5 km/h (1 Bft) S 172 0 min 0,000 mm 0,0 UV-I 0 W/m -0,6 C 1,2 C 3,2 km/h (1 Bft) 93,33 %
29.04.2016 02:19 1,2 C 88 % 1018,6 hPa 0,0 l/m 1,3 km/h (1 Bft) S 172 0 min 0,000 mm 0,0 UV-I 0 W/m -0,6 C 1,2 C 1,6 km/h (1 Bft) 100,00 %
29.04.2016 02:20 1,1 C 88 % 1018,6 hPa 0,0 l/m 1,0 km/h (0 Bft) S 172 0 min 0,000 mm 0,0 UV-I 0 W/m -0,7 C 1,1 C 1,6 km/h (1 Bft) 95,65 %
29.04.2016 02:21 1,1 C 88 % 1018,6 hPa 0,0 l/m 1,3 km/h (1 Bft) S 172 0 min 0,000 mm 0,0 UV-I 0 W/m -0,7 C 1,1 C 1,6 km/h (1 Bft) 95,83 %
29.04.2016 02:22 1,1 C 88 % 1018,6 hPa 0,0 l/m 1,4 km/h (1 Bft) S 172 0 min 0,000 mm 0,0 UV-I 0 W/m -0,7 C 1,1 C 3,2 km/h (1 Bft) 95,65 %
29.04.2016 02:23 1,1 C 88 % 1018,5 hPa 0,0 l/m 1,0 km/h (0 Bft) S 172 0 min 0,000 mm 0,0 UV-I 0 W/m -0,7 C 1,1 C 3,2 km/h (1 Bft) 95,83 %
29.04.2016 02:24 1,1 C 88 % 1018,6 hPa 0,0 l/m 0,8 km/h (0 Bft) S 172 0 min 0,000 mm 0,0 UV-I 0 W/m -0,7 C 1,1 C 1,6 km/h (1 Bft) 100,00 %
29.04.2016 02:25 1,1 C 88 % 1018,5 hPa 0,0 l/m 0,8 km/h (0 Bft) S 172 0 min 0,000 mm 0,0 UV-I 0 W/m -0,7 C 1,1 C 1,6 km/h (1 Bft) 100,00 %
29.04.2016 02:26 1,1 C 88 % 1018,6 hPa 0,0 l/m 1,2 km/h (1 Bft) S 172 0 min 0,000 mm 0,0 UV-I 0 W/m -0,7 C 1,1 C 1,6 km/h (1 Bft) 100,00 %
29.04.2016 02:27 1,1 C 88 % 1018,6 hPa 0,0 l/m 0,3 km/h (0 Bft) S 172 0 min 0,000 mm 0,0 UV-I 0 W/m -0,7 C 1,1 C 1,6 km/h (1 Bft) 100,00 %
29.04.2016 02:28 1,1 C 88 % 1018,6 hPa 0,0 l/m 0,9 km/h (0 Bft) S 172 0 min 0,000 mm 0,0 UV-I 0 W/m -0,7 C 1,1 C 1,6 km/h (1 Bft) 95,65 %
29.04.2016 02:29 1,2 C 88 % 1018,6 hPa 0,0 l/m 1,7 km/h (1 Bft) S 172 0 min 0,000 mm 0,0 UV-I 0 W/m -0,6 C 1,2 C 3,2 km/h (1 Bft) 100,00 %
29.04.2016 02:30 1,2 C 88 % 1018,6 hPa 0,0 l/m 1,8 km/h (1 Bft) S 172 0 min 0,000 mm 0,0 UV-I 0 W/m -0,6 C 1,2 C 3,2 km/h (1 Bft) 100,00 %
29.04.2016 02:31 1,2 C 88 % 1018,6 hPa 0,0 l/m 3,2 km/h (1 Bft) S 172 0 min 0,000 mm 0,0 UV-I 0 W/m -0,6 C 1,2 C 4,8 km/h (1 Bft) 100,00 %
29.04.2016 02:32 1,3 C 88 % 1018,6 hPa 0,0 l/m 3,2 km/h (1 Bft) S 172 0 min 0,000 mm 0,0 UV-I 0 W/m -0,5 C 1,3 C 4,8 km/h (1 Bft) 100,00 %
29.04.2016 02:33 1,3 C 88 % 1018,6 hPa 0,0 l/m 2,7 km/h (1 Bft) S 172 0 min 0,000 mm 0,0 UV-I 0 W/m -0,5 C 1,3 C 4,8 km/h (1 Bft) 100,00 %
29.04.2016 02:34 1,3 C 88 % 1018,6 hPa 0,0 l/m 1,6 km/h (1 Bft) S 172 0 min 0,000 mm 0,0 UV-I 0 W/m -0,5 C 1,3 C 3,2 km/h (1 Bft) 100,00 %
29.04.2016 02:35 1,3 C 88 % 1018,6 hPa 0,0 l/m 0,6 km/h (0 Bft) S 172 0 min 0,000 mm 0,0 UV-I 0 W/m -0,5 C 1,3 C 3,2 km/h (1 Bft) 100,00 %
29.04.2016 02:36 1,3 C 87 % 1018,5 hPa 0,0 l/m 0,8 km/h (0 Bft) S 172 0 min 0,000 mm 0,0 UV-I 0 W/m -0,6 C 1,3 C 1,6 km/h (1 Bft) 100,00 %
29.04.2016 02:37 1,3 C 87 % 1018,5 hPa 0,0 l/m 1,2 km/h (1 Bft) S 172 0 min 0,000 mm 0,0 UV-I 0 W/m -0,6 C 1,3 C 3,2 km/h (1 Bft) 95,83 %
29.04.2016 02:38 1,3 C 87 % 1018,5 hPa 0,0 l/m 2,1 km/h (1 Bft) S 172 0 min 0,000 mm 0,0 UV-I 0 W/m -0,6 C 1,3 C 4,8 km/h (1 Bft) 95,83 %
29.04.2016 02:39 1,3 C 87 % 1018,5 hPa 0,0 l/m 2,4 km/h (1 Bft) S 172 0 min 0,000 mm 0,0 UV-I 0 W/m -0,6 C 1,3 C 4,8 km/h (1 Bft) 100,00 %
29.04.2016 02:40 1,3 C 87 % 1018,5 hPa 0,0 l/m 2,5 km/h (1 Bft) S 172 0 min 0,000 mm 0,0 UV-I 0 W/m -0,6 C 1,3 C 3,2 km/h (1 Bft) 95,83 %
29.04.2016 02:41 1,3 C 87 % 1018,5 hPa 0,0 l/m 3,1 km/h (1 Bft) S 172 0 min 0,000 mm 0,0 UV-I 0 W/m -0,6 C 1,3 C 3,2 km/h (1 Bft) 96,15 %
29.04.2016 02:42 1,3 C 87 % 1018,5 hPa 0,0 l/m 2,5 km/h (1 Bft) S 172 0 min 0,000 mm 0,0 UV-I 0 W/m -0,6 C 1,3 C 3,2 km/h (1 Bft) 100,00 %
29.04.2016 02:43 1,3 C 87 % 1018,5 hPa 0,0 l/m 2,6 km/h (1 Bft) S 172 0 min 0,000 mm 0,0 UV-I 0 W/m -0,6 C 1,3 C 4,8 km/h (1 Bft) 100,00 %
29.04.2016 02:44 1,3 C 87 % 1018,6 hPa 0,0 l/m 2,4 km/h (1 Bft) S 172 0 min 0,000 mm 0,0 UV-I 0 W/m -0,6 C 1,3 C 3,2 km/h (1 Bft) 100,00 %
29.04.2016 02:45 1,3 C 87 % 1018,5 hPa 0,0 l/m 2,2 km/h (1 Bft) S 172 0 min 0,000 mm 0,0 UV-I 0 W/m -0,6 C 1,3 C 3,2 km/h (1 Bft) 100,00 %
29.04.2016 02:46 1,3 C 88 % 1018,5 hPa 0,0 l/m 2,8 km/h (1 Bft) S 172 0 min 0,000 mm 0,0 UV-I 0 W/m -0,5 C 1,3 C 3,2 km/h (1 Bft) 100,00 %
29.04.2016 02:47 1,2 C 87 % 1018,5 hPa 0,0 l/m 2,8 km/h (1 Bft) S 172 0 min 0,000 mm 0,0 UV-I 0 W/m -0,7 C 1,2 C 4,8 km/h (1 Bft) 95,65 %
29.04.2016 02:48 1,2 C 87 % 1018,5 hPa 0,0 l/m 2,7 km/h (1 Bft) S 172 0 min 0,000 mm 0,0 UV-I 0 W/m -0,7 C 1,2 C 3,2 km/h (1 Bft) 100,00 %
29.04.2016 02:49 1,2 C 88 % 1018,5 hPa 0,0 l/m 3,2 km/h (1 Bft) S 172 0 min 0,000 mm 0,0 UV-I 0 W/m -0,6 C 1,2 C 4,8 km/h (1 Bft) 100,00 %
29.04.2016 02:50 1,1 C 88 % 1018,6 hPa 0,0 l/m 2,2 km/h (1 Bft) S 172 0 min 0,000 mm 0,0 UV-I 0 W/m -0,7 C 1,1 C 3,2 km/h (1 Bft) 100,00 %
29.04.2016 02:51 1,1 C 88 % 1018,6 hPa 0,0 l/m 2,8 km/h (1 Bft) S 172 0 min 0,000 mm 0,0 UV-I 0 W/m -0,7 C 1,1 C 3,2 km/h (1 Bft) 100,00 %
29.04.2016 02:52 1,0 C 88 % 1018,6 hPa 0,0 l/m 3,2 km/h (1 Bft) S 172 0 min 0,000 mm 0,0 UV-I 0 W/m -0,8 C 1,0 C 4,8 km/h (1 Bft) 95,83 %
29.04.2016 02:53 0,9 C 88 % 1018,6 hPa 0,0 l/m 3,4 km/h (1 Bft) S 172 0 min 0,000 mm 0,0 UV-I 0 W/m -0,9 C 0,9 C 4,8 km/h (1 Bft) 91,30 %
29.04.2016 02:54 0,8 C 88 % 1018,6 hPa 0,0 l/m 3,4 km/h (1 Bft) S 172 0 min 0,000 mm 0,0 UV-I 0 W/m -1,0 C 0,8 C 4,8 km/h (1 Bft) 100,00 %
29.04.2016 02:55 0,7 C 88 % 1018,6 hPa 0,0 l/m 3,1 km/h (1 Bft) S 172 0 min 0,000 mm 0,0 UV-I 0 W/m -1,1 C 0,7 C 4,8 km/h (1 Bft) 100,00 %
29.04.2016 02:56 0,7 C 89 % 1018,6 hPa 0,0 l/m 3,2 km/h (1 Bft) S 172 0 min 0,000 mm 0,0 UV-I 0 W/m -0,9 C 0,7 C 4,8 km/h (1 Bft) 100,00 %
29.04.2016 02:57 0,6 C 89 % 1018,6 hPa 0,0 l/m 3,0 km/h (1 Bft) S 172 0 min 0,000 mm 0,0 UV-I 0 W/m -1,0 C 0,6 C 4,8 km/h (1 Bft) 100,00 %
29.04.2016 02:58 0,6 C 89 % 1018,6 hPa 0,0 l/m 3,0 km/h (1 Bft) S 172 0 min 0,000 mm 0,0 UV-I 0 W/m -1,0 C 0,6 C 4,8 km/h (1 Bft) 100,00 %
29.04.2016 02:59 0,5 C 89 % 1018,6 hPa 0,0 l/m 3,8 km/h (1 Bft) S 172 0 min 0,000 mm 0,0 UV-I 0 W/m -1,1 C 0,5 C 4,8 km/h (1 Bft) 100,00 %
29.04.2016 03:00 0,5 C 90 % 1018,6 hPa 0,0 l/m 3,4 km/h (1 Bft) S 172 0 min 0,000 mm 0,0 UV-I 0 W/m -0,9 C 0,5 C 4,8 km/h (1 Bft) 100,00 %
29.04.2016 03:02 0,6 C 90 % 1018,6 hPa 0,0 l/m 3,9 km/h (1 Bft) S 171 0 min 0,000 mm 0,0 UV-I 0 W/m -0,8 C 0,6 C 8,0 km/h (2 Bft) 100,00 %
29.04.2016 03:03 0,7 C 90 % 1018,6 hPa 0,0 l/m 4,5 km/h (1 Bft) S 169 0 min 0,000 mm 0,0 UV-I 0 W/m -0,7 C 0,7 C 6,4 km/h (2 Bft) 100,00 %
29.04.2016 03:04 0,7 C 90 % 1018,7 hPa 0,0 l/m 3,6 km/h (1 Bft) S 182 0 min 0,000 mm 0,0 UV-I 0 W/m -0,7 C 0,7 C 8,0 km/h (2 Bft) 100,00 %
29.04.2016 03:05 0,8 C 89 % 1018,7 hPa 0,0 l/m 3,3 km/h (1 Bft) S 182 0 min 0,000 mm 0,0 UV-I 0 W/m -0,8 C 0,8 C 4,8 km/h (1 Bft) 100,00 %
29.04.2016 03:06 0,8 C 89 % 1018,6 hPa 0,0 l/m 3,3 km/h (1 Bft) S 182 0 min 0,000 mm 0,0 UV-I 0 W/m -0,8 C 0,8 C 4,8 km/h (1 Bft) 100,00 %
29.04.2016 03:07 0,9 C 89 % 1018,7 hPa 0,0 l/m 3,0 km/h (1 Bft) S 182 0 min 0,000 mm 0,0 UV-I 0 W/m -0,7 C 0,9 C 4,8 km/h (1 Bft) 100,00 %
29.04.2016 03:08 0,9 C 88 % 1018,7 hPa 0,0 l/m 3,7 km/h (1 Bft) S 182 0 min 0,000 mm 0,0 UV-I 0 W/m -0,9 C 0,9 C 4,8 km/h (1 Bft) 91,30 %
29.04.2016 03:09 0,9 C 88 % 1018,7 hPa 0,0 l/m 3,2 km/h (1 Bft) S 182 0 min 0,000 mm 0,0 UV-I 0 W/m -0,9 C 0,9 C 3,2 km/h (1 Bft) 100,00 %
29.04.2016 03:10 0,9 C 88 % 1018,7 hPa 0,0 l/m 3,2 km/h (1 Bft) S 182 0 min 0,000 mm 0,0 UV-I 0 W/m -0,9 C 0,9 C 4,8 km/h (1 Bft) 95,65 %
29.04.2016 03:11 0,9 C 88 % 1018,6 hPa 0,0 l/m 2,9 km/h (1 Bft) S 182 0 min 0,000 mm 0,0 UV-I 0 W/m -0,9 C 0,9 C 4,8 km/h (1 Bft) 100,00 %
29.04.2016 03:12 0,9 C 88 % 1018,6 hPa 0,0 l/m 1,7 km/h (1 Bft) S 182 0 min 0,000 mm 0,0 UV-I 0 W/m -0,9 C 0,9 C 3,2 km/h (1 Bft) 100,00 %
29.04.2016 03:13 0,9 C 88 % 1018,6 hPa 0,0 l/m 1,3 km/h (1 Bft) S 182 0 min 0,000 mm 0,0 UV-I 0 W/m -0,9 C 0,9 C 3,2 km/h (1 Bft) 100,00 %
29.04.2016 03:14 0,9 C 88 % 1018,6 hPa 0,0 l/m 1,1 km/h (1 Bft) S 182 0 min 0,000 mm 0,0 UV-I 0 W/m -0,9 C 0,9 C 1,6 km/h (1 Bft) 100,00 %
29.04.2016 03:15 0,9 C 88 % 1018,6 hPa 0,0 l/m 0,8 km/h (0 Bft) S 182 0 min 0,000 mm 0,0 UV-I 0 W/m -0,9 C 0,9 C 1,6 km/h (1 Bft) 100,00 %
29.04.2016 03:16 0,8 C 88 % 1018,6 hPa 0,0 l/m 1,7 km/h (1 Bft) S 182 0 min 0,000 mm 0,0 UV-I 0 W/m -1,0 C 0,8 C 3,2 km/h (1 Bft) 100,00 %
29.04.2016 03:17 0,8 C 88 % 1018,6 hPa 0,0 l/m 3,1 km/h (1 Bft) S 182 0 min 0,000 mm 0,0 UV-I 0 W/m -1,0 C 0,8 C 4,8 km/h (1 Bft) 100,00 %
29.04.2016 03:18 0,8 C 88 % 1018,6 hPa 0,0 l/m 3,2 km/h (1 Bft) S 182 0 min 0,000 mm 0,0 UV-I 0 W/m -1,0 C 0,8 C 4,8 km/h (1 Bft) 100,00 %
29.04.2016 03:19 0,8 C 88 % 1018,6 hPa 0,0 l/m 3,3 km/h (1 Bft) S 182 0 min 0,000 mm 0,0 UV-I 0 W/m -1,0 C 0,8 C 4,8 km/h (1 Bft) 100,00 %
29.04.2016 03:20 0,9 C 88 % 1018,6 hPa 0,0 l/m 2,9 km/h (1 Bft) S 182 0 min 0,000 mm 0,0 UV-I 0 W/m -0,9 C 0,9 C 3,2 km/h (1 Bft) 100,00 %
29.04.2016 03:21 0,9 C 88 % 1018,6 hPa 0,0 l/m 3,0 km/h (1 Bft) S 182 0 min 0,000 mm 0,0 UV-I 0 W/m -0,9 C 0,9 C 3,2 km/h (1 Bft) 100,00 %
29.04.2016 03:22 0,9 C 88 % 1018,7 hPa 0,0 l/m 2,7 km/h (1 Bft) S 182 0 min 0,000 mm 0,0 UV-I 0 W/m -0,9 C 0,9 C 3,2 km/h (1 Bft) 91,67 %
29.04.2016 03:23 1,0 C 88 % 1018,6 hPa 0,0 l/m 2,6 km/h (1 Bft) S 182 0 min 0,000 mm 0,0 UV-I 0 W/m -0,8 C 1,0 C 4,8 km/h (1 Bft) 95,65 %
29.04.2016 03:24 1,0 C 88 % 1018,6 hPa 0,0 l/m 2,7 km/h (1 Bft) S 182 0 min 0,000 mm 0,0 UV-I 0 W/m -0,8 C 1,0 C 3,2 km/h (1 Bft) 91,67 %
29.04.2016 03:25 1,0 C 88 % 1018,6 hPa 0,0 l/m 1,9 km/h (1 Bft) S 182 0 min 0,000 mm 0,0 UV-I 0 W/m -0,8 C 1,0 C 3,2 km/h (1 Bft) 95,65 %
29.04.2016 03:26 1,0 C 88 % 1018,7 hPa 0,0 l/m 1,1 km/h (1 Bft) S 182 0 min 0,000 mm 0,0 UV-I 0 W/m -0,8 C 1,0 C 1,6 km/h (1 Bft) 100,00 %
29.04.2016 03:27 0,9 C 87 % 1018,7 hPa 0,0 l/m 1,0 km/h (0 Bft) S 182 0 min 0,000 mm 0,0 UV-I 0 W/m -1,0 C 0,9 C 1,6 km/h (1 Bft) 96,15 %
29.04.2016 03:28 0,9 C 87 % 1018,7 hPa 0,0 l/m 1,2 km/h (1 Bft) S 182 0 min 0,000 mm 0,0 UV-I 0 W/m -1,0 C 0,9 C 3,2 km/h (1 Bft) 100,00 %
29.04.2016 03:29 0,8 C 87 % 1018,6 hPa 0,0 l/m 1,4 km/h (1 Bft) S 182 0 min 0,000 mm 0,0 UV-I 0 W/m -1,1 C 0,8 C 3,2 km/h (1 Bft) 100,00 %
29.04.2016 03:30 0,8 C 88 % 1018,7 hPa 0,0 l/m 1,5 km/h (1 Bft) S 182 0 min 0,000 mm 0,0 UV-I 0 W/m -1,0 C 0,8 C 3,2 km/h (1 Bft) 100,00 %
29.04.2016 03:31 0,7 C 88 % 1018,7 hPa 0,0 l/m 2,2 km/h (1 Bft) S 178 0 min 0,000 mm 0,0 UV-I 0 W/m -1,1 C 0,7 C 3,2 km/h (1 Bft) 100,00 %
29.04.2016 03:32 0,7 C 88 % 1018,7 hPa 0,0 l/m 1,7 km/h (1 Bft) S 178 0 min 0,000 mm 0,0 UV-I 0 W/m -1,1 C 0,7 C 4,8 km/h (1 Bft) 100,00 %
29.04.2016 03:33 0,7 C 88 % 1018,7 hPa 0,0 l/m 3,0 km/h (1 Bft) S 178 0 min 0,000 mm 0,0 UV-I 0 W/m -1,1 C 0,7 C 4,8 km/h (1 Bft) 95,65 %
29.04.2016 03:34 0,6 C 89 % 1018,7 hPa 0,0 l/m 2,1 km/h (1 Bft) S 178 0 min 0,000 mm 0,0 UV-I 0 W/m -1,0 C 0,6 C 3,2 km/h (1 Bft) 100,00 %
29.04.2016 03:35 0,7 C 89 % 1018,6 hPa 0,0 l/m 2,3 km/h (1 Bft) S 178 0 min 0,000 mm 0,0 UV-I 0 W/m -0,9 C 0,7 C 4,8 km/h (1 Bft) 95,65 %
29.04.2016 03:36 0,7 C 89 % 1018,7 hPa 0,0 l/m 2,2 km/h (1 Bft) S 178 0 min 0,000 mm 0,0 UV-I 0 W/m -0,9 C 0,7 C 4,8 km/h (1 Bft) 96,30 %
29.04.2016 03:37 0,7 C 89 % 1018,6 hPa 0,0 l/m 2,3 km/h (1 Bft) S 178 0 min 0,000 mm 0,0 UV-I 0 W/m -0,9 C 0,7 C 3,2 km/h (1 Bft) 100,00 %
29.04.2016 03:38 0,8 C 89 % 1018,7 hPa 0,0 l/m 1,1 km/h (1 Bft) S 178 0 min 0,000 mm 0,0 UV-I 0 W/m -0,8 C 0,8 C 1,6 km/h (1 Bft) 96,15 %
29.04.2016 03:39 0,8 C 88 % 1018,7 hPa 0,0 l/m 1,2 km/h (1 Bft) S 178 0 min 0,000 mm 0,0 UV-I 0 W/m -1,0 C 0,8 C 3,2 km/h (1 Bft) 100,00 %
29.04.2016 03:40 0,8 C 88 % 1018,7 hPa 0,0 l/m 1,7 km/h (1 Bft) S 178 0 min 0,000 mm 0,0 UV-I 0 W/m -1,0 C 0,8 C 3,2 km/h (1 Bft) 95,65 %
29.04.2016 03:41 0,7 C 88 % 1018,6 hPa 0,0 l/m 2,0 km/h (1 Bft) S 178 0 min 0,000 mm 0,0 UV-I 0 W/m -1,1 C 0,7 C 3,2 km/h (1 Bft) 100,00 %
29.04.2016 03:42 0,7 C 88 % 1018,6 hPa 0,0 l/m 2,3 km/h (1 Bft) S 178 0 min 0,000 mm 0,0 UV-I 0 W/m -1,1 C 0,7 C 3,2 km/h (1 Bft) 91,30 %
29.04.2016 03:43 0,7 C 88 % 1018,6 hPa 0,0 l/m 2,7 km/h (1 Bft) S 178 0 min 0,000 mm 0,0 UV-I 0 W/m -1,1 C 0,7 C 3,2 km/h (1 Bft) 100,00 %
29.04.2016 03:44 0,7 C 88 % 1018,6 hPa 0,0 l/m 2,7 km/h (1 Bft) S 178 0 min 0,000 mm 0,0 UV-I 0 W/m -1,1 C 0,7 C 4,8 km/h (1 Bft) 95,65 %
29.04.2016 03:45 0,7 C 88 % 1018,6 hPa 0,0 l/m 2,3 km/h (1 Bft) S 178 0 min 0,000 mm 0,0 UV-I 0 W/m -1,1 C 0,7 C 3,2 km/h (1 Bft) 96,30 %
29.04.2016 03:46 0,7 C 88 % 1018,6 hPa 0,0 l/m 2,8 km/h (1 Bft) S 178 0 min 0,000 mm 0,0 UV-I 0 W/m -1,1 C 0,7 C 3,2 km/h (1 Bft) 95,65 %
29.04.2016 03:47 0,7 C 89 % 1018,6 hPa 0,0 l/m 2,6 km/h (1 Bft) S 178 0 min 0,000 mm 0,0 UV-I 0 W/m -0,9 C 0,7 C 3,2 km/h (1 Bft) 95,83 %
29.04.2016 03:48 0,6 C 88 % 1018,6 hPa 0,0 l/m 1,8 km/h (1 Bft) S 178 0 min 0,000 mm 0,0 UV-I 0 W/m -1,2 C 0,6 C 3,2 km/h (1 Bft) 100,00 %
29.04.2016 03:49 0,6 C 88 % 1018,6 hPa 0,0 l/m 1,3 km/h (1 Bft) S 178 0 min 0,000 mm 0,0 UV-I 0 W/m -1,2 C 0,6 C 3,2 km/h (1 Bft) 95,83 %
29.04.2016 03:50 0,4 C 88 % 1018,6 hPa 0,0 l/m 0,1 km/h (0 Bft) S 178 0 min 0,000 mm 0,0 UV-I 0 W/m -1,3 C 0,4 C 1,6 km/h (1 Bft) 95,65 %
29.04.2016 03:51 0,3 C 89 % 1018,6 hPa 0,0 l/m 0,3 km/h (0 Bft) S 178 0 min 0,000 mm 0,0 UV-I 0 W/m -1,3 C 0,3 C 1,6 km/h (1 Bft) 95,83 %
29.04.2016 03:52 0,3 C 89 % 1018,6 hPa 0,0 l/m 0,1 km/h (0 Bft) S 178 0 min 0,000 mm 0,0 UV-I 0 W/m -1,3 C 0,3 C 1,6 km/h (1 Bft) 100,00 %
29.04.2016 03:53 0,2 C 89 % 1018,6 hPa 0,0 l/m 0,0 km/h (0 Bft) S 178 0 min 0,000 mm 0,0 UV-I 0 W/m -1,4 C 0,2 C 0,0 km/h (0 Bft) 95,83 %
29.04.2016 03:54 0,2 C 89 % 1018,6 hPa 0,0 l/m 0,0 km/h (0 Bft) S 178 0 min 0,000 mm 0,0 UV-I 0 W/m -1,4 C 0,2 C 0,0 km/h (0 Bft) 95,65 %
29.04.2016 03:55 0,1 C 90 % 1018,6 hPa 0,0 l/m 0,0 km/h (0 Bft) S 178 0 min 0,000 mm 0,0 UV-I 0 W/m -1,3 C 0,1 C 0,0 km/h (0 Bft) 100,00 %
29.04.2016 03:56 0,1 C 90 % 1018,6 hPa 0,0 l/m 0,0 km/h (0 Bft) S 178 0 min 0,000 mm 0,0 UV-I 0 W/m -1,3 C 0,1 C 0,0 km/h (0 Bft) 91,30 %
29.04.2016 03:57 0,1 C 90 % 1018,7 hPa 0,0 l/m 0,0 km/h (0 Bft) S 178 0 min 0,000 mm 0,0 UV-I 0 W/m -1,3 C 0,1 C 0,0 km/h (0 Bft) 96,30 %
29.04.2016 03:58 0,0 C 90 % 1018,6 hPa 0,0 l/m 0,0 km/h (0 Bft) S 178 0 min 0,000 mm 0,0 UV-I 0 W/m -1,4 C 0,0 C 0,0 km/h (0 Bft) 95,65 %
29.04.2016 03:59 0,0 C 91 % 1018,7 hPa 0,0 l/m 0,0 km/h (0 Bft) S 178 0 min 0,000 mm 0,0 UV-I 0 W/m -1,3 C 0,0 C 0,0 km/h (0 Bft) 95,83 %
29.04.2016 04:00 0,0 C 91 % 1018,7 hPa 0,0 l/m 0,1 km/h (0 Bft) S 178 0 min 0,000 mm 0,0 UV-I 0 W/m -1,3 C 0,0 C 1,6 km/h (1 Bft) 95,83 %
29.04.2016 04:02 -0,1 C 91 % 1018,7 hPa 0,0 l/m 0,5 km/h (0 Bft) S 178 0 min 0,000 mm 0,0 UV-I 0 W/m -1,4 C -0,1 C 1,6 km/h (1 Bft) 96,15 %
29.04.2016 04:03 -0,1 C 90 % 1018,8 hPa 0,0 l/m 2,8 km/h (1 Bft) S 178 0 min 0,000 mm 0,0 UV-I 0 W/m -1,5 C -0,1 C 4,8 km/h (1 Bft) 100,00 %
29.04.2016 04:04 -0,1 C 91 % 1018,8 hPa 0,0 l/m 3,8 km/h (1 Bft) S 179 0 min 0,000 mm 0,0 UV-I 0 W/m -1,4 C -0,1 C 4,8 km/h (1 Bft) 95,83 %
29.04.2016 04:05 -0,1 C 91 % 1018,8 hPa 0,0 l/m 2,4 km/h (1 Bft) S 179 0 min 0,000 mm 0,0 UV-I 0 W/m -1,4 C -0,1 C 3,2 km/h (1 Bft) 96,55 %
29.04.2016 04:06 -0,1 C 91 % 1018,8 hPa 0,0 l/m 2,0 km/h (1 Bft) S 179 0 min 0,000 mm 0,0 UV-I 0 W/m -1,4 C -0,1 C 3,2 km/h (1 Bft) 100,00 %
29.04.2016 04:07 -0,2 C 90 % 1018,7 hPa 0,0 l/m 1,9 km/h (1 Bft) S 179 0 min 0,000 mm 0,0 UV-I 0 W/m -1,6 C -0,2 C 3,2 km/h (1 Bft) 100,00 %
29.04.2016 04:08 -0,2 C 91 % 1018,8 hPa 0,0 l/m 2,7 km/h (1 Bft) S 179 0 min 0,000 mm 0,0 UV-I 0 W/m -1,5 C -0,2 C 3,2 km/h (1 Bft) 95,83 %
29.04.2016 04:09 -0,2 C 91 % 1018,8 hPa 0,0 l/m 2,0 km/h (1 Bft) S 179 0 min 0,000 mm 0,0 UV-I 0 W/m -1,5 C -0,2 C 3,2 km/h (1 Bft) 95,65 %
29.04.2016 04:10 -0,2 C 91 % 1018,8 hPa 0,0 l/m 2,3 km/h (1 Bft) S 179 0 min 0,000 mm 0,0 UV-I 0 W/m -1,5 C -0,2 C 3,2 km/h (1 Bft) 95,83 %
29.04.2016 04:11 -0,3 C 91 % 1018,8 hPa 0,0 l/m 1,3 km/h (1 Bft) S 179 0 min 0,000 mm 0,0 UV-I 0 W/m -1,6 C -0,3 C 1,6 km/h (1 Bft) 95,65 %
29.04.2016 04:12 -0,3 C 91 % 1018,9 hPa 0,0 l/m 0,1 km/h (0 Bft) S 179 0 min 0,000 mm 0,0 UV-I 0 W/m -1,6 C -0,3 C 1,6 km/h (1 Bft) 95,83 %
29.04.2016 04:13 -0,3 C 91 % 1018,9 hPa 0,0 l/m 0,0 km/h (0 Bft) S 179 0 min 0,000 mm 0,0 UV-I 0 W/m -1,6 C -0,3 C 0,0 km/h (0 Bft) 95,65 %
29.04.2016 04:14 -0,3 C 91 % 1018,9 hPa 0,0 l/m 0,0 km/h (0 Bft) S 179 0 min 0,000 mm 0,0 UV-I 0 W/m -1,6 C -0,3 C 0,0 km/h (0 Bft) 100,00 %
29.04.2016 04:15 -0,3 C 91 % 1018,9 hPa 0,0 l/m 0,0 km/h (0 Bft) S 179 0 min 0,000 mm 0,0 UV-I 0 W/m -1,6 C -0,3 C 0,0 km/h (0 Bft) 100,00 %
29.04.2016 04:16 -0,3 C 91 % 1018,9 hPa 0,0 l/m 0,0 km/h (0 Bft) S 179 0 min 0,000 mm 0,0 UV-I 0 W/m -1,6 C -0,3 C 0,0 km/h (0 Bft) 100,00 %
29.04.2016 04:17 -0,2 C 91 % 1018,9 hPa 0,0 l/m 0,0 km/h (0 Bft) S 179 0 min 0,000 mm 0,0 UV-I 0 W/m -1,5 C -0,2 C 0,0 km/h (0 Bft) 100,00 %
29.04.2016 04:18 -0,2 C 91 % 1019,0 hPa 0,0 l/m 1,3 km/h (1 Bft) S 179 0 min 0,000 mm 0,0 UV-I 0 W/m -1,5 C -0,2 C 1,6 km/h (1 Bft) 100,00 %
29.04.2016 04:19 -0,2 C 91 % 1018,9 hPa 0,0 l/m 1,1 km/h (1 Bft) S 179 0 min 0,000 mm 0,0 UV-I 0 W/m -1,5 C -0,2 C 1,6 km/h (1 Bft) 100,00 %
29.04.2016 04:20 -0,2 C 91 % 1018,9 hPa 0,0 l/m 1,7 km/h (1 Bft) S 179 0 min 0,000 mm 0,0 UV-I 0 W/m -1,5 C -0,2 C 3,2 km/h (1 Bft) 100,00 %
29.04.2016 04:21 -0,1 C 91 % 1018,9 hPa 0,0 l/m 1,1 km/h (1 Bft) S 179 0 min 0,000 mm 0,0 UV-I 0 W/m -1,4 C -0,1 C 1,6 km/h (1 Bft) 100,00 %
29.04.2016 04:22 -0,1 C 90 % 1018,9 hPa 0,0 l/m 0,9 km/h (0 Bft) S 179 0 min 0,000 mm 0,0 UV-I 0 W/m -1,5 C -0,1 C 1,6 km/h (1 Bft) 100,00 %
29.04.2016 04:23 -0,1 C 90 % 1018,9 hPa 0,0 l/m 0,0 km/h (0 Bft) S 179 0 min 0,000 mm 0,0 UV-I 0 W/m -1,5 C -0,1 C 0,0 km/h (0 Bft) 100,00 %
29.04.2016 04:24 -0,1 C 90 % 1018,9 hPa 0,0 l/m 0,0 km/h (0 Bft) S 179 0 min 0,000 mm 0,0 UV-I 0 W/m -1,5 C -0,1 C 0,0 km/h (0 Bft) 100,00 %
29.04.2016 04:25 -0,1 C 90 % 1018,9 hPa 0,0 l/m 0,0 km/h (0 Bft) S 179 0 min 0,000 mm 0,0 UV-I 0 W/m -1,5 C -0,1 C 0,0 km/h (0 Bft) 100,00 %
29.04.2016 04:26 -0,2 C 90 % 1018,9 hPa 0,0 l/m 0,7 km/h (0 Bft) S 179 0 min 0,000 mm 0,0 UV-I 0 W/m -1,6 C -0,2 C 1,6 km/h (1 Bft) 95,65 %
29.04.2016 04:27 -0,2 C 90 % 1019,0 hPa 0,0 l/m 0,5 km/h (0 Bft) S 179 0 min 0,000 mm 0,0 UV-I 0 W/m -1,6 C -0,2 C 1,6 km/h (1 Bft) 100,00 %
29.04.2016 04:28 -0,2 C 90 % 1019,0 hPa 0,0 l/m 0,0 km/h (0 Bft) S 179 0 min 0,000 mm 0,0 UV-I 0 W/m -1,6 C -0,2 C 0,0 km/h (0 Bft) 100,00 %
29.04.2016 04:29 -0,2 C 90 % 1019,0 hPa 0,0 l/m 0,0 km/h (0 Bft) S 179 0 min 0,000 mm 0,0 UV-I 0 W/m -1,6 C -0,2 C 0,0 km/h (0 Bft) 95,83 %
29.04.2016 04:30 -0,2 C 90 % 1019,0 hPa 0,0 l/m 0,1 km/h (0 Bft) S 179 0 min 0,000 mm 0,0 UV-I 0 W/m -1,6 C -0,2 C 1,6 km/h (1 Bft) 100,00 %
29.04.2016 04:31 -0,2 C 90 % 1019,0 hPa 0,0 l/m 1,5 km/h (1 Bft) S 179 0 min 0,000 mm 0,0 UV-I 0 W/m -1,6 C -0,2 C 3,2 km/h (1 Bft) 100,00 %
29.04.2016 04:32 -0,2 C 91 % 1019,0 hPa 0,0 l/m 1,0 km/h (0 Bft) S 179 0 min 0,000 mm 0,0 UV-I 0 W/m -1,5 C -0,2 C 1,6 km/h (1 Bft) 95,65 %
29.04.2016 04:33 -0,3 C 91 % 1019,0 hPa 0,0 l/m 1,6 km/h (1 Bft) S 179 0 min 0,000 mm 0,0 UV-I 0 W/m -1,6 C -0,3 C 3,2 km/h (1 Bft) 95,83 %
29.04.2016 04:34 -0,3 C 91 % 1019,0 hPa 0,0 l/m 1,5 km/h (1 Bft) S 179 0 min 0,000 mm 0,0 UV-I 0 W/m -1,6 C -0,3 C 3,2 km/h (1 Bft) 100,00 %
29.04.2016 04:35 -0,3 C 91 % 1019,0 hPa 0,0 l/m 1,9 km/h (1 Bft) S 179 0 min 0,000 mm 0,0 UV-I 0 W/m -1,6 C -0,3 C 3,2 km/h (1 Bft) 100,00 %
29.04.2016 04:36 -0,3 C 91 % 1019,0 hPa 0,0 l/m 2,0 km/h (1 Bft) S 179 0 min 0,000 mm 0,0 UV-I 0 W/m -1,6 C -0,3 C 3,2 km/h (1 Bft) 100,00 %
29.04.2016 04:37 -0,2 C 91 % 1019,0 hPa 0,0 l/m 2,3 km/h (1 Bft) S 178 0 min 0,000 mm 0,0 UV-I 0 W/m -1,5 C -0,2 C 3,2 km/h (1 Bft) 100,00 %
29.04.2016 04:38 -0,2 C 91 % 1019,0 hPa 0,0 l/m 2,1 km/h (1 Bft) S 178 0 min 0,000 mm 0,0 UV-I 0 W/m -1,5 C -0,2 C 3,2 km/h (1 Bft) 100,00 %
29.04.2016 04:39 -0,1 C 91 % 1019,0 hPa 0,0 l/m 1,7 km/h (1 Bft) S 178 0 min 0,000 mm 0,0 UV-I 0 W/m -1,4 C -0,1 C 3,2 km/h (1 Bft) 95,65 %
29.04.2016 04:40 -0,1 C 91 % 1019,0 hPa 0,0 l/m 0,6 km/h (0 Bft) S 178 0 min 0,000 mm 0,0 UV-I 0 W/m -1,4 C -0,1 C 1,6 km/h (1 Bft) 100,00 %
29.04.2016 04:41 -0,1 C 91 % 1019,0 hPa 0,0 l/m 1,2 km/h (1 Bft) S 178 0 min 0,000 mm 0,0 UV-I 0 W/m -1,4 C -0,1 C 3,2 km/h (1 Bft) 100,00 %
29.04.2016 04:42 -0,1 C 91 % 1019,0 hPa 0,0 l/m 1,7 km/h (1 Bft) S 178 0 min 0,000 mm 0,0 UV-I 0 W/m -1,4 C -0,1 C 3,2 km/h (1 Bft) 100,00 %
29.04.2016 04:43 -0,2 C 91 % 1019,0 hPa 0,0 l/m 0,9 km/h (0 Bft) S 178 0 min 0,000 mm 0,0 UV-I 0 W/m -1,5 C -0,2 C 1,6 km/h (1 Bft) 100,00 %
29.04.2016 04:44 -0,2 C 91 % 1019,0 hPa 0,0 l/m 1,0 km/h (0 Bft) S 178 0 min 0,000 mm 0,0 UV-I 0 W/m -1,5 C -0,2 C 1,6 km/h (1 Bft) 100,00 %
29.04.2016 04:45 -0,2 C 91 % 1019,0 hPa 0,0 l/m 0,9 km/h (0 Bft) S 178 0 min 0,000 mm 0,0 UV-I 0 W/m -1,5 C -0,2 C 1,6 km/h (1 Bft) 100,00 %
29.04.2016 04:46 -0,2 C 91 % 1019,0 hPa 0,0 l/m 0,1 km/h (0 Bft) S 178 0 min 0,000 mm 0,0 UV-I 0 W/m -1,5 C -0,2 C 1,6 km/h (1 Bft) 91,67 %
29.04.2016 04:47 -0,2 C 92 % 1019,0 hPa 0,0 l/m 0,6 km/h (0 Bft) S 178 0 min 0,000 mm 0,0 UV-I 0 W/m -1,3 C -0,2 C 1,6 km/h (1 Bft) 92,86 %
29.04.2016 04:48 -0,2 C 92 % 1019,0 hPa 0,0 l/m 0,1 km/h (0 Bft) S 178 0 min 0,000 mm 0,0 UV-I 0 W/m -1,3 C -0,2 C 1,6 km/h (1 Bft) 100,00 %
29.04.2016 04:49 -0,3 C 91 % 1019,0 hPa 0,0 l/m 0,0 km/h (0 Bft) S 178 0 min 0,000 mm 0,0 UV-I 0 W/m -1,6 C -0,3 C 0,0 km/h (0 Bft) 100,00 %
29.04.2016 04:50 -0,3 C 92 % 1019,0 hPa 0,0 l/m 0,0 km/h (0 Bft) S 178 0 min 0,000 mm 0,0 UV-I 0 W/m -1,4 C -0,3 C 0,0 km/h (0 Bft) 100,00 %
29.04.2016 04:51 -0,3 C 92 % 1019,0 hPa 0,0 l/m 0,0 km/h (0 Bft) S 178 0 min 0,000 mm 0,0 UV-I 0 W/m -1,4 C -0,3 C 0,0 km/h (0 Bft) 100,00 %
29.04.2016 04:52 -0,4 C 92 % 1019,0 hPa 0,0 l/m 1,1 km/h (1 Bft) S 178 0 min 0,000 mm 0,0 UV-I 0 W/m -1,5 C -0,4 C 1,6 km/h (1 Bft) 95,83 %
29.04.2016 04:53 -0,4 C 92 % 1019,0 hPa 0,0 l/m 1,3 km/h (1 Bft) S 178 0 min 0,000 mm 0,0 UV-I 0 W/m -1,5 C -0,4 C 1,6 km/h (1 Bft) 95,65 %
29.04.2016 04:54 -0,5 C 92 % 1019,0 hPa 0,0 l/m 1,3 km/h (1 Bft) S 178 0 min 0,000 mm 0,0 UV-I 0 W/m -1,6 C -0,5 C 1,6 km/h (1 Bft) 100,00 %
29.04.2016 04:55 -0,5 C 92 % 1019,0 hPa 0,0 l/m 0,9 km/h (0 Bft) S 178 0 min 0,000 mm 0,0 UV-I 0 W/m -1,6 C -0,5 C 1,6 km/h (1 Bft) 100,00 %
29.04.2016 04:56 -0,6 C 92 % 1019,0 hPa 0,0 l/m 1,6 km/h (1 Bft) S 178 0 min 0,000 mm 0,0 UV-I 0 W/m -1,7 C -0,6 C 3,2 km/h (1 Bft) 100,00 %
29.04.2016 04:57 -0,6 C 92 % 1019,0 hPa 0,0 l/m 2,5 km/h (1 Bft) S 178 0 min 0,000 mm 0,0 UV-I 0 W/m -1,7 C -0,6 C 3,2 km/h (1 Bft) 100,00 %
29.04.2016 04:58 -0,7 C 92 % 1019,0 hPa 0,0 l/m 2,0 km/h (1 Bft) S 178 0 min 0,000 mm 0,0 UV-I 0 W/m -1,8 C -0,7 C 3,2 km/h (1 Bft) 95,83 %
29.04.2016 04:59 -0,7 C 93 % 1019,0 hPa 0,0 l/m 2,1 km/h (1 Bft) S 178 0 min 0,000 mm 0,0 UV-I 0 W/m -1,7 C -0,7 C 3,2 km/h (1 Bft) 100,00 %
29.04.2016 05:00 -0,7 C 93 % 1018,9 hPa 0,0 l/m 1,8 km/h (1 Bft) S 178 0 min 0,000 mm 0,0 UV-I 0 W/m -1,7 C -0,7 C 3,2 km/h (1 Bft) 95,65 %
29.04.2016 05:02 -0,8 C 93 % 1019,0 hPa 0,0 l/m 0,3 km/h (0 Bft) S 178 0 min 0,000 mm 0,0 UV-I 0 W/m -1,8 C -0,8 C 1,6 km/h (1 Bft) 100,00 %
29.04.2016 05:03 -0,8 C 93 % 1019,0 hPa 0,0 l/m 0,5 km/h (0 Bft) S 178 0 min 0,000 mm 0,0 UV-I 0 W/m -1,8 C -0,8 C 1,6 km/h (1 Bft) 100,00 %
29.04.2016 05:04 -0,8 C 93 % 1019,0 hPa 0,0 l/m 0,6 km/h (0 Bft) S 178 0 min 0,000 mm 0,0 UV-I 0 W/m -1,8 C -0,8 C 1,6 km/h (1 Bft) 100,00 %
29.04.2016 05:05 -0,8 C 93 % 1019,0 hPa 0,0 l/m 1,5 km/h (1 Bft) S 178 0 min 0,000 mm 0,0 UV-I 0 W/m -1,8 C -0,8 C 1,6 km/h (1 Bft) 100,00 %
29.04.2016 05:06 -0,8 C 93 % 1019,0 hPa 0,0 l/m 1,1 km/h (1 Bft) S 178 0 min 0,000 mm 0,0 UV-I 0 W/m -1,8 C -0,8 C 1,6 km/h (1 Bft) 91,30 %
29.04.2016 05:07 -0,8 C 93 % 1019,0 hPa 0,0 l/m 1,5 km/h (1 Bft) S 178 0 min 0,000 mm 0,0 UV-I 0 W/m -1,8 C -0,8 C 1,6 km/h (1 Bft) 100,00 %
29.04.2016 05:08 -0,8 C 93 % 1019,0 hPa 0,0 l/m 1,3 km/h (1 Bft) S 178 0 min 0,000 mm 0,0 UV-I 0 W/m -1,8 C -0,8 C 3,2 km/h (1 Bft) 95,65 %
29.04.2016 05:09 -0,8 C 93 % 1019,0 hPa 0,0 l/m 2,1 km/h (1 Bft) S 178 0 min 0,000 mm 0,0 UV-I 0 W/m -1,8 C -0,8 C 3,2 km/h (1 Bft) 100,00 %
29.04.2016 05:10 -0,8 C 93 % 1019,0 hPa 0,0 l/m 2,3 km/h (1 Bft) S 178 0 min 0,000 mm 0,0 UV-I 0 W/m -1,8 C -0,8 C 3,2 km/h (1 Bft) 100,00 %
29.04.2016 05:11 -0,8 C 93 % 1019,0 hPa 0,0 l/m 2,2 km/h (1 Bft) S 178 0 min 0,000 mm 0,0 UV-I 0 W/m -1,8 C -0,8 C 3,2 km/h (1 Bft) 95,83 %
29.04.2016 05:12 -0,9 C 93 % 1019,1 hPa 0,0 l/m 0,9 km/h (0 Bft) S 178 0 min 0,000 mm 0,0 UV-I 0 W/m -1,9 C -0,9 C 1,6 km/h (1 Bft) 100,00 %
29.04.2016 05:13 -0,9 C 93 % 1019,1 hPa 0,0 l/m 0,0 km/h (0 Bft) S 178 0 min 0,000 mm 0,0 UV-I 0 W/m -1,9 C -0,9 C 0,0 km/h (0 Bft) 100,00 %
29.04.2016 05:14 -0,9 C 93 % 1019,1 hPa 0,0 l/m 0,1 km/h (0 Bft) S 178 0 min 0,000 mm 0,0 UV-I 0 W/m -1,9 C -0,9 C 1,6 km/h (1 Bft) 100,00 %
29.04.2016 05:15 -0,9 C 93 % 1019,1 hPa 0,0 l/m 0,3 km/h (0 Bft) S 178 0 min 0,000 mm 0,0 UV-I 0 W/m -1,9 C -0,9 C 1,6 km/h (1 Bft) 95,65 %
29.04.2016 05:16 -0,8 C 93 % 1019,1 hPa 0,0 l/m 1,0 km/h (0 Bft) S 178 0 min 0,000 mm 0,0 UV-I 0 W/m -1,8 C -0,8 C 3,2 km/h (1 Bft) 100,00 %
29.04.2016 05:17 -0,8 C 93 % 1019,1 hPa 0,0 l/m 2,4 km/h (1 Bft) S 178 0 min 0,000 mm 0,0 UV-I 0 W/m -1,8 C -0,8 C 3,2 km/h (1 Bft) 100,00 %
29.04.2016 05:18 -0,8 C 93 % 1019,1 hPa 0,0 l/m 1,9 km/h (1 Bft) S 178 0 min 0,000 mm 0,0 UV-I 0 W/m -1,8 C -0,8 C 3,2 km/h (1 Bft) 100,00 %
29.04.2016 05:19 -0,9 C 93 % 1019,1 hPa 0,0 l/m 1,5 km/h (1 Bft) S 178 0 min 0,000 mm 0,0 UV-I 0 W/m -1,9 C -0,9 C 3,2 km/h (1 Bft) 100,00 %
29.04.2016 05:20 -0,9 C 93 % 1019,1 hPa 0,0 l/m 1,6 km/h (1 Bft) S 178 0 min 0,000 mm 0,0 UV-I 0 W/m -1,9 C -0,9 C 1,6 km/h (1 Bft) 95,83 %
29.04.2016 05:21 -0,9 C 93 % 1019,1 hPa 0,0 l/m 2,1 km/h (1 Bft) S 178 0 min 0,000 mm 0,0 UV-I 0 W/m -1,9 C -0,9 C 3,2 km/h (1 Bft) 100,00 %
29.04.2016 05:22 -0,9 C 93 % 1019,2 hPa 0,0 l/m 1,9 km/h (1 Bft) S 178 0 min 0,000 mm 0,0 UV-I 0 W/m -1,9 C -0,9 C 3,2 km/h (1 Bft) 100,00 %
29.04.2016 05:23 -0,9 C 93 % 1019,1 hPa 0,0 l/m 1,8 km/h (1 Bft) S 178 0 min 0,000 mm 0,0 UV-I 0 W/m -1,9 C -0,9 C 3,2 km/h (1 Bft) 95,65 %
29.04.2016 05:24 -0,8 C 93 % 1019,2 hPa 0,0 l/m 1,6 km/h (1 Bft) S 178 0 min 0,000 mm 0,0 UV-I 0 W/m -1,8 C -0,8 C 1,6 km/h (1 Bft) 100,00 %
29.04.2016 05:25 -0,8 C 93 % 1019,2 hPa 0,0 l/m 1,4 km/h (1 Bft) S 178 0 min 0,000 mm 0,0 UV-I 0 W/m -1,8 C -0,8 C 1,6 km/h (1 Bft) 100,00 %
29.04.2016 05:26 -0,8 C 93 % 1019,2 hPa 0,0 l/m 0,2 km/h (0 Bft) S 178 0 min 0,000 mm 0,0 UV-I 0 W/m -1,8 C -0,8 C 1,6 km/h (1 Bft) 100,00 %
29.04.2016 05:27 -0,8 C 93 % 1019,2 hPa 0,0 l/m 0,1 km/h (0 Bft) S 178 0 min 0,000 mm 0,0 UV-I 0 W/m -1,8 C -0,8 C 1,6 km/h (1 Bft) 100,00 %
29.04.2016 05:28 -0,8 C 93 % 1019,2 hPa 0,0 l/m 0,1 km/h (0 Bft) S 178 0 min 0,000 mm 0,0 UV-I 0 W/m -1,8 C -0,8 C 1,6 km/h (1 Bft) 100,00 %
29.04.2016 05:29 -0,8 C 93 % 1019,2 hPa 0,0 l/m 0,0 km/h (0 Bft) S 178 0 min 0,000 mm 0,0 UV-I 0 W/m -1,8 C -0,8 C 0,0 km/h (0 Bft) 95,65 %
29.04.2016 05:30 -0,8 C 93 % 1019,3 hPa 0,0 l/m 0,0 km/h (0 Bft) S 178 0 min 0,000 mm 0,0 UV-I 0 W/m -1,8 C -0,8 C 0,0 km/h (0 Bft) 100,00 %
29.04.2016 05:31 -0,8 C 93 % 1019,2 hPa 0,0 l/m 0,0 km/h (0 Bft) S 178 0 min 0,000 mm 0,0 UV-I 0 W/m -1,8 C -0,8 C 0,0 km/h (0 Bft) 100,00 %
29.04.2016 05:32 -0,8 C 93 % 1019,2 hPa 0,0 l/m 0,0 km/h (0 Bft) S 178 0 min 0,000 mm 0,0 UV-I 0 W/m -1,8 C -0,8 C 0,0 km/h (0 Bft) 100,00 %
29.04.2016 05:33 -0,9 C 93 % 1019,2 hPa 0,0 l/m 0,0 km/h (0 Bft) S 178 0 min 0,000 mm 0,0 UV-I 0 W/m -1,9 C -0,9 C 0,0 km/h (0 Bft) 100,00 %
29.04.2016 05:34 -0,9 C 93 % 1019,2 hPa 0,0 l/m 0,1 km/h (0 Bft) S 178 0 min 0,000 mm 0,0 UV-I 0 W/m -1,9 C -0,9 C 1,6 km/h (1 Bft) 95,83 %
29.04.2016 05:35 -0,8 C 93 % 1019,2 hPa 0,0 l/m 0,1 km/h (0 Bft) S 178 0 min 0,000 mm 0,0 UV-I 0 W/m -1,8 C -0,8 C 1,6 km/h (1 Bft) 95,83 %
29.04.2016 05:36 -0,8 C 93 % 1019,2 hPa 0,0 l/m 0,9 km/h (0 Bft) S 178 0 min 0,000 mm 0,0 UV-I 0 W/m -1,8 C -0,8 C 1,6 km/h (1 Bft) 100,00 %
29.04.2016 05:37 -0,8 C 93 % 1019,2 hPa 0,0 l/m 1,1 km/h (1 Bft) S 178 0 min 0,000 mm 0,0 UV-I 0 W/m -1,8 C -0,8 C 3,2 km/h (1 Bft) 91,67 %
29.04.2016 05:38 -0,8 C 93 % 1019,2 hPa 0,0 l/m 0,3 km/h (0 Bft) S 178 0 min 0,000 mm 0,0 UV-I 0 W/m -1,8 C -0,8 C 1,6 km/h (1 Bft) 96,15 %
29.04.2016 05:39 -0,8 C 93 % 1019,2 hPa 0,0 l/m 0,1 km/h (0 Bft) S 178 0 min 0,000 mm 0,0 UV-I 0 W/m -1,8 C -0,8 C 1,6 km/h (1 Bft) 100,00 %
29.04.2016 05:40 -0,8 C 93 % 1019,2 hPa 0,0 l/m 0,7 km/h (0 Bft) S 178 0 min 0,000 mm 0,0 UV-I 0 W/m -1,8 C -0,8 C 1,6 km/h (1 Bft) 95,65 %
29.04.2016 05:41 -0,8 C 93 % 1019,2 hPa 0,0 l/m 1,4 km/h (1 Bft) S 178 0 min 0,000 mm 0,0 UV-I 0 W/m -1,8 C -0,8 C 1,6 km/h (1 Bft) 100,00 %
29.04.2016 05:42 -0,8 C 93 % 1019,2 hPa 0,0 l/m 2,7 km/h (1 Bft) S 178 0 min 0,000 mm 0,0 UV-I 0 W/m -1,8 C -0,8 C 4,8 km/h (1 Bft) 91,30 %
29.04.2016 05:43 -0,8 C 93 % 1019,2 hPa 0,0 l/m 2,8 km/h (1 Bft) S 178 0 min 0,000 mm 0,0 UV-I 0 W/m -1,8 C -0,8 C 3,2 km/h (1 Bft) 100,00 %
29.04.2016 05:44 -0,9 C 92 % 1019,2 hPa 0,0 l/m 3,1 km/h (1 Bft) S 178 0 min 0,000 mm 0,0 UV-I 0 W/m -2,0 C -0,9 C 4,8 km/h (1 Bft) 91,30 %
29.04.2016 05:45 -0,9 C 92 % 1019,2 hPa 0,0 l/m 3,7 km/h (1 Bft) S 178 0 min 0,000 mm 0,0 UV-I 0 W/m -2,0 C -0,9 C 4,8 km/h (1 Bft) 95,83 %
29.04.2016 05:46 -1,0 C 93 % 1019,2 hPa 0,0 l/m 3,7 km/h (1 Bft) S 178 0 min 0,000 mm 0,0 UV-I 4 W/m -2,0 C -1,0 C 4,8 km/h (1 Bft) 95,65 %
29.04.2016 05:47 -1,0 C 93 % 1019,2 hPa 0,0 l/m 3,4 km/h (1 Bft) S 178 0 min 0,000 mm 0,0 UV-I 5 W/m -2,0 C -1,0 C 4,8 km/h (1 Bft) 96,30 %
29.04.2016 05:48 -1,0 C 93 % 1019,2 hPa 0,0 l/m 2,7 km/h (1 Bft) S 178 0 min 0,000 mm 0,0 UV-I 5 W/m -2,0 C -1,0 C 3,2 km/h (1 Bft) 95,65 %
29.04.2016 05:49 -1,0 C 93 % 1019,3 hPa 0,0 l/m 0,5 km/h (0 Bft) S 178 0 min 0,000 mm 0,0 UV-I 5 W/m -2,0 C -1,0 C 1,6 km/h (1 Bft) 95,83 %
29.04.2016 05:50 -1,0 C 93 % 1019,2 hPa 0,0 l/m 0,1 km/h (0 Bft) S 178 0 min 0,000 mm 0,0 UV-I 5 W/m -2,0 C -1,0 C 1,6 km/h (1 Bft) 95,65 %
29.04.2016 05:51 -1,0 C 93 % 1019,2 hPa 0,0 l/m 0,1 km/h (0 Bft) S 178 0 min 0,000 mm 0,0 UV-I 6 W/m -2,0 C -1,0 C 1,6 km/h (1 Bft) 91,67 %
29.04.2016 05:52 -1,0 C 93 % 1019,3 hPa 0,0 l/m 0,0 km/h (0 Bft) S 178 0 min 0,000 mm 0,0 UV-I 7 W/m -2,0 C -1,0 C 0,0 km/h (0 Bft) 100,00 %
29.04.2016 05:53 -1,0 C 93 % 1019,3 hPa 0,0 l/m 0,0 km/h (0 Bft) S 178 0 min 0,000 mm 0,0 UV-I 7 W/m -2,0 C -1,0 C 0,0 km/h (0 Bft) 95,83 %
29.04.2016 05:54 -1,0 C 93 % 1019,3 hPa 0,0 l/m 0,0 km/h (0 Bft) S 178 0 min 0,000 mm 0,0 UV-I 7 W/m -2,0 C -1,0 C 0,0 km/h (0 Bft) 100,00 %
29.04.2016 05:55 -1,0 C 94 % 1019,3 hPa 0,0 l/m 0,0 km/h (0 Bft) S 178 0 min 0,000 mm 0,0 UV-I 8 W/m -1,8 C -1,0 C 0,0 km/h (0 Bft) 95,83 %
29.04.2016 05:56 -0,9 C 94 % 1019,3 hPa 0,0 l/m 0,0 km/h (0 Bft) S 178 0 min 0,000 mm 0,0 UV-I 9 W/m -1,7 C -0,9 C 0,0 km/h (0 Bft) 95,65 %
29.04.2016 05:57 -0,9 C 94 % 1019,3 hPa 0,0 l/m 0,0 km/h (0 Bft) S 178 0 min 0,000 mm 0,0 UV-I 9 W/m -1,7 C -0,9 C 0,0 km/h (0 Bft) 95,83 %
29.04.2016 05:58 -0,9 C 94 % 1019,3 hPa 0,0 l/m 0,0 km/h (0 Bft) S 178 0 min 0,000 mm 0,0 UV-I 9 W/m -1,7 C -0,9 C 0,0 km/h (0 Bft) 95,83 %
29.04.2016 05:59 -0,9 C 94 % 1019,3 hPa 0,0 l/m 0,0 km/h (0 Bft) S 178 1 min 0,000 mm 0,0 UV-I 11 W/m -1,7 C -0,9 C 0,0 km/h (0 Bft) 95,65 %
29.04.2016 06:00 -0,9 C 94 % 1019,3 hPa 0,0 l/m 0,0 km/h (0 Bft) S 178 1 min 0,000 mm 0,0 UV-I 11 W/m -1,7 C -0,9 C 0,0 km/h (0 Bft) 95,83 %
29.04.2016 06:02 -0,9 C 94 % 1019,3 hPa 0,0 l/m 0,0 km/h (0 Bft) S 178 0 min 0,000 mm 0,0 UV-I 11 W/m -1,7 C -0,9 C 0,0 km/h (0 Bft) 95,74 %
29.04.2016 06:03 -0,9 C 94 % 1019,3 hPa 0,0 l/m 0,0 km/h (0 Bft) S 178 0 min 0,000 mm 0,0 UV-I 12 W/m -1,7 C -0,9 C 0,0 km/h (0 Bft) 91,30 %
29.04.2016 06:04 -0,8 C 93 % 1019,3 hPa 0,0 l/m 0,0 km/h (0 Bft) S 178 0 min 0,000 mm 0,0 UV-I 12 W/m -1,8 C -0,8 C 0,0 km/h (0 Bft) 100,00 %
29.04.2016 06:05 -0,8 C 93 % 1019,3 hPa 0,0 l/m 0,0 km/h (0 Bft) S 178 0 min 0,000 mm 0,0 UV-I 12 W/m -1,8 C -0,8 C 0,0 km/h (0 Bft) 95,65 %
29.04.2016 06:06 -0,8 C 93 % 1019,3 hPa 0,0 l/m 0,0 km/h (0 Bft) S 178 0 min 0,000 mm 0,0 UV-I 13 W/m -1,8 C -0,8 C 0,0 km/h (0 Bft) 100,00 %
29.04.2016 06:07 -0,8 C 93 % 1019,3 hPa 0,0 l/m 0,5 km/h (0 Bft) S 178 0 min 0,000 mm 0,0 UV-I 14 W/m -1,8 C -0,8 C 1,6 km/h (1 Bft) 95,65 %
29.04.2016 06:08 -0,8 C 94 % 1019,3 hPa 0,0 l/m 1,5 km/h (1 Bft) S 178 0 min 0,000 mm 0,0 UV-I 14 W/m -1,6 C -0,8 C 3,2 km/h (1 Bft) 100,00 %
29.04.2016 06:09 -0,8 C 94 % 1019,3 hPa 0,0 l/m 2,3 km/h (1 Bft) S 178 0 min 0,000 mm 0,0 UV-I 14 W/m -1,6 C -0,8 C 3,2 km/h (1 Bft) 95,65 %
29.04.2016 06:10 -0,8 C 93 % 1019,3 hPa 0,0 l/m 3,3 km/h (1 Bft) S 178 0 min 0,000 mm 0,0 UV-I 14 W/m -1,8 C -0,8 C 4,8 km/h (1 Bft) 95,83 %
29.04.2016 06:11 -0,8 C 93 % 1019,3 hPa 0,0 l/m 4,3 km/h (1 Bft) S 172 0 min 0,000 mm 0,0 UV-I 16 W/m -1,8 C -0,8 C 4,8 km/h (1 Bft) 100,00 %
29.04.2016 06:12 -0,9 C 93 % 1019,3 hPa 0,0 l/m 4,8 km/h (1 Bft) S-SO 153 0 min 0,000 mm 0,0 UV-I 16 W/m -1,9 C -0,9 C 6,4 km/h (2 Bft) 100,00 %
29.04.2016 06:13 -0,9 C 93 % 1019,3 hPa 0,0 l/m 4,6 km/h (1 Bft) O-SO 103 0 min 0,000 mm 0,0 UV-I 16 W/m -1,9 C -0,9 C 4,8 km/h (1 Bft) 95,65 %
29.04.2016 06:14 -0,9 C 93 % 1019,3 hPa 0,0 l/m 5,0 km/h (1 Bft) O 84 0 min 0,000 mm 0,0 UV-I 17 W/m -1,9 C -0,9 C 6,4 km/h (2 Bft) 100,00 %
29.04.2016 06:15 -1,0 C 93 % 1019,3 hPa 0,0 l/m 4,6 km/h (1 Bft) O 81 0 min 0,000 mm 0,0 UV-I 18 W/m -2,0 C -1,0 C 4,8 km/h (1 Bft) 100,00 %
29.04.2016 06:16 -1,0 C 93 % 1019,3 hPa 0,0 l/m 4,5 km/h (1 Bft) O-NO 77 0 min 0,000 mm 0,0 UV-I 18 W/m -2,0 C -1,0 C 6,4 km/h (2 Bft) 95,83 %
29.04.2016 06:17 -1,0 C 93 % 1019,3 hPa 0,0 l/m 4,8 km/h (1 Bft) O-NO 77 0 min 0,000 mm 0,0 UV-I 18 W/m -2,0 C -1,0 C 6,4 km/h (2 Bft) 100,00 %
29.04.2016 06:18 -0,9 C 94 % 1019,3 hPa 0,0 l/m 3,7 km/h (1 Bft) O-NO 76 0 min 0,000 mm 0,0 UV-I 19 W/m -1,7 C -0,9 C 4,8 km/h (1 Bft) 91,67 %
29.04.2016 06:19 -0,8 C 94 % 1019,3 hPa 0,0 l/m 2,7 km/h (1 Bft) O-NO 76 0 min 0,000 mm 0,0 UV-I 19 W/m -1,6 C -0,8 C 4,8 km/h (1 Bft) 100,00 %
29.04.2016 06:20 -0,8 C 94 % 1019,3 hPa 0,0 l/m 0,6 km/h (0 Bft) O-NO 76 0 min 0,000 mm 0,0 UV-I 19 W/m -1,6 C -0,8 C 1,6 km/h (1 Bft) 100,00 %
29.04.2016 06:21 -0,8 C 94 % 1019,4 hPa 0,0 l/m 0,3 km/h (0 Bft) O-NO 76 0 min 0,000 mm 0,0 UV-I 19 W/m -1,6 C -0,8 C 1,6 km/h (1 Bft) 95,83 %
29.04.2016 06:22 -0,8 C 93 % 1019,4 hPa 0,0 l/m 0,6 km/h (0 Bft) O-NO 76 0 min 0,000 mm 0,0 UV-I 21 W/m -1,8 C -0,8 C 1,6 km/h (1 Bft) 95,65 %
29.04.2016 06:23 -0,8 C 94 % 1019,4 hPa 0,0 l/m 0,1 km/h (0 Bft) O-NO 76 0 min 0,000 mm 0,0 UV-I 21 W/m -1,6 C -0,8 C 1,6 km/h (1 Bft) 100,00 %
29.04.2016 06:24 -0,7 C 94 % 1019,4 hPa 0,0 l/m 0,2 km/h (0 Bft) O-NO 76 0 min 0,000 mm 0,0 UV-I 21 W/m -1,5 C -0,7 C 1,6 km/h (1 Bft) 100,00 %
29.04.2016 06:25 -0,7 C 94 % 1019,4 hPa 0,0 l/m 0,3 km/h (0 Bft) O-NO 76 0 min 0,000 mm 0,0 UV-I 21 W/m -1,5 C -0,7 C 1,6 km/h (1 Bft) 100,00 %
29.04.2016 06:26 -0,7 C 94 % 1019,4 hPa 0,0 l/m 0,5 km/h (0 Bft) O-NO 76 0 min 0,000 mm 0,0 UV-I 21 W/m -1,5 C -0,7 C 1,6 km/h (1 Bft) 95,65 %
29.04.2016 06:27 -0,7 C 94 % 1019,4 hPa 0,0 l/m 1,4 km/h (1 Bft) O-NO 76 0 min 0,000 mm 0,0 UV-I 23 W/m -1,5 C -0,7 C 1,6 km/h (1 Bft) 100,00 %
29.04.2016 06:28 -0,6 C 94 % 1019,4 hPa 0,0 l/m 3,2 km/h (1 Bft) O-NO 76 0 min 0,000 mm 0,0 UV-I 23 W/m -1,4 C -0,6 C 4,8 km/h (1 Bft) 100,00 %
29.04.2016 06:30 -0,6 C 94 % 1019,4 hPa 0,0 l/m 1,6 km/h (1 Bft) O-NO 67 0 min 0,000 mm 0,0 UV-I 23 W/m -1,4 C -0,6 C 4,8 km/h (1 Bft) 98,25 %
29.04.2016 06:33 -0,4 C 94 % 1019,4 hPa 0,0 l/m 0,4 km/h (0 Bft) O-NO 76 0 min 0,000 mm 0,0 UV-I 24 W/m -1,2 C -0,4 C 1,6 km/h (1 Bft) 100,00 %
29.04.2016 06:34 -0,4 C 93 % 1019,5 hPa 0,0 l/m 1,7 km/h (1 Bft) O-NO 76 0 min 0,000 mm 0,0 UV-I 25 W/m -1,4 C -0,4 C 3,2 km/h (1 Bft) 100,00 %
29.04.2016 06:35 -0,4 C 93 % 1019,5 hPa 0,0 l/m 0,6 km/h (0 Bft) O-NO 76 0 min 0,000 mm 0,0 UV-I 25 W/m -1,4 C -0,4 C 3,2 km/h (1 Bft) 95,83 %
29.04.2016 06:36 -0,4 C 93 % 1019,5 hPa 0,0 l/m 0,8 km/h (0 Bft) O-NO 76 0 min 0,000 mm 0,0 UV-I 25 W/m -1,4 C -0,4 C 1,6 km/h (1 Bft) 100,00 %
29.04.2016 06:37 -0,4 C 93 % 1019,5 hPa 0,0 l/m 0,0 km/h (0 Bft) O-NO 76 0 min 0,000 mm 0,0 UV-I 26 W/m -1,4 C -0,4 C 0,0 km/h (0 Bft) 100,00 %
29.04.2016 06:38 -0,4 C 93 % 1019,6 hPa 0,0 l/m 0,0 km/h (0 Bft) O-NO 76 0 min 0,000 mm 0,0 UV-I 26 W/m -1,4 C -0,4 C 0,0 km/h (0 Bft) 100,00 %
29.04.2016 06:39 -0,4 C 93 % 1019,5 hPa 0,0 l/m 0,0 km/h (0 Bft) O-NO 76 0 min 0,000 mm 0,0 UV-I 26 W/m -1,4 C -0,4 C 0,0 km/h (0 Bft) 100,00 %
29.04.2016 06:40 -0,4 C 93 % 1019,5 hPa 0,0 l/m 0,0 km/h (0 Bft) O-NO 76 0 min 0,000 mm 0,0 UV-I 26 W/m -1,4 C -0,4 C 0,0 km/h (0 Bft) 100,00 %
29.04.2016 06:41 -0,5 C 93 % 1019,5 hPa 0,0 l/m 0,6 km/h (0 Bft) O-NO 76 0 min 0,000 mm 0,0 UV-I 26 W/m -1,5 C -0,5 C 1,6 km/h (1 Bft) 100,00 %
29.04.2016 06:42 -0,5 C 93 % 1019,5 hPa 0,0 l/m 0,9 km/h (0 Bft) O-NO 76 0 min 0,000 mm 0,0 UV-I 26 W/m -1,5 C -0,5 C 1,6 km/h (1 Bft) 100,00 %
29.04.2016 06:43 -0,5 C 93 % 1019,5 hPa 0,0 l/m 1,5 km/h (1 Bft) O-NO 76 0 min 0,000 mm 0,0 UV-I 26 W/m -1,5 C -0,5 C 1,6 km/h (1 Bft) 100,00 %
29.04.2016 06:44 -0,5 C 93 % 1019,6 hPa 0,0 l/m 1,3 km/h (1 Bft) O-NO 76 0 min 0,000 mm 0,0 UV-I 27 W/m -1,5 C -0,5 C 3,2 km/h (1 Bft) 100,00 %
29.04.2016 06:45 -0,5 C 93 % 1019,6 hPa 0,0 l/m 0,9 km/h (0 Bft) O-NO 76 0 min 0,000 mm 0,0 UV-I 28 W/m -1,5 C -0,5 C 1,6 km/h (1 Bft) 100,00 %
29.04.2016 06:46 -0,5 C 93 % 1019,6 hPa 0,0 l/m 1,5 km/h (1 Bft) O-NO 76 0 min 0,000 mm 0,0 UV-I 28 W/m -1,5 C -0,5 C 3,2 km/h (1 Bft) 100,00 %
29.04.2016 06:47 -0,4 C 93 % 1019,6 hPa 0,0 l/m 1,2 km/h (1 Bft) O-NO 76 0 min 0,000 mm 0,0 UV-I 28 W/m -1,4 C -0,4 C 1,6 km/h (1 Bft) 95,83 %
29.04.2016 06:48 -0,4 C 93 % 1019,6 hPa 0,0 l/m 1,5 km/h (1 Bft) O-NO 76 0 min 0,000 mm 0,0 UV-I 28 W/m -1,4 C -0,4 C 3,2 km/h (1 Bft) 91,30 %
29.04.2016 06:49 -0,3 C 94 % 1019,6 hPa 0,0 l/m 2,1 km/h (1 Bft) O-NO 76 0 min 0,000 mm 0,0 UV-I 29 W/m -1,1 C -0,3 C 3,2 km/h (1 Bft) 95,83 %
29.04.2016 06:50 -0,3 C 94 % 1019,6 hPa 0,0 l/m 2,2 km/h (1 Bft) O-NO 76 0 min 0,000 mm 0,0 UV-I 30 W/m -1,1 C -0,3 C 3,2 km/h (1 Bft) 100,00 %
29.04.2016 06:51 -0,2 C 93 % 1019,6 hPa 0,0 l/m 1,9 km/h (1 Bft) O-NO 76 0 min 0,000 mm 0,0 UV-I 30 W/m -1,2 C -0,2 C 3,2 km/h (1 Bft) 91,30 %
29.04.2016 06:52 -0,2 C 93 % 1019,6 hPa 0,0 l/m 1,0 km/h (0 Bft) O-NO 76 0 min 0,000 mm 0,0 UV-I 30 W/m -1,2 C -0,2 C 1,6 km/h (1 Bft) 100,00 %
29.04.2016 06:53 -0,2 C 93 % 1019,6 hPa 0,0 l/m 1,2 km/h (1 Bft) O-NO 76 0 min 0,000 mm 0,0 UV-I 30 W/m -1,2 C -0,2 C 1,6 km/h (1 Bft) 100,00 %
29.04.2016 06:54 -0,2 C 93 % 1019,6 hPa 0,0 l/m 0,9 km/h (0 Bft) O-NO 76 0 min 0,000 mm 0,0 UV-I 31 W/m -1,2 C -0,2 C 1,6 km/h (1 Bft) 100,00 %
29.04.2016 06:55 -0,2 C 93 % 1019,6 hPa 0,0 l/m 1,3 km/h (1 Bft) O-NO 76 0 min 0,000 mm 0,0 UV-I 32 W/m -1,2 C -0,2 C 3,2 km/h (1 Bft) 100,00 %
29.04.2016 06:56 -0,2 C 93 % 1019,6 hPa 0,0 l/m 0,7 km/h (0 Bft) O-NO 76 0 min 0,000 mm 0,0 UV-I 32 W/m -1,2 C -0,2 C 1,6 km/h (1 Bft) 100,00 %
29.04.2016 06:57 -0,2 C 93 % 1019,7 hPa 0,0 l/m 0,0 km/h (0 Bft) O-NO 76 0 min 0,000 mm 0,0 UV-I 32 W/m -1,2 C -0,2 C 0,0 km/h (0 Bft) 100,00 %
29.04.2016 06:58 -0,1 C 93 % 1019,7 hPa 0,0 l/m 0,0 km/h (0 Bft) O-NO 76 0 min 0,000 mm 0,0 UV-I 33 W/m -1,1 C -0,1 C 0,0 km/h (0 Bft) 100,00 %
29.04.2016 06:59 -0,1 C 94 % 1019,7 hPa 0,0 l/m 0,0 km/h (0 Bft) O-NO 76 0 min 0,000 mm 0,0 UV-I 46 W/m -0,9 C -0,1 C 0,0 km/h (0 Bft) 100,00 %
29.04.2016 07:00 -0,1 C 94 % 1019,7 hPa 0,0 l/m 0,0 km/h (0 Bft) O-NO 76 0 min 0,000 mm 0,0 UV-I 83 W/m -0,9 C -0,1 C 0,0 km/h (0 Bft) 100,00 %
29.04.2016 07:02 0,0 C 93 % 1019,7 hPa 0,0 l/m 0,0 km/h (0 Bft) O-NO 76 0 min 0,000 mm 0,0 UV-I 103 W/m -1,0 C 0,0 C 0,0 km/h (0 Bft) 100,00 %
29.04.2016 07:03 0,0 C 93 % 1019,7 hPa 0,0 l/m 0,0 km/h (0 Bft) O-NO 76 1 min 0,000 mm 0,0 UV-I 107 W/m -1,0 C 0,0 C 0,0 km/h (0 Bft) 100,00 %
29.04.2016 07:04 0,1 C 93 % 1019,7 hPa 0,0 l/m 0,0 km/h (0 Bft) O-NO 76 1 min 0,000 mm 0,0 UV-I 109 W/m -0,9 C 0,1 C 0,0 km/h (0 Bft) 100,00 %
29.04.2016 07:05 0,2 C 93 % 1019,8 hPa 0,0 l/m 0,0 km/h (0 Bft) O-NO 76 1 min 0,000 mm 0,0 UV-I 112 W/m -0,8 C 0,2 C 0,0 km/h (0 Bft) 91,30 %
29.04.2016 07:06 0,2 C 93 % 1019,8 hPa 0,0 l/m 0,0 km/h (0 Bft) O-NO 76 1 min 0,000 mm 0,0 UV-I 115 W/m -0,8 C 0,2 C 0,0 km/h (0 Bft) 100,00 %
29.04.2016 07:07 0,3 C 93 % 1019,8 hPa 0,0 l/m 0,0 km/h (0 Bft) O-NO 76 1 min 0,000 mm 0,0 UV-I 117 W/m -0,7 C 0,3 C 0,0 km/h (0 Bft) 95,65 %
29.04.2016 07:08 0,3 C 93 % 1019,8 hPa 0,0 l/m 0,0 km/h (0 Bft) O-NO 76 1 min 0,000 mm 0,0 UV-I 120 W/m -0,7 C 0,3 C 0,0 km/h (0 Bft) 100,00 %
29.04.2016 07:09 0,4 C 93 % 1019,8 hPa 0,0 l/m 0,0 km/h (0 Bft) O-NO 77 1 min 0,000 mm 0,0 UV-I 125 W/m -0,6 C 0,4 C 0,0 km/h (0 Bft) 100,00 %
29.04.2016 07:10 0,4 C 93 % 1019,8 hPa 0,0 l/m 0,0 km/h (0 Bft) O-NO 76 1 min 0,000 mm 0,0 UV-I 131 W/m -0,6 C 0,4 C 0,0 km/h (0 Bft) 100,00 %
29.04.2016 07:11 0,4 C 93 % 1019,8 hPa 0,0 l/m 0,0 km/h (0 Bft) O-NO 76 1 min 0,000 mm 0,0 UV-I 135 W/m -0,6 C 0,4 C 0,0 km/h (0 Bft) 100,00 %
29.04.2016 07:12 0,5 C 93 % 1019,8 hPa 0,0 l/m 0,0 km/h (0 Bft) O-NO 76 1 min 0,000 mm 0,0 UV-I 140 W/m -0,5 C 0,5 C 0,0 km/h (0 Bft) 95,83 %
29.04.2016 07:13 0,5 C 93 % 1019,8 hPa 0,0 l/m 0,0 km/h (0 Bft) O-NO 76 1 min 0,000 mm 0,0 UV-I 146 W/m -0,5 C 0,5 C 0,0 km/h (0 Bft) 100,00 %
29.04.2016 07:14 0,6 C 93 % 1019,8 hPa 0,0 l/m 0,1 km/h (0 Bft) O-NO 76 1 min 0,000 mm 0,0 UV-I 152 W/m -0,4 C 0,6 C 1,6 km/h (1 Bft) 100,00 %
29.04.2016 07:15 0,6 C 93 % 1019,8 hPa 0,0 l/m 0,0 km/h (0 Bft) O-NO 76 1 min 0,000 mm 0,0 UV-I 157 W/m -0,4 C 0,6 C 0,0 km/h (0 Bft) 100,00 %
29.04.2016 07:16 0,7 C 93 % 1019,8 hPa 0,0 l/m 0,0 km/h (0 Bft) O-NO 76 1 min 0,000 mm 0,0 UV-I 163 W/m -0,3 C 0,7 C 0,0 km/h (0 Bft) 100,00 %
29.04.2016 07:17 0,7 C 93 % 1019,8 hPa 0,0 l/m 0,0 km/h (0 Bft) O-NO 76 1 min 0,000 mm 0,0 UV-I 167 W/m -0,3 C 0,7 C 0,0 km/h (0 Bft) 100,00 %
29.04.2016 07:18 0,8 C 93 % 1019,8 hPa 0,0 l/m 0,0 km/h (0 Bft) O-NO 76 1 min 0,000 mm 0,0 UV-I 170 W/m -0,2 C 0,8 C 0,0 km/h (0 Bft) 100,00 %
29.04.2016 07:19 0,9 C 93 % 1019,8 hPa 0,0 l/m 0,1 km/h (0 Bft) O-NO 76 1 min 0,000 mm 0,0 UV-I 173 W/m -0,1 C 0,9 C 1,6 km/h (1 Bft) 100,00 %
29.04.2016 07:20 0,9 C 93 % 1019,8 hPa 0,0 l/m 0,1 km/h (0 Bft) O-NO 76 1 min 0,000 mm 0,0 UV-I 176 W/m -0,1 C 0,9 C 1,6 km/h (1 Bft) 100,00 %
29.04.2016 07:21 1,0 C 93 % 1019,8 hPa 0,0 l/m 0,2 km/h (0 Bft) O-NO 76 1 min 0,000 mm 0,0 UV-I 178 W/m -0,0 C 1,0 C 1,6 km/h (1 Bft) 100,00 %
29.04.2016 07:22 1,0 C 93 % 1019,9 hPa 0,0 l/m 0,5 km/h (0 Bft) O-NO 76 1 min 0,000 mm 0,0 UV-I 182 W/m -0,0 C 1,0 C 1,6 km/h (1 Bft) 91,30 %
29.04.2016 07:23 1,1 C 93 % 1019,9 hPa 0,0 l/m 2,2 km/h (1 Bft) O-NO 76 1 min 0,000 mm 0,0 UV-I 184 W/m 0,1 C 1,1 C 4,8 km/h (1 Bft) 100,00 %
29.04.2016 07:24 1,2 C 93 % 1019,8 hPa 0,0 l/m 1,1 km/h (1 Bft) O-NO 76 1 min 0,000 mm 0,0 UV-I 187 W/m 0,2 C 1,2 C 1,6 km/h (1 Bft) 100,00 %
29.04.2016 07:25 1,3 C 93 % 1019,8 hPa 0,0 l/m 2,0 km/h (1 Bft) O-NO 76 1 min 0,000 mm 0,0 UV-I 189 W/m 0,3 C 1,3 C 3,2 km/h (1 Bft) 100,00 %
29.04.2016 07:26 1,4 C 92 % 1019,8 hPa 0,0 l/m 3,0 km/h (1 Bft) O-NO 76 1 min 0,000 mm 0,0 UV-I 193 W/m 0,2 C 1,4 C 4,8 km/h (1 Bft) 92,31 %
29.04.2016 07:27 1,6 C 92 % 1019,9 hPa 0,0 l/m 2,8 km/h (1 Bft) O-NO 76 1 min 0,000 mm 0,0 UV-I 196 W/m 0,4 C 1,6 C 3,2 km/h (1 Bft) 100,00 %
29.04.2016 07:28 1,7 C 91 % 1019,9 hPa 0,0 l/m 4,2 km/h (1 Bft) O-NO 76 1 min 0,000 mm 0,0 UV-I 200 W/m 0,4 C 1,7 C 6,4 km/h (2 Bft) 100,00 %
29.04.2016 07:29 1,8 C 90 % 1019,8 hPa 0,0 l/m 4,9 km/h (1 Bft) O-NO 59 1 min 0,000 mm 0,0 UV-I 203 W/m 0,3 C 1,8 C 6,4 km/h (2 Bft) 96,15 %
29.04.2016 07:30 1,8 C 89 % 1019,8 hPa 0,0 l/m 5,1 km/h (1 Bft) O-NO 57 1 min 0,000 mm 0,0 UV-I 206 W/m 0,2 C 1,8 C 6,4 km/h (2 Bft) 100,00 %
29.04.2016 07:31 1,9 C 88 % 1019,9 hPa 0,0 l/m 6,8 km/h (2 Bft) O-NO 69 1 min 0,000 mm 0,0 UV-I 208 W/m 0,1 C 1,5 C 8,0 km/h (2 Bft) 100,00 %
29.04.2016 07:32 1,9 C 88 % 1019,9 hPa 0,0 l/m 5,6 km/h (1 Bft) O-NO 69 1 min 0,000 mm 0,0 UV-I 212 W/m 0,1 C 1,9 C 6,4 km/h (2 Bft) 100,00 %
29.04.2016 07:33 1,9 C 87 % 1019,9 hPa 0,0 l/m 5,1 km/h (1 Bft) O-NO 69 1 min 0,000 mm 0,0 UV-I 214 W/m -0,0 C 1,9 C 6,4 km/h (2 Bft) 100,00 %
29.04.2016 07:34 1,9 C 88 % 1019,9 hPa 0,0 l/m 3,7 km/h (1 Bft) O-NO 69 1 min 0,000 mm 0,0 UV-I 217 W/m 0,1 C 1,9 C 4,8 km/h (1 Bft) 100,00 %
29.04.2016 07:35 2,0 C 87 % 1019,9 hPa 0,0 l/m 4,8 km/h (1 Bft) O-NO 69 1 min 0,000 mm 0,0 UV-I 219 W/m 0,1 C 2,0 C 6,4 km/h (2 Bft) 100,00 %
29.04.2016 07:36 2,0 C 87 % 1019,9 hPa 0,0 l/m 5,0 km/h (1 Bft) O-NO 57 1 min 0,000 mm 0,0 UV-I 222 W/m 0,1 C 2,0 C 6,4 km/h (2 Bft) 100,00 %
29.04.2016 07:37 2,1 C 87 % 1019,9 hPa 0,0 l/m 3,8 km/h (1 Bft) NO 55 1 min 0,000 mm 0,0 UV-I 224 W/m 0,2 C 2,1 C 4,8 km/h (1 Bft) 100,00 %
29.04.2016 07:38 2,1 C 87 % 1019,9 hPa 0,0 l/m 5,2 km/h (1 Bft) NO 55 1 min 0,000 mm 0,0 UV-I 229 W/m 0,2 C 2,1 C 6,4 km/h (2 Bft) 100,00 %
29.04.2016 07:39 2,1 C 87 % 1019,9 hPa 0,0 l/m 4,4 km/h (1 Bft) NO 55 1 min 0,000 mm 0,0 UV-I 230 W/m 0,2 C 2,1 C 6,4 km/h (2 Bft) 100,00 %
29.04.2016 07:40 2,2 C 87 % 1019,9 hPa 0,0 l/m 5,1 km/h (1 Bft) NO 51 1 min 0,000 mm 0,0 UV-I 233 W/m 0,3 C 2,2 C 8,0 km/h (2 Bft) 100,00 %
29.04.2016 07:41 2,2 C 87 % 1019,9 hPa 0,0 l/m 5,3 km/h (1 Bft) O-NO 72 1 min 0,000 mm 0,0 UV-I 235 W/m 0,3 C 2,2 C 6,4 km/h (2 Bft) 100,00 %
29.04.2016 07:42 2,2 C 87 % 1019,9 hPa 0,0 l/m 6,2 km/h (2 Bft) O-NO 69 1 min 0,000 mm 0,0 UV-I 238 W/m 0,3 C 2,2 C 8,0 km/h (2 Bft) 95,83 %
29.04.2016 07:43 2,2 C 87 % 1019,9 hPa 0,0 l/m 6,5 km/h (2 Bft) O-NO 62 1 min 0,000 mm 0,0 UV-I 241 W/m 0,3 C 2,1 C 8,0 km/h (2 Bft) 100,00 %
29.04.2016 07:44 2,3 C 87 % 1019,9 hPa 0,0 l/m 7,2 km/h (2 Bft) NO 46 1 min 0,000 mm 0,0 UV-I 243 W/m 0,4 C 1,5 C 9,7 km/h (2 Bft) 100,00 %
29.04.2016 07:45 2,3 C 88 % 1019,8 hPa 0,0 l/m 7,1 km/h (2 Bft) O-NO 62 1 min 0,000 mm 0,0 UV-I 244 W/m 0,5 C 1,6 C 9,7 km/h (2 Bft) 95,65 %
29.04.2016 07:46 2,3 C 87 % 1019,8 hPa 0,0 l/m 6,6 km/h (2 Bft) O-NO 61 1 min 0,000 mm 0,0 UV-I 244 W/m 0,4 C 2,1 C 9,7 km/h (2 Bft) 100,00 %
29.04.2016 07:47 2,3 C 88 % 1019,9 hPa 0,0 l/m 5,2 km/h (1 Bft) O-NO 60 1 min 0,000 mm 0,0 UV-I 244 W/m 0,5 C 2,3 C 6,4 km/h (2 Bft) 100,00 %
29.04.2016 07:48 2,4 C 87 % 1019,9 hPa 0,0 l/m 6,2 km/h (2 Bft) O-NO 59 1 min 0,000 mm 0,0 UV-I 243 W/m 0,5 C 2,4 C 8,0 km/h (2 Bft) 95,65 %
29.04.2016 07:49 2,4 C 87 % 1019,9 hPa 0,0 l/m 5,5 km/h (1 Bft) O-NO 63 1 min 0,000 mm 0,0 UV-I 241 W/m 0,5 C 2,4 C 6,4 km/h (2 Bft) 100,00 %
29.04.2016 07:50 2,4 C 87 % 1019,9 hPa 0,0 l/m 5,8 km/h (2 Bft) NO 56 1 min 0,000 mm 0,0 UV-I 239 W/m 0,5 C 2,4 C 8,0 km/h (2 Bft) 100,00 %
29.04.2016 07:51 2,4 C 87 % 1019,9 hPa 0,0 l/m 6,2 km/h (2 Bft) NO 55 1 min 0,000 mm 0,0 UV-I 237 W/m 0,5 C 2,4 C 8,0 km/h (2 Bft) 100,00 %
29.04.2016 07:52 2,4 C 87 % 1019,9 hPa 0,0 l/m 6,5 km/h (2 Bft) NO 56 1 min 0,000 mm 0,1 UV-I 235 W/m 0,5 C 2,3 C 9,7 km/h (2 Bft) 100,00 %
29.04.2016 07:53 2,5 C 88 % 1019,9 hPa 0,0 l/m 6,0 km/h (2 Bft) O-NO 57 1 min 0,000 mm 0,5 UV-I 233 W/m 0,7 C 2,5 C 8,0 km/h (2 Bft) 100,00 %
29.04.2016 07:54 2,5 C 88 % 1019,9 hPa 0,0 l/m 5,5 km/h (1 Bft) O-NO 61 1 min 0,000 mm 0,5 UV-I 231 W/m 0,7 C 2,5 C 6,4 km/h (2 Bft) 100,00 %
29.04.2016 07:55 2,6 C 88 % 1019,9 hPa 0,0 l/m 4,6 km/h (1 Bft) O-NO 66 1 min 0,000 mm 0,5 UV-I 229 W/m 0,8 C 2,6 C 6,4 km/h (2 Bft) 100,00 %
29.04.2016 07:56 2,6 C 88 % 1019,9 hPa 0,0 l/m 5,4 km/h (1 Bft) O-NO 65 1 min 0,000 mm 0,5 UV-I 227 W/m 0,8 C 2,6 C 8,0 km/h (2 Bft) 100,00 %
29.04.2016 07:57 2,7 C 88 % 1019,9 hPa 0,0 l/m 6,6 km/h (2 Bft) NO 44 1 min 0,000 mm 0,5 UV-I 227 W/m 0,9 C 2,5 C 9,7 km/h (2 Bft) 100,00 %
29.04.2016 07:58 2,7 C 88 % 1019,9 hPa 0,0 l/m 5,6 km/h (1 Bft) O-NO 60 1 min 0,000 mm 0,5 UV-I 228 W/m 0,9 C 2,7 C 9,7 km/h (2 Bft) 95,65 %
29.04.2016 07:59 2,7 C 88 % 1019,9 hPa 0,0 l/m 7,7 km/h (2 Bft) O-NO 63 1 min 0,000 mm 0,5 UV-I 230 W/m 0,9 C 1,5 C 8,0 km/h (2 Bft) 95,83 %
29.04.2016 08:00 2,8 C 88 % 1019,9 hPa 0,0 l/m 6,8 km/h (2 Bft) NO 54 1 min 0,076 mm 0,5 UV-I 233 W/m 1,0 C 2,4 C 9,7 km/h (2 Bft) 100,00 %
29.04.2016 08:02 2,9 C 88 % 1019,9 hPa 0,0 l/m 5,5 km/h (1 Bft) O-NO 63 2 min 0,000 mm 0,5 UV-I 241 W/m 1,1 C 2,9 C 8,0 km/h (2 Bft) 97,87 %
29.04.2016 08:03 2,9 C 88 % 1019,9 hPa 0,0 l/m 5,1 km/h (1 Bft) NO 55 1 min 0,000 mm 0,5 UV-I 251 W/m 1,1 C 2,9 C 6,4 km/h (2 Bft) 100,00 %
29.04.2016 08:04 3,0 C 88 % 1019,8 hPa 0,0 l/m 4,0 km/h (1 Bft) O-NO 61 1 min 0,000 mm 0,5 UV-I 258 W/m 1,2 C 3,0 C 6,4 km/h (2 Bft) 95,65 %
29.04.2016 08:05 3,1 C 87 % 1019,8 hPa 0,0 l/m 5,6 km/h (1 Bft) O-NO 64 1 min 0,000 mm 0,6 UV-I 266 W/m 1,2 C 3,1 C 8,0 km/h (2 Bft) 100,00 %
29.04.2016 08:06 3,1 C 87 % 1019,8 hPa 0,0 l/m 6,0 km/h (2 Bft) O-NO 65 1 min 0,000 mm 0,6 UV-I 274 W/m 1,2 C 3,1 C 9,7 km/h (2 Bft) 100,00 %
29.04.2016 08:07 3,2 C 86 % 1019,8 hPa 0,0 l/m 6,6 km/h (2 Bft) O-NO 57 1 min 0,000 mm 0,6 UV-I 282 W/m 1,1 C 3,0 C 9,7 km/h (2 Bft) 95,83 %
29.04.2016 08:08 3,2 C 86 % 1019,8 hPa 0,0 l/m 6,5 km/h (2 Bft) NO 50 1 min 0,000 mm 0,6 UV-I 289 W/m 1,1 C 3,1 C 9,7 km/h (2 Bft) 100,00 %
29.04.2016 08:09 3,2 C 86 % 1019,8 hPa 0,0 l/m 6,1 km/h (2 Bft) O-NO 67 1 min 0,000 mm 0,6 UV-I 297 W/m 1,1 C 3,2 C 9,7 km/h (2 Bft) 95,83 %
29.04.2016 08:10 3,3 C 86 % 1019,8 hPa 0,0 l/m 6,5 km/h (2 Bft) O-NO 59 1 min 0,000 mm 0,6 UV-I 304 W/m 1,2 C 3,2 C 9,7 km/h (2 Bft) 100,00 %
29.04.2016 08:11 3,3 C 85 % 1019,9 hPa 0,0 l/m 6,3 km/h (2 Bft) O-NO 59 1 min 0,000 mm 0,6 UV-I 311 W/m 1,0 C 3,3 C 11,3 km/h (2 Bft) 95,83 %
29.04.2016 08:12 3,3 C 86 % 1019,9 hPa 0,0 l/m 6,7 km/h (2 Bft) NO 38 1 min 0,000 mm 0,6 UV-I 317 W/m 1,2 C 3,0 C 9,7 km/h (2 Bft) 100,00 %
29.04.2016 08:13 3,4 C 86 % 1019,9 hPa 0,0 l/m 7,2 km/h (2 Bft) N-NO 29 1 min 0,000 mm 0,6 UV-I 322 W/m 1,3 C 2,7 C 9,7 km/h (2 Bft) 95,65 %
29.04.2016 08:14 3,5 C 86 % 1019,9 hPa 0,0 l/m 6,6 km/h (2 Bft) O-NO 61 1 min 0,000 mm 0,6 UV-I 325 W/m 1,4 C 3,3 C 8,0 km/h (2 Bft) 95,83 %
29.04.2016 08:15 3,6 C 87 % 1019,9 hPa 0,0 l/m 4,6 km/h (1 Bft) O-NO 62 1 min 0,000 mm 0,6 UV-I 328 W/m 1,6 C 3,6 C 4,8 km/h (1 Bft) 95,65 %
29.04.2016 08:16 3,7 C 86 % 1019,8 hPa 0,0 l/m 6,4 km/h (2 Bft) NO 49 1 min 0,000 mm 0,7 UV-I 329 W/m 1,6 C 3,7 C 9,7 km/h (2 Bft) 95,83 %
29.04.2016 08:17 3,7 C 85 % 1019,9 hPa 0,0 l/m 6,0 km/h (2 Bft) NO 42 1 min 0,000 mm 0,7 UV-I 331 W/m 1,4 C 3,7 C 8,0 km/h (2 Bft) 100,00 %
29.04.2016 08:18 3,7 C 85 % 1019,9 hPa 0,0 l/m 6,0 km/h (2 Bft) O-NO 60 1 min 0,000 mm 0,7 UV-I 332 W/m 1,4 C 3,7 C 8,0 km/h (2 Bft) 95,83 %
29.04.2016 08:19 3,8 C 85 % 1019,9 hPa 0,0 l/m 5,5 km/h (1 Bft) NO 46 1 min 0,000 mm 0,7 UV-I 332 W/m 1,5 C 3,8 C 8,0 km/h (2 Bft) 91,30 %
29.04.2016 08:20 3,8 C 86 % 1019,9 hPa 0,0 l/m 7,2 km/h (2 Bft) NO 42 1 min 0,000 mm 0,7 UV-I 334 W/m 1,7 C 3,1 C 8,0 km/h (2 Bft) 95,83 %
29.04.2016 08:21 3,9 C 86 % 1019,9 hPa 0,0 l/m 5,9 km/h (2 Bft) NO 40 1 min 0,000 mm 0,7 UV-I 335 W/m 1,8 C 3,9 C 9,7 km/h (2 Bft) 95,65 %
29.04.2016 08:22 4,1 C 86 % 1019,9 hPa 0,0 l/m 5,6 km/h (1 Bft) O-NO 57 1 min 0,000 mm 0,7 UV-I 334 W/m 2,0 C 4,1 C 6,4 km/h (2 Bft) 100,00 %
29.04.2016 08:23 4,1 C 85 % 1019,9 hPa 0,0 l/m 5,0 km/h (1 Bft) O-NO 61 1 min 0,000 mm 0,7 UV-I 333 W/m 1,8 C 4,1 C 6,4 km/h (2 Bft) 95,65 %
29.04.2016 08:24 4,2 C 85 % 1019,9 hPa 0,0 l/m 4,6 km/h (1 Bft) N-NO 29 1 min 0,000 mm 0,8 UV-I 332 W/m 1,9 C 4,2 C 6,4 km/h (2 Bft) 100,00 %
29.04.2016 08:25 4,2 C 84 % 1020,0 hPa 0,0 l/m 6,0 km/h (2 Bft) O-NO 60 1 min 0,000 mm 0,8 UV-I 334 W/m 1,7 C 4,2 C 9,7 km/h (2 Bft) 100,00 %
29.04.2016 08:26 4,2 C 83 % 1020,0 hPa 0,0 l/m 6,9 km/h (2 Bft) NO 55 1 min 0,000 mm 0,8 UV-I 332 W/m 1,6 C 3,8 C 9,7 km/h (2 Bft) 92,31 %
29.04.2016 08:27 4,2 C 83 % 1020,0 hPa 0,0 l/m 6,2 km/h (2 Bft) NO 37 1 min 0,000 mm 0,8 UV-I 332 W/m 1,6 C 4,2 C 8,0 km/h (2 Bft) 95,83 %
29.04.2016 08:28 4,2 C 84 % 1020,0 hPa 0,0 l/m 5,6 km/h (1 Bft) NO 54 1 min 0,000 mm 0,8 UV-I 331 W/m 1,7 C 4,2 C 8,0 km/h (2 Bft) 100,00 %
29.04.2016 08:29 4,3 C 82 % 1020,0 hPa 0,0 l/m 5,7 km/h (1 Bft) NO 53 1 min 0,000 mm 0,8 UV-I 327 W/m 1,5 C 4,3 C 8,0 km/h (2 Bft) 95,83 %
29.04.2016 08:30 4,3 C 82 % 1020,0 hPa 0,0 l/m 6,1 km/h (2 Bft) O-NO 69 1 min 0,000 mm 0,8 UV-I 320 W/m 1,5 C 4,3 C 8,0 km/h (2 Bft) 95,65 %
29.04.2016 08:31 4,3 C 81 % 1020,0 hPa 0,0 l/m 5,0 km/h (1 Bft) O-NO 67 1 min 0,000 mm 0,8 UV-I 313 W/m 1,3 C 4,3 C 6,4 km/h (2 Bft) 95,83 %
29.04.2016 08:32 4,3 C 80 % 1020,0 hPa 0,0 l/m 5,3 km/h (1 Bft) O-NO 63 1 min 0,000 mm 0,8 UV-I 305 W/m 1,2 C 4,3 C 8,0 km/h (2 Bft) 100,00 %
29.04.2016 08:33 4,3 C 82 % 1020,0 hPa 0,0 l/m 7,5 km/h (2 Bft) NO 43 1 min 0,000 mm 0,9 UV-I 296 W/m 1,5 C 3,3 C 9,7 km/h (2 Bft) 95,83 %
29.04.2016 08:34 4,4 C 83 % 1020,0 hPa 0,0 l/m 8,1 km/h (2 Bft) NO 34 1 min 0,000 mm 0,9 UV-I 289 W/m 1,8 C 2,9 C 11,3 km/h (2 Bft) 96,15 %
29.04.2016 08:35 4,4 C 82 % 1020,0 hPa 0,0 l/m 9,1 km/h (2 Bft) N-NO 31 1 min 0,000 mm 0,9 UV-I 281 W/m 1,6 C 2,1 C 11,3 km/h (2 Bft) 100,00 %
29.04.2016 08:36 4,5 C 81 % 1020,0 hPa 0,0 l/m 5,2 km/h (1 Bft) N-NO 31 1 min 0,000 mm 0,9 UV-I 278 W/m 1,5 C 4,5 C 8,0 km/h (2 Bft) 95,65 %
29.04.2016 08:37 4,6 C 82 % 1020,0 hPa 0,0 l/m 6,2 km/h (2 Bft) NO 36 1 min 0,000 mm 0,9 UV-I 264 W/m 1,8 C 4,6 C 6,4 km/h (2 Bft) 100,00 %
29.04.2016 08:38 4,6 C 82 % 1020,0 hPa 0,0 l/m 5,8 km/h (2 Bft) O-NO 57 1 min 0,000 mm 0,9 UV-I 255 W/m 1,8 C 4,6 C 9,7 km/h (2 Bft) 96,15 %
29.04.2016 08:39 4,7 C 80 % 1020,0 hPa 0,0 l/m 4,2 km/h (1 Bft) O-NO 58 1 min 0,000 mm 0,9 UV-I 249 W/m 1,6 C 4,7 C 6,4 km/h (2 Bft) 100,00 %
29.04.2016 08:40 4,7 C 80 % 1020,0 hPa 0,0 l/m 5,7 km/h (1 Bft) NO 47 0 min 0,000 mm 0,9 UV-I 245 W/m 1,6 C 4,7 C 8,0 km/h (2 Bft) 100,00 %
29.04.2016 08:41 4,7 C 79 % 1020,0 hPa 0,0 l/m 8,5 km/h (2 Bft) O-NO 64 0 min 0,000 mm 0,9 UV-I 244 W/m 1,4 C 2,9 C 12,9 km/h (3 Bft) 95,83 %
29.04.2016 08:42 4,7 C 79 % 1020,0 hPa 0,0 l/m 6,6 km/h (2 Bft) NO 55 0 min 0,000 mm 1,0 UV-I 247 W/m 1,4 C 4,5 C 9,7 km/h (2 Bft) 95,65 %
29.04.2016 08:43 4,7 C 80 % 1020,0 hPa 0,0 l/m 6,5 km/h (2 Bft) O-NO 67 0 min 0,000 mm 1,0 UV-I 252 W/m 1,6 C 4,6 C 8,0 km/h (2 Bft) 100,00 %
29.04.2016 08:44 4,7 C 80 % 1020,0 hPa 0,0 l/m 6,3 km/h (2 Bft) NO 51 1 min 0,000 mm 1,0 UV-I 259 W/m 1,6 C 4,7 C 8,0 km/h (2 Bft) 100,00 %
29.04.2016 08:45 4,8 C 80 % 1020,0 hPa 0,0 l/m 5,6 km/h (1 Bft) NO 46 1 min 0,000 mm 1,0 UV-I 266 W/m 1,6 C 4,8 C 9,7 km/h (2 Bft) 100,00 %
29.04.2016 08:46 4,8 C 80 % 1020,0 hPa 0,0 l/m 7,8 km/h (2 Bft) N-NO 30 1 min 0,000 mm 1,0 UV-I 273 W/m 1,6 C 3,6 C 9,7 km/h (2 Bft) 100,00 %
29.04.2016 08:47 4,8 C 81 % 1020,0 hPa 0,0 l/m 3,6 km/h (1 Bft) N-NO 17 1 min 0,000 mm 1,0 UV-I 281 W/m 1,8 C 4,8 C 6,4 km/h (2 Bft) 100,00 %
29.04.2016 08:48 4,8 C 81 % 1020,0 hPa 0,0 l/m 3,9 km/h (1 Bft) N-NO 13 1 min 0,000 mm 1,0 UV-I 291 W/m 1,8 C 4,8 C 6,4 km/h (2 Bft) 95,65 %
29.04.2016 08:49 4,9 C 81 % 1020,0 hPa 0,0 l/m 4,9 km/h (1 Bft) N-NO 22 1 min 0,000 mm 1,1 UV-I 302 W/m 1,9 C 4,9 C 6,4 km/h (2 Bft) 100,00 %
29.04.2016 08:50 4,9 C 81 % 1020,0 hPa 0,0 l/m 4,6 km/h (1 Bft) N-NO 24 1 min 0,000 mm 1,1 UV-I 312 W/m 1,9 C 4,9 C 6,4 km/h (2 Bft) 91,30 %
29.04.2016 08:51 5,0 C 81 % 1020,0 hPa 0,0 l/m 6,2 km/h (2 Bft) NO 39 1 min 0,000 mm 1,1 UV-I 324 W/m 2,0 C 5,0 C 14,5 km/h (3 Bft) 100,00 %
29.04.2016 08:52 5,1 C 80 % 1020,0 hPa 0,0 l/m 6,5 km/h (2 Bft) NO 38 1 min 0,000 mm 1,1 UV-I 334 W/m 1,9 C 5,0 C 9,7 km/h (2 Bft) 95,83 %
29.04.2016 08:53 5,1 C 79 % 1020,0 hPa 0,0 l/m 4,5 km/h (1 Bft) NO 49 1 min 0,000 mm 1,1 UV-I 345 W/m 1,8 C 5,1 C 8,0 km/h (2 Bft) 100,00 %
29.04.2016 08:54 5,2 C 80 % 1019,9 hPa 0,0 l/m 3,2 km/h (1 Bft) NO 52 1 min 0,000 mm 1,1 UV-I 354 W/m 2,0 C 5,2 C 6,4 km/h (2 Bft) 91,67 %
29.04.2016 08:55 5,2 C 79 % 1019,9 hPa 0,0 l/m 4,2 km/h (1 Bft) NO 38 1 min 0,000 mm 1,1 UV-I 366 W/m 1,9 C 5,2 C 8,0 km/h (2 Bft) 100,00 %
29.04.2016 08:56 5,2 C 79 % 1019,9 hPa 0,0 l/m 5,5 km/h (1 Bft) NO 38 1 min 0,000 mm 1,1 UV-I 375 W/m 1,9 C 5,2 C 8,0 km/h (2 Bft) 100,00 %
29.04.2016 08:57 5,3 C 80 % 1019,9 hPa 0,0 l/m 8,1 km/h (2 Bft) N-NO 25 1 min 0,000 mm 1,2 UV-I 383 W/m 2,1 C 3,8 C 9,7 km/h (2 Bft) 95,65 %
29.04.2016 08:58 5,4 C 81 % 1019,9 hPa 0,0 l/m 5,7 km/h (1 Bft) N-NO 24 1 min 0,000 mm 1,2 UV-I 390 W/m 2,4 C 5,4 C 8,0 km/h (2 Bft) 100,00 %
29.04.2016 08:59 5,4 C 82 % 1019,9 hPa 0,0 l/m 4,4 km/h (1 Bft) N-NO 15 1 min 0,000 mm 1,2 UV-I 398 W/m 2,6 C 5,4 C 8,0 km/h (2 Bft) 100,00 %
29.04.2016 09:00 5,6 C 82 % 1019,9 hPa 0,0 l/m 4,6 km/h (1 Bft) NO 46 1 min 0,127 mm 1,2 UV-I 405 W/m 2,8 C 5,6 C 8,0 km/h (2 Bft) 100,00 %
29.04.2016 09:02 5,6 C 77 % 1019,9 hPa 0,0 l/m 4,2 km/h (1 Bft) O 100 2 min 0,000 mm 1,2 UV-I 416 W/m 1,9 C 5,6 C 6,4 km/h (2 Bft) 100,00 %
29.04.2016 09:03 5,6 C 77 % 1019,9 hPa 0,0 l/m 6,8 km/h (2 Bft) O-NO 74 1 min 0,000 mm 1,2 UV-I 428 W/m 1,9 C 5,3 C 8,0 km/h (2 Bft) 95,65 %
29.04.2016 09:04 5,5 C 76 % 1019,9 hPa 0,0 l/m 4,4 km/h (1 Bft) O-NO 67 1 min 0,000 mm 1,2 UV-I 434 W/m 1,6 C 5,5 C 6,4 km/h (2 Bft) 100,00 %
29.04.2016 09:05 5,5 C 78 % 1019,9 hPa 0,0 l/m 4,7 km/h (1 Bft) O-NO 78 1 min 0,000 mm 1,3 UV-I 441 W/m 2,0 C 5,5 C 8,0 km/h (2 Bft) 100,00 %
29.04.2016 09:06 5,6 C 78 % 1019,9 hPa 0,0 l/m 3,8 km/h (1 Bft) O-NO 70 1 min 0,000 mm 1,3 UV-I 448 W/m 2,1 C 5,6 C 4,8 km/h (1 Bft) 100,00 %
29.04.2016 09:07 5,6 C 78 % 1019,9 hPa 0,0 l/m 5,6 km/h (1 Bft) O-NO 65 1 min 0,000 mm 1,3 UV-I 455 W/m 2,1 C 5,6 C 8,0 km/h (2 Bft) 95,65 %
29.04.2016 09:08 5,6 C 78 % 1019,9 hPa 0,0 l/m 4,5 km/h (1 Bft) O-NO 77 1 min 0,000 mm 1,3 UV-I 462 W/m 2,1 C 5,6 C 6,4 km/h (2 Bft) 100,00 %
29.04.2016 09:09 5,7 C 78 % 1019,9 hPa 0,0 l/m 5,8 km/h (2 Bft) O-NO 60 1 min 0,000 mm 1,3 UV-I 466 W/m 2,2 C 5,7 C 8,0 km/h (2 Bft) 100,00 %
29.04.2016 09:10 5,7 C 77 % 1019,9 hPa 0,0 l/m 6,4 km/h (2 Bft) NO 35 1 min 0,000 mm 1,3 UV-I 472 W/m 2,0 C 5,7 C 8,0 km/h (2 Bft) 95,83 %
29.04.2016 09:11 5,8 C 78 % 1019,9 hPa 0,0 l/m 5,6 km/h (1 Bft) N-NO 19 1 min 0,000 mm 1,3 UV-I 479 W/m 2,3 C 5,8 C 8,0 km/h (2 Bft) 100,00 %
29.04.2016 09:12 5,8 C 78 % 1019,9 hPa 0,0 l/m 2,7 km/h (1 Bft) NO 36 1 min 0,000 mm 1,3 UV-I 483 W/m 2,3 C 5,8 C 6,4 km/h (2 Bft) 95,83 %
29.04.2016 09:13 5,8 C 77 % 1019,9 hPa 0,0 l/m 5,9 km/h (2 Bft) O-NO 70 1 min 0,000 mm 1,4 UV-I 489 W/m 2,1 C 5,8 C 9,7 km/h (2 Bft) 100,00 %
29.04.2016 09:14 5,8 C 77 % 1019,9 hPa 0,0 l/m 7,5 km/h (2 Bft) O 89 1 min 0,000 mm 1,4 UV-I 492 W/m 2,1 C 4,9 C 11,3 km/h (2 Bft) 100,00 %
29.04.2016 09:15 5,8 C 76 % 1019,9 hPa 0,0 l/m 6,6 km/h (2 Bft) N-NO 28 1 min 0,000 mm 1,4 UV-I 496 W/m 1,9 C 5,7 C 8,0 km/h (2 Bft) 91,67 %
29.04.2016 09:16 5,9 C 80 % 1019,9 hPa 0,0 l/m 3,0 km/h (1 Bft) N 11 1 min 0,000 mm 1,4 UV-I 497 W/m 2,7 C 5,9 C 8,0 km/h (2 Bft) 100,00 %
29.04.2016 09:17 6,1 C 79 % 1019,9 hPa 0,0 l/m 0,3 km/h (0 Bft) N 11 1 min 0,000 mm 1,4 UV-I 499 W/m 2,7 C 6,1 C 1,6 km/h (1 Bft) 100,00 %
29.04.2016 09:18 6,2 C 77 % 1019,9 hPa 0,0 l/m 2,4 km/h (1 Bft) O-NO 77 1 min 0,000 mm 1,4 UV-I 501 W/m 2,5 C 6,2 C 3,2 km/h (1 Bft) 100,00 %
29.04.2016 09:19 6,2 C 77 % 1019,9 hPa 0,0 l/m 3,4 km/h (1 Bft) O-NO 69 1 min 0,000 mm 1,4 UV-I 503 W/m 2,5 C 6,2 C 4,8 km/h (1 Bft) 95,83 %
29.04.2016 09:20 6,3 C 77 % 1019,9 hPa 0,0 l/m 6,4 km/h (2 Bft) NO 40 1 min 0,000 mm 1,5 UV-I 508 W/m 2,6 C 6,3 C 9,7 km/h (2 Bft) 100,00 %
29.04.2016 09:21 6,3 C 77 % 1019,9 hPa 0,0 l/m 4,7 km/h (1 Bft) NO 49 1 min 0,000 mm 1,5 UV-I 509 W/m 2,6 C 6,3 C 8,0 km/h (2 Bft) 100,00 %
29.04.2016 09:22 6,3 C 76 % 1019,8 hPa 0,0 l/m 3,7 km/h (1 Bft) NO 45 1 min 0,000 mm 1,5 UV-I 512 W/m 2,4 C 6,3 C 6,4 km/h (2 Bft) 100,00 %
29.04.2016 09:23 6,4 C 77 % 1019,9 hPa 0,0 l/m 4,3 km/h (1 Bft) O 90 1 min 0,000 mm 1,5 UV-I 515 W/m 2,7 C 6,4 C 6,4 km/h (2 Bft) 100,00 %
29.04.2016 09:24 6,3 C 76 % 1019,9 hPa 0,0 l/m 3,8 km/h (1 Bft) O 88 1 min 0,000 mm 1,5 UV-I 519 W/m 2,4 C 6,3 C 4,8 km/h (1 Bft) 100,00 %
29.04.2016 09:25 6,3 C 74 % 1019,9 hPa 0,0 l/m 4,1 km/h (1 Bft) NO 38 1 min 0,000 mm 1,5 UV-I 521 W/m 2,0 C 6,3 C 6,4 km/h (2 Bft) 100,00 %
29.04.2016 09:26 6,3 C 75 % 1019,9 hPa 0,0 l/m 4,1 km/h (1 Bft) N-NO 21 1 min 0,000 mm 1,5 UV-I 524 W/m 2,2 C 6,3 C 6,4 km/h (2 Bft) 100,00 %
29.04.2016 09:27 6,4 C 77 % 1019,9 hPa 0,0 l/m 6,2 km/h (2 Bft) O-NO 68 1 min 0,000 mm 1,6 UV-I 526 W/m 2,7 C 6,4 C 9,7 km/h (2 Bft) 100,00 %
29.04.2016 09:28 6,6 C 76 % 1019,9 hPa 0,0 l/m 5,4 km/h (1 Bft) O-NO 62 1 min 0,000 mm 1,6 UV-I 528 W/m 2,7 C 6,6 C 8,0 km/h (2 Bft) 100,00 %
29.04.2016 09:29 6,6 C 75 % 1019,8 hPa 0,0 l/m 5,3 km/h (1 Bft) O-NO 74 1 min 0,000 mm 1,6 UV-I 531 W/m 2,5 C 6,6 C 6,4 km/h (2 Bft) 100,00 %
29.04.2016 09:30 6,6 C 75 % 1019,8 hPa 0,0 l/m 7,4 km/h (2 Bft) NO 51 1 min 0,000 mm 1,6 UV-I 533 W/m 2,5 C 5,8 C 8,0 km/h (2 Bft) 100,00 %
29.04.2016 09:31 6,6 C 74 % 1019,8 hPa 0,0 l/m 6,2 km/h (2 Bft) NO 50 1 min 0,000 mm 1,6 UV-I 535 W/m 2,3 C 6,6 C 9,7 km/h (2 Bft) 100,00 %
29.04.2016 09:32 6,6 C 74 % 1019,9 hPa 0,0 l/m 6,4 km/h (2 Bft) NO 44 1 min 0,000 mm 1,6 UV-I 539 W/m 2,3 C 6,6 C 8,0 km/h (2 Bft) 100,00 %
29.04.2016 09:33 6,6 C 76 % 1019,9 hPa 0,0 l/m 3,2 km/h (1 Bft) N-NO 30 1 min 0,000 mm 1,6 UV-I 541 W/m 2,7 C 6,6 C 4,8 km/h (1 Bft) 100,00 %
29.04.2016 09:34 6,6 C 76 % 1019,9 hPa 0,0 l/m 1,8 km/h (1 Bft) O-NO 74 1 min 0,000 mm 1,7 UV-I 542 W/m 2,7 C 6,6 C 3,2 km/h (1 Bft) 100,00 %
29.04.2016 09:35 6,6 C 76 % 1019,9 hPa 0,0 l/m 5,6 km/h (1 Bft) NO 49 1 min 0,000 mm 1,7 UV-I 546 W/m 2,7 C 6,6 C 9,7 km/h (2 Bft) 100,00 %
29.04.2016 09:36 6,7 C 76 % 1019,9 hPa 0,0 l/m 7,2 km/h (2 Bft) N-NO 33 1 min 0,000 mm 1,7 UV-I 548 W/m 2,8 C 6,0 C 14,5 km/h (3 Bft) 100,00 %
29.04.2016 09:37 6,8 C 76 % 1019,9 hPa 0,0 l/m 8,6 km/h (2 Bft) N 11 1 min 0,000 mm 1,7 UV-I 549 W/m 2,9 C 5,0 C 12,9 km/h (3 Bft) 100,00 %
29.04.2016 09:38 6,8 C 77 % 1019,9 hPa 0,0 l/m 3,4 km/h (1 Bft) N 355 1 min 0,000 mm 1,7 UV-I 552 W/m 3,1 C 6,8 C 4,8 km/h (1 Bft) 100,00 %
29.04.2016 09:39 6,8 C 76 % 1019,9 hPa 0,0 l/m 3,4 km/h (1 Bft) NO 48 1 min 0,000 mm 1,7 UV-I 555 W/m 2,9 C 6,8 C 8,0 km/h (2 Bft) 100,00 %
29.04.2016 09:40 6,7 C 74 % 1019,9 hPa 0,0 l/m 5,9 km/h (2 Bft) NO 55 1 min 0,000 mm 1,8 UV-I 558 W/m 2,4 C 6,7 C 8,0 km/h (2 Bft) 100,00 %
29.04.2016 09:41 6,8 C 76 % 1019,9 hPa 0,0 l/m 6,4 km/h (2 Bft) O-NO 74 1 min 0,000 mm 1,8 UV-I 561 W/m 2,9 C 6,8 C 8,0 km/h (2 Bft) 100,00 %
29.04.2016 09:42 6,8 C 74 % 1019,9 hPa 0,0 l/m 5,6 km/h (1 Bft) O-NO 70 1 min 0,000 mm 1,8 UV-I 564 W/m 2,5 C 6,8 C 8,0 km/h (2 Bft) 95,83 %
29.04.2016 09:43 6,8 C 74 % 1019,9 hPa 0,0 l/m 3,6 km/h (1 Bft) NO 37 1 min 0,000 mm 1,8 UV-I 567 W/m 2,5 C 6,8 C 4,8 km/h (1 Bft) 100,00 %
29.04.2016 09:44 6,8 C 75 % 1019,9 hPa 0,0 l/m 3,2 km/h (1 Bft) NO 44 1 min 0,000 mm 1,8 UV-I 569 W/m 2,7 C 6,8 C 4,8 km/h (1 Bft) 100,00 %
29.04.2016 09:45 6,9 C 77 % 1019,8 hPa 0,0 l/m 7,8 km/h (2 Bft) N-NO 13 1 min 0,000 mm 1,8 UV-I 571 W/m 3,2 C 5,8 C 12,9 km/h (3 Bft) 100,00 %
29.04.2016 09:46 7,1 C 78 % 1019,9 hPa 0,0 l/m 7,2 km/h (2 Bft) N 9 1 min 0,000 mm 1,9 UV-I 572 W/m 3,5 C 6,4 C 12,9 km/h (3 Bft) 95,65 %
29.04.2016 09:47 7,2 C 77 % 1019,9 hPa 0,0 l/m 1,4 km/h (1 Bft) N 9 1 min 0,000 mm 1,9 UV-I 575 W/m 3,4 C 7,2 C 1,6 km/h (1 Bft) 100,00 %
29.04.2016 09:48 7,3 C 76 % 1019,9 hPa 0,0 l/m 4,1 km/h (1 Bft) O-NO 78 1 min 0,000 mm 1,9 UV-I 578 W/m 3,4 C 7,3 C 6,4 km/h (2 Bft) 100,00 %
29.04.2016 09:49 7,3 C 75 % 1019,9 hPa 0,0 l/m 2,9 km/h (1 Bft) O-NO 65 1 min 0,000 mm 1,9 UV-I 578 W/m 3,2 C 7,3 C 4,8 km/h (1 Bft) 100,00 %
29.04.2016 09:50 7,2 C 73 % 1019,9 hPa 0,0 l/m 4,2 km/h (1 Bft) O 95 1 min 0,000 mm 1,9 UV-I 581 W/m 2,7 C 7,2 C 6,4 km/h (2 Bft) 100,00 %
29.04.2016 09:51 7,1 C 73 % 1019,9 hPa 0,0 l/m 1,7 km/h (1 Bft) O 94 1 min 0,000 mm 1,9 UV-I 585 W/m 2,6 C 7,1 C 3,2 km/h (1 Bft) 100,00 %
29.04.2016 09:52 6,9 C 74 % 1019,9 hPa 0,0 l/m 3,3 km/h (1 Bft) NO 51 1 min 0,000 mm 2,0 UV-I 588 W/m 2,6 C 6,9 C 6,4 km/h (2 Bft) 100,00 %
29.04.2016 09:53 7,1 C 76 % 1019,9 hPa 0,0 l/m 6,6 km/h (2 Bft) NO 34 1 min 0,000 mm 2,0 UV-I 591 W/m 3,2 C 7,0 C 9,7 km/h (2 Bft) 100,00 %
29.04.2016 09:54 7,2 C 77 % 1019,9 hPa 0,0 l/m 10,1 km/h (2 Bft) N-NO 26 1 min 0,000 mm 2,0 UV-I 592 W/m 3,4 C 4,4 C 14,5 km/h (3 Bft) 100,00 %
29.04.2016 09:55 7,3 C 77 % 1019,8 hPa 0,0 l/m 7,1 km/h (2 Bft) N 9 1 min 0,000 mm 2,0 UV-I 594 W/m 3,5 C 6,7 C 12,9 km/h (3 Bft) 100,00 %
29.04.2016 09:56 7,4 C 76 % 1019,8 hPa 0,0 l/m 4,4 km/h (1 Bft) N-NO 31 1 min 0,000 mm 2,0 UV-I 598 W/m 3,5 C 7,4 C 4,8 km/h (1 Bft) 100,00 %
29.04.2016 09:57 7,3 C 74 % 1019,8 hPa 0,0 l/m 5,1 km/h (1 Bft) NO 44 1 min 0,000 mm 2,0 UV-I 602 W/m 3,0 C 7,3 C 8,0 km/h (2 Bft) 95,83 %
29.04.2016 09:58 7,3 C 74 % 1019,8 hPa 0,0 l/m 7,6 km/h (2 Bft) N-NO 24 1 min 0,000 mm 2,1 UV-I 605 W/m 3,0 C 6,3 C 11,3 km/h (2 Bft) 100,00 %
29.04.2016 09:59 7,4 C 76 % 1019,8 hPa 0,0 l/m 4,6 km/h (1 Bft) N-NO 22 1 min 0,000 mm 2,1 UV-I 606 W/m 3,5 C 7,4 C 6,4 km/h (2 Bft) 95,83 %
29.04.2016 10:00 7,5 C 76 % 1019,8 hPa 0,0 l/m 1,4 km/h (1 Bft) N-NO 26 1 min 0,229 mm 2,1 UV-I 608 W/m 3,5 C 7,5 C 3,2 km/h (1 Bft) 95,65 %
29.04.2016 10:02 7,7 C 73 % 1019,8 hPa 0,0 l/m 5,5 km/h (1 Bft) O-NO 60 2 min 0,000 mm 2,1 UV-I 612 W/m 3,2 C 7,7 C 12,9 km/h (3 Bft) 95,74 %
29.04.2016 10:03 7,7 C 72 % 1019,8 hPa 0,0 l/m 7,2 km/h (2 Bft) NO 55 1 min 0,000 mm 2,2 UV-I 618 W/m 3,0 C 7,1 C 11,3 km/h (2 Bft) 100,00 %
29.04.2016 10:04 7,7 C 71 % 1019,8 hPa 0,0 l/m 6,5 km/h (2 Bft) O-NO 64 1 min 0,000 mm 2,2 UV-I 619 W/m 2,8 C 7,6 C 8,0 km/h (2 Bft) 95,65 %
29.04.2016 10:05 7,7 C 72 % 1019,8 hPa 0,0 l/m 4,2 km/h (1 Bft) O 85 1 min 0,000 mm 2,2 UV-I 621 W/m 3,0 C 7,7 C 6,4 km/h (2 Bft) 100,00 %
29.04.2016 10:06 7,6 C 70 % 1019,8 hPa 0,0 l/m 0,7 km/h (0 Bft) O 85 1 min 0,000 mm 2,2 UV-I 623 W/m 2,5 C 7,6 C 3,2 km/h (1 Bft) 91,30 %
29.04.2016 10:07 7,6 C 73 % 1019,8 hPa 0,0 l/m 5,5 km/h (1 Bft) O 93 1 min 0,000 mm 2,2 UV-I 625 W/m 3,1 C 7,6 C 11,3 km/h (2 Bft) 95,83 %
29.04.2016 10:08 7,6 C 71 % 1019,8 hPa 0,0 l/m 7,9 km/h (2 Bft) O-SO 103 1 min 0,000 mm 2,2 UV-I 627 W/m 2,7 C 6,4 C 11,3 km/h (2 Bft) 100,00 %
29.04.2016 10:09 7,6 C 70 % 1019,8 hPa 0,0 l/m 8,0 km/h (2 Bft) O-SO 102 1 min 0,000 mm 2,2 UV-I 630 W/m 2,5 C 6,3 C 11,3 km/h (2 Bft) 95,65 %
29.04.2016 10:10 7,5 C 72 % 1019,8 hPa 0,0 l/m 6,1 km/h (2 Bft) O 82 1 min 0,000 mm 2,2 UV-I 633 W/m 2,8 C 7,5 C 8,0 km/h (2 Bft) 100,00 %
29.04.2016 10:11 7,5 C 71 % 1019,8 hPa 0,0 l/m 9,9 km/h (2 Bft) O-NO 78 1 min 0,000 mm 2,3 UV-I 635 W/m 2,6 C 4,9 C 16,1 km/h (3 Bft) 95,65 %
29.04.2016 10:12 7,6 C 71 % 1019,8 hPa 0,0 l/m 9,1 km/h (2 Bft) NO 51 1 min 0,000 mm 2,3 UV-I 637 W/m 2,7 C 5,5 C 12,9 km/h (3 Bft) 100,00 %
29.04.2016 10:13 7,7 C 72 % 1019,8 hPa 0,0 l/m 8,9 km/h (2 Bft) O-NO 65 1 min 0,000 mm 2,3 UV-I 638 W/m 3,0 C 5,8 C 16,1 km/h (3 Bft) 91,30 %
29.04.2016 10:14 7,8 C 71 % 1019,8 hPa 0,0 l/m 8,2 km/h (2 Bft) NO 36 1 min 0,000 mm 2,3 UV-I 640 W/m 2,9 C 6,4 C 9,7 km/h (2 Bft) 100,00 %
29.04.2016 10:15 7,8 C 72 % 1019,8 hPa 0,0 l/m 5,3 km/h (1 Bft) NO 36 1 min 0,000 mm 2,3 UV-I 642 W/m 3,1 C 7,8 C 9,7 km/h (2 Bft) 96,15 %
29.04.2016 10:16 7,7 C 72 % 1019,8 hPa 0,0 l/m 4,4 km/h (1 Bft) O 84 1 min 0,000 mm 2,3 UV-I 645 W/m 3,0 C 7,7 C 6,4 km/h (2 Bft) 95,83 %
29.04.2016 10:17 7,7 C 73 % 1019,7 hPa 0,0 l/m 7,6 km/h (2 Bft) O-NO 65 1 min 0,000 mm 2,3 UV-I 647 W/m 3,2 C 6,7 C 9,7 km/h (2 Bft) 100,00 %
29.04.2016 10:18 7,8 C 72 % 1019,8 hPa 0,0 l/m 8,9 km/h (2 Bft) O-NO 73 1 min 0,000 mm 2,4 UV-I 648 W/m 3,1 C 5,9 C 14,5 km/h (3 Bft) 95,83 %
29.04.2016 10:19 7,8 C 73 % 1019,8 hPa 0,0 l/m 10,6 km/h (2 Bft) O 84 1 min 0,000 mm 2,4 UV-I 650 W/m 3,3 C 4,8 C 14,5 km/h (3 Bft) 100,00 %
29.04.2016 10:20 7,8 C 71 % 1019,7 hPa 0,0 l/m 12,1 km/h (2 Bft) O 83 1 min 0,000 mm 2,4 UV-I 651 W/m 2,9 C 3,9 C 16,1 km/h (3 Bft) 91,67 %
29.04.2016 10:21 7,8 C 71 % 1019,7 hPa 0,0 l/m 8,4 km/h (2 Bft) O 81 1 min 0,000 mm 2,4 UV-I 653 W/m 2,9 C 6,2 C 12,9 km/h (3 Bft) 92,86 %
29.04.2016 10:22 7,8 C 72 % 1019,7 hPa 0,0 l/m 3,8 km/h (1 Bft) SO 125 1 min 0,000 mm 2,4 UV-I 657 W/m 3,1 C 7,8 C 6,4 km/h (2 Bft) 93,33 %
29.04.2016 10:23 7,8 C 71 % 1019,7 hPa 0,0 l/m 5,4 km/h (1 Bft) O 79 1 min 0,000 mm 2,5 UV-I 661 W/m 2,9 C 7,8 C 12,9 km/h (3 Bft) 97,37 %
29.04.2016 10:24 7,8 C 72 % 1019,7 hPa 0,0 l/m 9,7 km/h (2 Bft) O 101 1 min 0,000 mm 2,5 UV-I 660 W/m 3,1 C 5,4 C 14,5 km/h (3 Bft) 100,00 %
29.04.2016 10:25 7,9 C 71 % 1019,7 hPa 0,0 l/m 10,0 km/h (2 Bft) O-NO 67 1 min 0,000 mm 2,5 UV-I 664 W/m 3,0 C 5,3 C 14,5 km/h (3 Bft) 95,65 %
29.04.2016 10:26 8,0 C 75 % 1019,7 hPa 0,0 l/m 8,6 km/h (2 Bft) NO 50 1 min 0,000 mm 2,5 UV-I 666 W/m 3,8 C 6,3 C 14,5 km/h (3 Bft) 95,83 %
29.04.2016 10:27 8,2 C 73 % 1019,7 hPa 0,0 l/m 12,3 km/h (3 Bft) O-NO 66 1 min 0,000 mm 2,5 UV-I 670 W/m 3,7 C 4,3 C 17,7 km/h (3 Bft) 95,65 %
29.04.2016 10:28 8,2 C 69 % 1019,7 hPa 0,0 l/m 11,9 km/h (2 Bft) O-NO 63 1 min 0,000 mm 2,6 UV-I 673 W/m 2,9 C 4,5 C 16,1 km/h (3 Bft) 100,00 %
29.04.2016 10:29 8,3 C 70 % 1019,7 hPa 0,0 l/m 7,2 km/h (2 Bft) O 86 1 min 0,000 mm 2,6 UV-I 675 W/m 3,2 C 7,7 C 12,9 km/h (3 Bft) 95,83 %
29.04.2016 10:30 8,2 C 70 % 1019,7 hPa 0,0 l/m 11,0 km/h (2 Bft) O-NO 72 1 min 0,000 mm 2,6 UV-I 677 W/m 3,1 C 5,0 C 14,5 km/h (3 Bft) 100,00 %
29.04.2016 10:31 8,2 C 70 % 1019,7 hPa 0,0 l/m 10,9 km/h (2 Bft) O-NO 61 1 min 0,000 mm 2,6 UV-I 678 W/m 3,1 C 5,1 C 14,5 km/h (3 Bft) 100,00 %
29.04.2016 10:32 8,2 C 71 % 1019,7 hPa 0,0 l/m 10,5 km/h (2 Bft) O-NO 68 1 min 0,000 mm 2,6 UV-I 681 W/m 3,3 C 5,3 C 16,1 km/h (3 Bft) 100,00 %
29.04.2016 10:33 8,3 C 71 % 1019,7 hPa 0,0 l/m 9,3 km/h (2 Bft) O 94 1 min 0,000 mm 2,6 UV-I 684 W/m 3,4 C 6,2 C 14,5 km/h (3 Bft) 100,00 %
29.04.2016 10:34 8,4 C 72 % 1019,7 hPa 0,0 l/m 12,8 km/h (3 Bft) O 80 1 min 0,000 mm 2,7 UV-I 687 W/m 3,7 C 4,3 C 16,1 km/h (3 Bft) 100,00 %
29.04.2016 10:35 8,4 C 70 % 1019,7 hPa 0,0 l/m 12,3 km/h (3 Bft) O 88 1 min 0,000 mm 2,7 UV-I 689 W/m 3,3 C 4,5 C 14,5 km/h (3 Bft) 100,00 %
29.04.2016 10:36 8,4 C 71 % 1019,7 hPa 0,0 l/m 7,5 km/h (2 Bft) O 92 1 min 0,000 mm 2,7 UV-I 690 W/m 3,5 C 7,5 C 12,9 km/h (3 Bft) 100,00 %
29.04.2016 10:37 8,3 C 70 % 1019,7 hPa 0,0 l/m 11,3 km/h (2 Bft) O 85 1 min 0,000 mm 2,7 UV-I 692 W/m 3,2 C 4,9 C 16,1 km/h (3 Bft) 100,00 %
29.04.2016 10:38 8,4 C 69 % 1019,8 hPa 0,0 l/m 13,9 km/h (3 Bft) O-NO 78 1 min 0,000 mm 2,7 UV-I 693 W/m 3,0 C 3,7 C 16,1 km/h (3 Bft) 100,00 %
29.04.2016 10:39 8,3 C 69 % 1019,8 hPa 0,0 l/m 9,2 km/h (2 Bft) O-NO 59 1 min 0,000 mm 2,7 UV-I 695 W/m 3,0 C 6,2 C 12,9 km/h (3 Bft) 95,83 %
29.04.2016 10:40 8,3 C 72 % 1019,7 hPa 0,0 l/m 7,8 km/h (2 Bft) O-NO 76 1 min 0,000 mm 2,8 UV-I 696 W/m 3,6 C 7,2 C 11,3 km/h (2 Bft) 100,00 %
29.04.2016 10:41 8,4 C 71 % 1019,8 hPa 0,0 l/m 7,4 km/h (2 Bft) O-SO 105 1 min 0,000 mm 2,8 UV-I 699 W/m 3,5 C 7,6 C 11,3 km/h (2 Bft) 100,00 %
29.04.2016 10:42 8,5 C 70 % 1019,7 hPa 0,0 l/m 7,8 km/h (2 Bft) O 80 1 min 0,000 mm 2,8 UV-I 702 W/m 3,3 C 7,4 C 14,5 km/h (3 Bft) 100,00 %
29.04.2016 10:43 8,6 C 71 % 1019,7 hPa 0,0 l/m 11,1 km/h (2 Bft) NO 53 1 min 0,000 mm 2,8 UV-I 703 W/m 3,6 C 5,4 C 16,1 km/h (3 Bft) 100,00 %
29.04.2016 10:44 8,7 C 70 % 1019,7 hPa 0,0 l/m 10,1 km/h (2 Bft) O-NO 62 1 min 0,000 mm 2,8 UV-I 706 W/m 3,5 C 6,1 C 14,5 km/h (3 Bft) 100,00 %
29.04.2016 10:45 8,8 C 67 % 1019,7 hPa 0,0 l/m 11,4 km/h (2 Bft) O-NO 59 1 min 0,000 mm 2,8 UV-I 707 W/m 3,0 C 5,5 C 14,5 km/h (3 Bft) 100,00 %
29.04.2016 10:46 8,8 C 68 % 1019,7 hPa 0,0 l/m 11,7 km/h (2 Bft) O-NO 73 1 min 0,000 mm 2,9 UV-I 708 W/m 3,2 C 5,3 C 16,1 km/h (3 Bft) 100,00 %
29.04.2016 10:47 8,8 C 68 % 1019,7 hPa 0,0 l/m 9,7 km/h (2 Bft) O-NO 71 1 min 0,000 mm 2,9 UV-I 713 W/m 3,2 C 6,5 C 14,5 km/h (3 Bft) 100,00 %
29.04.2016 10:48 8,7 C 67 % 1019,7 hPa 0,0 l/m 8,0 km/h (2 Bft) O-NO 74 1 min 0,000 mm 2,9 UV-I 715 W/m 2,9 C 7,5 C 14,5 km/h (3 Bft) 100,00 %
29.04.2016 10:49 8,7 C 69 % 1019,7 hPa 0,0 l/m 6,0 km/h (2 Bft) O 80 1 min 0,000 mm 2,9 UV-I 715 W/m 3,3 C 8,7 C 9,7 km/h (2 Bft) 100,00 %
29.04.2016 10:50 8,7 C 70 % 1019,7 hPa 0,0 l/m 10,2 km/h (2 Bft) O-NO 63 1 min 0,000 mm 2,9 UV-I 718 W/m 3,5 C 6,0 C 17,7 km/h (3 Bft) 100,00 %
29.04.2016 10:51 8,8 C 69 % 1019,7 hPa 0,0 l/m 11,4 km/h (2 Bft) NO 51 1 min 0,000 mm 2,9 UV-I 717 W/m 3,4 C 5,5 C 16,1 km/h (3 Bft) 100,00 %
29.04.2016 10:52 8,9 C 70 % 1019,6 hPa 0,0 l/m 8,6 km/h (2 Bft) O-NO 59 1 min 0,000 mm 2,9 UV-I 720 W/m 3,7 C 7,3 C 12,9 km/h (3 Bft) 100,00 %
29.04.2016 10:53 8,9 C 68 % 1019,7 hPa 0,0 l/m 7,0 km/h (2 Bft) NO 49 1 min 0,000 mm 2,9 UV-I 723 W/m 3,3 C 8,4 C 9,7 km/h (2 Bft) 95,65 %
29.04.2016 10:54 9,0 C 69 % 1019,7 hPa 0,0 l/m 9,4 km/h (2 Bft) O-NO 74 1 min 0,000 mm 3,0 UV-I 725 W/m 3,6 C 6,9 C 14,5 km/h (3 Bft) 100,00 %
29.04.2016 10:55 9,1 C 69 % 1019,7 hPa 0,0 l/m 7,0 km/h (2 Bft) O-NO 72 1 min 0,000 mm 3,0 UV-I 725 W/m 3,7 C 8,7 C 11,3 km/h (2 Bft) 96,15 %
29.04.2016 10:56 9,2 C 67 % 1019,7 hPa 0,0 l/m 11,4 km/h (2 Bft) O 81 1 min 0,000 mm 3,0 UV-I 728 W/m 3,4 C 5,9 C 16,1 km/h (3 Bft) 100,00 %
29.04.2016 10:57 9,2 C 66 % 1019,7 hPa 0,0 l/m 6,5 km/h (2 Bft) NO 36 1 min 0,000 mm 3,0 UV-I 729 W/m 3,2 C 9,2 C 12,9 km/h (3 Bft) 100,00 %
29.04.2016 10:58 9,2 C 69 % 1019,7 hPa 0,0 l/m 7,2 km/h (2 Bft) O-NO 65 1 min 0,000 mm 3,0 UV-I 730 W/m 3,8 C 8,6 C 16,1 km/h (3 Bft) 100,00 %
29.04.2016 10:59 9,1 C 66 % 1019,7 hPa 0,0 l/m 9,5 km/h (2 Bft) O-NO 76 1 min 0,000 mm 3,1 UV-I 733 W/m 3,1 C 6,9 C 14,5 km/h (3 Bft) 100,00 %
29.04.2016 11:00 9,2 C 67 % 1019,7 hPa 0,0 l/m 11,5 km/h (2 Bft) O-NO 70 1 min 0,330 mm 3,1 UV-I 735 W/m 3,4 C 5,9 C 14,5 km/h (3 Bft) 100,00 %
29.04.2016 11:02 9,2 C 67 % 1019,7 hPa 0,0 l/m 12,7 km/h (3 Bft) O-NO 61 2 min 0,000 mm 3,1 UV-I 739 W/m 3,4 C 5,2 C 17,7 km/h (3 Bft) 100,00 %
29.04.2016 11:03 9,3 C 70 % 1019,7 hPa 0,0 l/m 10,5 km/h (2 Bft) N-NO 24 1 min 0,000 mm 3,1 UV-I 740 W/m 4,1 C 6,5 C 14,5 km/h (3 Bft) 100,00 %
29.04.2016 11:04 9,4 C 71 % 1019,7 hPa 0,0 l/m 6,5 km/h (2 Bft) NO 38 1 min 0,000 mm 3,1 UV-I 742 W/m 4,4 C 9,4 C 9,7 km/h (2 Bft) 100,00 %
29.04.2016 11:05 9,4 C 68 % 1019,7 hPa 0,0 l/m 3,2 km/h (1 Bft) NO 34 1 min 0,000 mm 3,1 UV-I 744 W/m 3,8 C 9,4 C 8,0 km/h (2 Bft) 100,00 %
29.04.2016 11:06 9,6 C 73 % 1019,7 hPa 0,0 l/m 5,8 km/h (2 Bft) O 82 1 min 0,000 mm 3,2 UV-I 745 W/m 5,0 C 9,6 C 14,5 km/h (3 Bft) 100,00 %
29.04.2016 11:07 9,7 C 71 % 1019,7 hPa 0,0 l/m 14,3 km/h (3 Bft) O-NO 67 1 min 0,000 mm 3,2 UV-I 748 W/m 4,7 C 5,1 C 17,7 km/h (3 Bft) 100,00 %
29.04.2016 11:08 9,7 C 60 % 1019,7 hPa 0,0 l/m 9,5 km/h (2 Bft) NO 50 1 min 0,000 mm 3,2 UV-I 750 W/m 2,3 C 7,6 C 12,9 km/h (3 Bft) 100,00 %
29.04.2016 11:09 9,6 C 63 % 1019,6 hPa 0,0 l/m 10,9 km/h (2 Bft) O-NO 72 1 min 0,000 mm 3,2 UV-I 751 W/m 2,9 C 6,6 C 16,1 km/h (3 Bft) 100,00 %
29.04.2016 11:10 9,6 C 63 % 1019,6 hPa 0,0 l/m 13,3 km/h (3 Bft) O-NO 63 1 min 0,000 mm 3,2 UV-I 752 W/m 2,9 C 5,4 C 17,7 km/h (3 Bft) 100,00 %
29.04.2016 11:11 9,6 C 66 % 1019,5 hPa 0,0 l/m 11,9 km/h (2 Bft) NO 50 1 min 0,000 mm 3,2 UV-I 755 W/m 3,6 C 6,1 C 16,1 km/h (3 Bft) 100,00 %
29.04.2016 11:12 9,7 C 65 % 1019,5 hPa 0,0 l/m 11,1 km/h (2 Bft) O-NO 63 1 min 0,000 mm 3,3 UV-I 757 W/m 3,4 C 6,6 C 16,1 km/h (3 Bft) 100,00 %
29.04.2016 11:13 9,8 C 66 % 1019,5 hPa 0,0 l/m 11,3 km/h (2 Bft) O 82 1 min 0,000 mm 3,3 UV-I 758 W/m 3,8 C 6,6 C 16,1 km/h (3 Bft) 100,00 %
29.04.2016 11:14 9,8 C 65 % 1019,5 hPa 0,0 l/m 10,1 km/h (2 Bft) O-NO 67 1 min 0,000 mm 3,3 UV-I 759 W/m 3,5 C 7,3 C 12,9 km/h (3 Bft) 100,00 %
29.04.2016 11:15 9,8 C 64 % 1019,6 hPa 0,0 l/m 8,2 km/h (2 Bft) NO 49 1 min 0,000 mm 3,3 UV-I 760 W/m 3,3 C 8,5 C 12,9 km/h (3 Bft) 95,83 %
29.04.2016 11:16 9,8 C 66 % 1019,6 hPa 0,0 l/m 9,3 km/h (2 Bft) O-NO 69 1 min 0,000 mm 3,3 UV-I 765 W/m 3,8 C 7,8 C 16,1 km/h (3 Bft) 100,00 %
29.04.2016 11:17 9,9 C 67 % 1019,5 hPa 0,0 l/m 11,4 km/h (2 Bft) O 87 1 min 0,000 mm 3,3 UV-I 764 W/m 4,1 C 6,7 C 17,7 km/h (3 Bft) 100,00 %
29.04.2016 11:18 10,1 C 67 % 1019,5 hPa 0,0 l/m 11,4 km/h (2 Bft) O-NO 57 1 min 0,000 mm 3,3 UV-I 766 W/m 4,3 C 6,9 C 16,1 km/h (3 Bft) 100,00 %
29.04.2016 11:19 10,1 C 62 % 1019,5 hPa 0,0 l/m 8,4 km/h (2 Bft) N-NO 32 1 min 0,000 mm 3,4 UV-I 767 W/m 3,2 C 8,7 C 14,5 km/h (3 Bft) 100,00 %
29.04.2016 11:20 10,1 C 67 % 1019,5 hPa 0,0 l/m 7,2 km/h (2 Bft) NO 46 1 min 0,000 mm 3,4 UV-I 768 W/m 4,3 C 9,5 C 12,9 km/h (3 Bft) 100,00 %
29.04.2016 11:21 10,1 C 65 % 1019,5 hPa 0,0 l/m 7,3 km/h (2 Bft) O-NO 69 1 min 0,000 mm 3,4 UV-I 772 W/m 3,8 C 9,4 C 14,5 km/h (3 Bft) 100,00 %
29.04.2016 11:22 10,1 C 63 % 1019,5 hPa 0,0 l/m 9,8 km/h (2 Bft) O-NO 59 1 min 0,000 mm 3,4 UV-I 771 W/m 3,4 C 7,8 C 14,5 km/h (3 Bft) 100,00 %
29.04.2016 11:23 10,2 C 66 % 1019,5 hPa 0,0 l/m 11,8 km/h (2 Bft) NO 40 1 min 0,000 mm 3,4 UV-I 774 W/m 4,1 C 6,8 C 16,1 km/h (3 Bft) 100,00 %
29.04.2016 11:24 10,2 C 63 % 1019,5 hPa 0,0 l/m 8,0 km/h (2 Bft) O-NO 57 1 min 0,000 mm 3,4 UV-I 775 W/m 3,5 C 9,1 C 11,3 km/h (2 Bft) 100,00 %
29.04.2016 11:25 10,2 C 62 % 1019,5 hPa 0,0 l/m 10,4 km/h (2 Bft) O-NO 72 1 min 0,000 mm 3,4 UV-I 775 W/m 3,3 C 7,6 C 14,5 km/h (3 Bft) 100,00 %
29.04.2016 11:26 10,2 C 63 % 1019,5 hPa 0,0 l/m 8,8 km/h (2 Bft) NO 52 1 min 0,000 mm 3,5 UV-I 777 W/m 3,5 C 8,5 C 12,9 km/h (3 Bft) 100,00 %
29.04.2016 11:27 10,2 C 65 % 1019,4 hPa 0,0 l/m 9,1 km/h (2 Bft) NO 38 1 min 0,000 mm 3,5 UV-I 776 W/m 3,9 C 8,4 C 12,9 km/h (3 Bft) 100,00 %
29.04.2016 11:28 10,3 C 67 % 1019,5 hPa 0,0 l/m 11,0 km/h (2 Bft) O-NO 62 1 min 0,000 mm 3,5 UV-I 779 W/m 4,4 C 7,4 C 14,5 km/h (3 Bft) 100,00 %
29.04.2016 11:29 10,3 C 68 % 1019,4 hPa 0,0 l/m 8,6 km/h (2 Bft) O-NO 62 1 min 0,000 mm 3,5 UV-I 781 W/m 4,7 C 8,8 C 12,9 km/h (3 Bft) 100,00 %
29.04.2016 11:30 10,3 C 66 % 1019,4 hPa 0,0 l/m 10,2 km/h (2 Bft) N-NO 15 1 min 0,000 mm 3,5 UV-I 783 W/m 4,2 C 7,8 C 16,1 km/h (3 Bft) 100,00 %
29.04.2016 11:31 10,5 C 62 % 1019,4 hPa 0,0 l/m 11,3 km/h (2 Bft) O-NO 78 1 min 0,000 mm 3,5 UV-I 784 W/m 3,5 C 7,4 C 17,7 km/h (3 Bft) 100,00 %
29.04.2016 11:32 10,5 C 61 % 1019,4 hPa 0,0 l/m 10,9 km/h (2 Bft) O-NO 58 1 min 0,000 mm 3,5 UV-I 784 W/m 3,3 C 7,7 C 16,1 km/h (3 Bft) 100,00 %
29.04.2016 11:33 10,4 C 61 % 1019,4 hPa 0,0 l/m 9,5 km/h (2 Bft) O 83 1 min 0,000 mm 3,6 UV-I 788 W/m 3,2 C 8,3 C 14,5 km/h (3 Bft) 100,00 %
29.04.2016 11:34 10,4 C 61 % 1019,4 hPa 0,0 l/m 11,6 km/h (2 Bft) O-NO 65 1 min 0,000 mm 3,6 UV-I 787 W/m 3,2 C 7,2 C 14,5 km/h (3 Bft) 100,00 %
29.04.2016 11:35 10,5 C 61 % 1019,4 hPa 0,0 l/m 10,6 km/h (2 Bft) O-NO 58 1 min 0,000 mm 3,6 UV-I 789 W/m 3,3 C 7,8 C 14,5 km/h (3 Bft) 100,00 %
29.04.2016 11:36 10,6 C 62 % 1019,4 hPa 0,0 l/m 11,3 km/h (2 Bft) NO 54 1 min 0,000 mm 3,6 UV-I 791 W/m 3,6 C 7,6 C 16,1 km/h (3 Bft) 100,00 %
29.04.2016 11:37 10,6 C 64 % 1019,4 hPa 0,0 l/m 7,0 km/h (2 Bft) NO 51 1 min 0,000 mm 3,6 UV-I 790 W/m 4,1 C 10,2 C 9,7 km/h (2 Bft) 100,00 %
29.04.2016 11:38 10,7 C 65 % 1019,4 hPa 0,0 l/m 10,1 km/h (2 Bft) O 95 1 min 0,000 mm 3,6 UV-I 791 W/m 4,4 C 8,3 C 14,5 km/h (3 Bft) 100,00 %
29.04.2016 11:39 10,7 C 61 % 1019,4 hPa 0,0 l/m 11,3 km/h (2 Bft) N-NO 33 1 min 0,000 mm 3,6 UV-I 793 W/m 3,5 C 7,7 C 16,1 km/h (3 Bft) 95,65 %
29.04.2016 11:40 10,7 C 62 % 1019,4 hPa 0,0 l/m 7,7 km/h (2 Bft) O-NO 63 1 min 0,000 mm 3,6 UV-I 796 W/m 3,7 C 9,8 C 9,7 km/h (2 Bft) 95,83 %
29.04.2016 11:41 10,7 C 62 % 1019,4 hPa 0,0 l/m 3,1 km/h (1 Bft) NO 37 1 min 0,000 mm 3,6 UV-I 796 W/m 3,7 C 10,7 C 6,4 km/h (2 Bft) 100,00 %
29.04.2016 11:42 10,7 C 62 % 1019,4 hPa 0,0 l/m 9,3 km/h (2 Bft) O-NO 76 1 min 0,000 mm 3,7 UV-I 797 W/m 3,7 C 8,8 C 12,9 km/h (3 Bft) 100,00 %
29.04.2016 11:43 10,8 C 63 % 1019,3 hPa 0,0 l/m 9,5 km/h (2 Bft) O-NO 58 1 min 0,000 mm 3,7 UV-I 800 W/m 4,0 C 8,8 C 17,7 km/h (3 Bft) 95,83 %
29.04.2016 11:44 10,9 C 60 % 1019,3 hPa 0,0 l/m 15,0 km/h (3 Bft) NO 47 1 min 0,000 mm 3,7 UV-I 800 W/m 3,4 C 6,2 C 17,7 km/h (3 Bft) 92,31 %
29.04.2016 11:45 10,9 C 60 % 1019,3 hPa 0,0 l/m 8,3 km/h (2 Bft) O-NO 69 1 min 0,000 mm 3,7 UV-I 802 W/m 3,4 C 9,6 C 14,5 km/h (3 Bft) 100,00 %
29.04.2016 11:46 10,9 C 59 % 1019,3 hPa 0,0 l/m 12,0 km/h (2 Bft) NO 42 1 min 0,000 mm 3,7 UV-I 803 W/m 3,2 C 7,6 C 16,1 km/h (3 Bft) 96,15 %
29.04.2016 11:47 10,9 C 59 % 1019,4 hPa 0,0 l/m 10,5 km/h (2 Bft) O-NO 65 1 min 0,000 mm 3,7 UV-I 803 W/m 3,2 C 8,3 C 16,1 km/h (3 Bft) 100,00 %
29.04.2016 11:48 10,9 C 60 % 1019,4 hPa 0,0 l/m 9,7 km/h (2 Bft) O-NO 58 1 min 0,000 mm 3,7 UV-I 804 W/m 3,4 C 8,8 C 14,5 km/h (3 Bft) 95,65 %
29.04.2016 11:49 10,9 C 59 % 1019,3 hPa 0,0 l/m 10,9 km/h (2 Bft) O 97 1 min 0,000 mm 3,8 UV-I 806 W/m 3,2 C 8,1 C 16,1 km/h (3 Bft) 100,00 %
29.04.2016 11:50 11,0 C 62 % 1019,3 hPa 0,0 l/m 7,7 km/h (2 Bft) NO 50 1 min 0,000 mm 3,8 UV-I 809 W/m 4,0 C 10,1 C 12,9 km/h (3 Bft) 91,30 %
29.04.2016 11:51 11,1 C 63 % 1019,3 hPa 0,0 l/m 8,0 km/h (2 Bft) NO 53 1 min 0,000 mm 3,8 UV-I 811 W/m 4,3 C 10,0 C 9,7 km/h (2 Bft) 95,83 %
29.04.2016 11:52 11,3 C 64 % 1019,3 hPa 0,0 l/m 9,7 km/h (2 Bft) O-NO 75 1 min 0,000 mm 3,8 UV-I 814 W/m 4,7 C 9,2 C 16,1 km/h (3 Bft) 95,65 %
29.04.2016 11:53 11,4 C 61 % 1019,3 hPa 0,0 l/m 8,5 km/h (2 Bft) NO 42 1 min 0,000 mm 3,8 UV-I 813 W/m 4,2 C 10,0 C 12,9 km/h (3 Bft) 95,83 %
29.04.2016 11:54 11,6 C 62 % 1019,3 hPa 0,0 l/m 10,3 km/h (2 Bft) O-NO 59 1 min 0,000 mm 3,8 UV-I 814 W/m 4,6 C 9,2 C 16,1 km/h (3 Bft) 100,00 %
29.04.2016 11:55 11,6 C 55 % 1019,3 hPa 0,0 l/m 10,6 km/h (2 Bft) O 89 1 min 0,000 mm 3,8 UV-I 816 W/m 2,9 C 9,0 C 14,5 km/h (3 Bft) 95,83 %
29.04.2016 11:56 11,5 C 56 % 1019,3 hPa 0,0 l/m 8,6 km/h (2 Bft) O-NO 63 1 min 0,000 mm 3,9 UV-I 816 W/m 3,0 C 10,1 C 14,5 km/h (3 Bft) 100,00 %
29.04.2016 11:57 11,4 C 57 % 1019,3 hPa 0,0 l/m 13,7 km/h (3 Bft) O 81 1 min 0,000 mm 3,9 UV-I 817 W/m 3,2 C 7,4 C 17,7 km/h (3 Bft) 91,67 %
29.04.2016 11:58 11,4 C 55 % 1019,3 hPa 0,0 l/m 12,0 km/h (2 Bft) SO 130 1 min 0,000 mm 3,9 UV-I 817 W/m 2,7 C 8,1 C 16,1 km/h (3 Bft) 95,65 %
29.04.2016 11:59 11,4 C 56 % 1019,2 hPa 0,0 l/m 14,8 km/h (3 Bft) N-NO 26 1 min 0,000 mm 3,9 UV-I 817 W/m 2,9 C 6,9 C 19,3 km/h (3 Bft) 95,83 %
29.04.2016 12:00 11,6 C 63 % 1019,2 hPa 0,0 l/m 11,5 km/h (2 Bft) NO 45 1 min 0,406 mm 3,9 UV-I 818 W/m 4,8 C 8,6 C 16,1 km/h (3 Bft) 96,15 %
29.04.2016 12:02 11,6 C 59 % 1019,3 hPa 0,0 l/m 7,4 km/h (2 Bft) N-NO 15 2 min 0,000 mm 3,9 UV-I 815 W/m 3,9 C 10,9 C 12,9 km/h (3 Bft) 97,87 %
29.04.2016 12:03 11,6 C 62 % 1019,3 hPa 0,0 l/m 4,7 km/h (1 Bft) N-NW 345 1 min 0,000 mm 3,9 UV-I 815 W/m 4,6 C 11,6 C 9,7 km/h (2 Bft) 100,00 %
29.04.2016 12:04 11,7 C 64 % 1019,2 hPa 0,0 l/m 1,7 km/h (1 Bft) N-NO 15 1 min 0,000 mm 3,9 UV-I 820 W/m 5,1 C 11,7 C 4,8 km/h (1 Bft) 96,30 %
29.04.2016 12:05 11,8 C 65 % 1019,2 hPa 0,0 l/m 8,1 km/h (2 Bft) N-NO 32 1 min 0,000 mm 4,0 UV-I 822 W/m 5,4 C 10,7 C 14,5 km/h (3 Bft) 100,00 %
29.04.2016 12:06 12,0 C 65 % 1019,2 hPa 0,0 l/m 9,5 km/h (2 Bft) O-NO 65 1 min 0,000 mm 4,0 UV-I 823 W/m 5,6 C 10,1 C 14,5 km/h (3 Bft) 100,00 %
29.04.2016 12:07 12,0 C 58 % 1019,3 hPa 0,0 l/m 14,0 km/h (3 Bft) O-NO 65 1 min 0,000 mm 4,0 UV-I 823 W/m 4,0 C 8,0 C 20,9 km/h (4 Bft) 100,00 %
29.04.2016 12:08 12,0 C 55 % 1019,3 hPa 0,0 l/m 11,1 km/h (2 Bft) O-NO 66 1 min 0,000 mm 4,0 UV-I 826 W/m 3,2 C 9,2 C 14,5 km/h (3 Bft) 95,83 %
29.04.2016 12:09 12,0 C 55 % 1019,2 hPa 0,0 l/m 9,9 km/h (2 Bft) NO 34 1 min 0,000 mm 4,0 UV-I 826 W/m 3,2 C 9,9 C 16,1 km/h (3 Bft) 100,00 %
29.04.2016 12:10 11,9 C 54 % 1019,2 hPa 0,0 l/m 11,1 km/h (2 Bft) O-NO 68 1 min 0,000 mm 4,0 UV-I 828 W/m 2,9 C 9,1 C 16,1 km/h (3 Bft) 100,00 %
29.04.2016 12:11 11,9 C 49 % 1019,2 hPa 0,0 l/m 7,3 km/h (2 Bft) O 91 1 min 0,000 mm 4,0 UV-I 829 W/m 1,5 C 11,3 C 9,7 km/h (2 Bft) 100,00 %
29.04.2016 12:12 11,9 C 51 % 1019,1 hPa 0,0 l/m 8,7 km/h (2 Bft) O-NO 57 1 min 0,000 mm 4,0 UV-I 826 W/m 2,1 C 10,4 C 12,9 km/h (3 Bft) 100,00 %
29.04.2016 12:13 12,1 C 57 % 1019,1 hPa 0,0 l/m 13,5 km/h (3 Bft) NO 38 1 min 0,000 mm 4,0 UV-I 826 W/m 3,8 C 8,3 C 20,9 km/h (4 Bft) 100,00 %
29.04.2016 12:14 12,2 C 57 % 1019,1 hPa 0,0 l/m 12,1 km/h (2 Bft) NO 46 1 min 0,000 mm 4,0 UV-I 826 W/m 3,9 C 9,0 C 16,1 km/h (3 Bft) 100,00 %
29.04.2016 12:15 12,3 C 59 % 1019,1 hPa 0,0 l/m 12,4 km/h (3 Bft) N-NO 27 1 min 0,000 mm 4,0 UV-I 829 W/m 4,5 C 9,0 C 17,7 km/h (3 Bft) 100,00 %
29.04.2016 12:16 12,3 C 59 % 1019,1 hPa 0,0 l/m 12,1 km/h (2 Bft) NO 49 1 min 0,000 mm 4,0 UV-I 830 W/m 4,5 C 9,1 C 17,7 km/h (3 Bft) 95,83 %
29.04.2016 12:17 12,4 C 57 % 1019,1 hPa 0,0 l/m 16,4 km/h (3 Bft) NO 44 1 min 0,000 mm 4,0 UV-I 831 W/m 4,1 C 7,5 C 19,3 km/h (3 Bft) 100,00 %
29.04.2016 12:18 12,3 C 57 % 1019,1 hPa 0,0 l/m 10,4 km/h (2 Bft) O-NO 57 1 min 0,000 mm 4,1 UV-I 831 W/m 4,0 C 9,9 C 14,5 km/h (3 Bft) 100,00 %
29.04.2016 12:19 12,3 C 55 % 1019,1 hPa 0,0 l/m 11,6 km/h (2 Bft) NO 53 1 min 0,000 mm 4,1 UV-I 833 W/m 3,5 C 9,3 C 17,7 km/h (3 Bft) 100,00 %
29.04.2016 12:20 12,2 C 52 % 1019,1 hPa 0,0 l/m 13,7 km/h (3 Bft) O-NO 65 1 min 0,000 mm 4,1 UV-I 833 W/m 2,6 C 8,3 C 16,1 km/h (3 Bft) 100,00 %
29.04.2016 12:21 12,1 C 50 % 1019,1 hPa 0,0 l/m 13,2 km/h (3 Bft) O-NO 58 1 min 0,000 mm 4,1 UV-I 834 W/m 2,0 C 8,4 C 17,7 km/h (3 Bft) 100,00 %
29.04.2016 12:22 12,1 C 52 % 1019,1 hPa 0,0 l/m 5,8 km/h (2 Bft) NO 36 1 min 0,000 mm 4,1 UV-I 834 W/m 2,5 C 12,1 C 9,7 km/h (2 Bft) 100,00 %
29.04.2016 12:23 12,1 C 55 % 1019,1 hPa 0,0 l/m 9,6 km/h (2 Bft) N-NO 17 1 min 0,000 mm 4,1 UV-I 833 W/m 3,3 C 10,1 C 12,9 km/h (3 Bft) 100,00 %
29.04.2016 12:24 12,1 C 57 % 1019,1 hPa 0,0 l/m 4,8 km/h (1 Bft) N-NO 21 1 min 0,000 mm 4,1 UV-I 834 W/m 3,8 C 12,1 C 9,7 km/h (2 Bft) 100,00 %
29.04.2016 12:25 12,2 C 59 % 1019,0 hPa 0,0 l/m 13,1 km/h (3 Bft) NO 53 1 min 0,000 mm 4,1 UV-I 832 W/m 4,4 C 8,6 C 19,3 km/h (3 Bft) 100,00 %
29.04.2016 12:26 12,3 C 54 % 1019,0 hPa 0,0 l/m 13,4 km/h (3 Bft) N-NO 30 1 min 0,000 mm 4,1 UV-I 835 W/m 3,3 C 8,6 C 24,1 km/h (4 Bft) 95,65 %
29.04.2016 12:27 12,4 C 56 % 1019,0 hPa 0,0 l/m 16,2 km/h (3 Bft) NO 50 1 min 0,000 mm 4,1 UV-I 837 W/m 3,9 C 7,6 C 20,9 km/h (4 Bft) 100,00 %
29.04.2016 12:28 12,4 C 53 % 1019,0 hPa 0,0 l/m 12,3 km/h (3 Bft) O-NO 76 1 min 0,000 mm 4,1 UV-I 837 W/m 3,1 C 9,1 C 17,7 km/h (3 Bft) 100,00 %
29.04.2016 12:29 12,3 C 48 % 1019,0 hPa 0,0 l/m 10,8 km/h (2 Bft) O-NO 64 1 min 0,000 mm 4,1 UV-I 836 W/m 1,6 C 9,7 C 16,1 km/h (3 Bft) 100,00 %
29.04.2016 12:30 12,3 C 51 % 1019,0 hPa 0,0 l/m 9,1 km/h (2 Bft) N-NO 25 1 min 0,000 mm 4,1 UV-I 836 W/m 2,5 C 10,6 C 12,9 km/h (3 Bft) 95,65 %
29.04.2016 12:31 12,4 C 56 % 1019,0 hPa 0,0 l/m 9,3 km/h (2 Bft) O-NO 67 1 min 0,000 mm 4,1 UV-I 837 W/m 3,9 C 10,6 C 16,1 km/h (3 Bft) 95,83 %
29.04.2016 12:32 12,4 C 50 % 1018,9 hPa 0,0 l/m 8,4 km/h (2 Bft) O-NO 65 1 min 0,000 mm 4,1 UV-I 838 W/m 2,3 C 11,1 C 14,5 km/h (3 Bft) 100,00 %
29.04.2016 12:33 12,4 C 50 % 1019,0 hPa 0,0 l/m 10,7 km/h (2 Bft) NO 42 1 min 0,000 mm 4,1 UV-I 839 W/m 2,3 C 9,9 C 16,1 km/h (3 Bft) 95,83 %
29.04.2016 12:34 12,5 C 55 % 1019,0 hPa 0,0 l/m 12,5 km/h (3 Bft) O-NO 60 1 min 0,000 mm 4,2 UV-I 840 W/m 3,7 C 9,2 C 16,1 km/h (3 Bft) 100,00 %
29.04.2016 12:35 12,6 C 53 % 1018,9 hPa 0,0 l/m 12,3 km/h (3 Bft) N-NO 26 1 min 0,000 mm 4,2 UV-I 840 W/m 3,3 C 9,4 C 16,1 km/h (3 Bft) 100,00 %
29.04.2016 12:36 12,6 C 53 % 1018,9 hPa 0,0 l/m 6,8 km/h (2 Bft) N-NO 15 1 min 0,000 mm 4,2 UV-I 843 W/m 3,3 C 12,4 C 14,5 km/h (3 Bft) 100,00 %
29.04.2016 12:37 12,7 C 52 % 1018,9 hPa 0,0 l/m 13,7 km/h (3 Bft) NO 51 1 min 0,000 mm 4,2 UV-I 838 W/m 3,1 C 8,9 C 19,3 km/h (3 Bft) 100,00 %
29.04.2016 12:38 12,8 C 53 % 1018,9 hPa 0,0 l/m 14,1 km/h (3 Bft) NO 38 1 min 0,000 mm 4,2 UV-I 843 W/m 3,5 C 8,9 C 19,3 km/h (3 Bft) 91,30 %
29.04.2016 12:39 12,8 C 47 % 1018,9 hPa 0,0 l/m 14,8 km/h (3 Bft) NO 36 1 min 0,000 mm 4,2 UV-I 842 W/m 1,8 C 8,6 C 17,7 km/h (3 Bft) 100,00 %
29.04.2016 12:40 12,8 C 51 % 1018,9 hPa 0,0 l/m 6,4 km/h (2 Bft) N-NO 33 1 min 0,000 mm 4,2 UV-I 845 W/m 2,9 C 12,8 C 12,9 km/h (3 Bft) 100,00 %
29.04.2016 12:41 12,7 C 51 % 1018,9 hPa 0,0 l/m 5,4 km/h (1 Bft) NO 44 1 min 0,000 mm 4,2 UV-I 847 W/m 2,8 C 12,7 C 9,7 km/h (2 Bft) 100,00 %
29.04.2016 12:42 12,7 C 49 % 1018,9 hPa 0,0 l/m 12,3 km/h (3 Bft) O-SO 116 1 min 0,000 mm 4,3 UV-I 846 W/m 2,3 C 9,5 C 17,7 km/h (3 Bft) 100,00 %
29.04.2016 12:43 12,7 C 51 % 1018,9 hPa 0,0 l/m 10,5 km/h (2 Bft) O 90 1 min 0,000 mm 4,3 UV-I 844 W/m 2,8 C 10,3 C 16,1 km/h (3 Bft) 100,00 %
29.04.2016 12:44 12,7 C 49 % 1018,9 hPa 0,0 l/m 16,4 km/h (3 Bft) NO 53 1 min 0,000 mm 4,2 UV-I 837 W/m 2,3 C 7,9 C 19,3 km/h (3 Bft) 86,96 %
29.04.2016 12:45 12,7 C 49 % 1018,9 hPa 0,0 l/m 11,7 km/h (2 Bft) O-NO 71 1 min 0,000 mm 4,2 UV-I 840 W/m 2,3 C 9,8 C 16,1 km/h (3 Bft) 100,00 %
29.04.2016 12:46 12,6 C 46 % 1018,9 hPa 0,0 l/m 11,0 km/h (2 Bft) NO 42 1 min 0,000 mm 4,2 UV-I 845 W/m 1,3 C 10,0 C 17,7 km/h (3 Bft) 100,00 %
29.04.2016 12:47 12,6 C 46 % 1018,9 hPa 0,0 l/m 14,2 km/h (3 Bft) NO 51 1 min 0,000 mm 4,2 UV-I 845 W/m 1,3 C 8,6 C 17,7 km/h (3 Bft) 91,30 %
29.04.2016 12:48 12,6 C 49 % 1018,9 hPa 0,0 l/m 7,9 km/h (2 Bft) NO 56 1 min 0,000 mm 4,2 UV-I 846 W/m 2,2 C 11,6 C 12,9 km/h (3 Bft) 100,00 %
29.04.2016 12:49 12,6 C 52 % 1018,9 hPa 0,0 l/m 7,6 km/h (2 Bft) NO 49 1 min 0,000 mm 4,2 UV-I 846 W/m 3,0 C 11,8 C 12,9 km/h (3 Bft) 95,65 %
29.04.2016 12:50 12,8 C 52 % 1018,9 hPa 0,0 l/m 12,5 km/h (3 Bft) O-NO 62 1 min 0,000 mm 4,2 UV-I 845 W/m 3,2 C 9,5 C 19,3 km/h (3 Bft) 96,30 %
29.04.2016 12:51 12,8 C 49 % 1018,9 hPa 0,0 l/m 12,0 km/h (2 Bft) NO 48 1 min 0,000 mm 4,2 UV-I 846 W/m 2,4 C 9,7 C 20,9 km/h (4 Bft) 95,65 %
29.04.2016 12:52 12,8 C 49 % 1018,8 hPa 0,0 l/m 11,1 km/h (2 Bft) O-NO 65 1 min 0,000 mm 4,2 UV-I 845 W/m 2,4 C 10,1 C 17,7 km/h (3 Bft) 95,83 %
29.04.2016 12:53 12,8 C 48 % 1018,8 hPa 0,0 l/m 10,0 km/h (2 Bft) O-NO 62 1 min 0,000 mm 4,1 UV-I 848 W/m 2,1 C 10,7 C 14,5 km/h (3 Bft) 100,00 %
29.04.2016 12:54 12,8 C 46 % 1018,8 hPa 0,0 l/m 8,2 km/h (2 Bft) NO 34 1 min 0,000 mm 4,2 UV-I 847 W/m 1,5 C 11,7 C 11,3 km/h (2 Bft) 100,00 %
29.04.2016 12:55 12,7 C 50 % 1018,8 hPa 0,0 l/m 7,8 km/h (2 Bft) NO 56 1 min 0,000 mm 4,2 UV-I 849 W/m 2,6 C 11,8 C 11,3 km/h (2 Bft) 95,65 %
29.04.2016 12:56 12,8 C 49 % 1018,8 hPa 0,0 l/m 5,5 km/h (1 Bft) N-NO 16 1 min 0,000 mm 4,2 UV-I 847 W/m 2,4 C 12,8 C 11,3 km/h (2 Bft) 100,00 %
29.04.2016 12:57 12,8 C 50 % 1018,8 hPa 0,0 l/m 3,8 km/h (1 Bft) N-NO 17 1 min 0,000 mm 4,3 UV-I 848 W/m 2,6 C 12,8 C 6,4 km/h (2 Bft) 100,00 %
29.04.2016 12:58 12,9 C 58 % 1018,8 hPa 0,0 l/m 2,3 km/h (1 Bft) N-NO 28 1 min 0,000 mm 4,2 UV-I 848 W/m 4,8 C 12,9 C 8,0 km/h (2 Bft) 100,00 %
29.04.2016 12:59 13,1 C 58 % 1018,8 hPa 0,0 l/m 2,8 km/h (1 Bft) NO 43 1 min 0,000 mm 4,2 UV-I 847 W/m 5,0 C 13,1 C 8,0 km/h (2 Bft) 98,43 %
29.04.2016 13:00 13,2 C 57 % 1018,7 hPa 0,0 l/m 11,5 km/h (2 Bft) O-NO 64 1 min 0,458 mm 4,3 UV-I 847 W/m 4,9 C 10,4 C 16,1 km/h (3 Bft) 100,00 %
29.04.2016 13:02 13,2 C 47 % 1018,8 hPa 0,0 l/m 14,8 km/h (3 Bft) O-NO 73 2 min 0,000 mm 4,3 UV-I 848 W/m 2,1 C 9,1 C 22,5 km/h (4 Bft) 100,00 %
29.04.2016 13:03 13,1 C 45 % 1018,7 hPa 0,0 l/m 10,7 km/h (2 Bft) O-NO 61 1 min 0,000 mm 4,3 UV-I 851 W/m 1,4 C 10,7 C 16,1 km/h (3 Bft) 95,65 %
29.04.2016 13:04 13,1 C 48 % 1018,7 hPa 0,0 l/m 15,0 km/h (3 Bft) O-NO 65 1 min 0,000 mm 4,3 UV-I 824 W/m 2,3 C 8,9 C 19,3 km/h (3 Bft) 100,00 %
29.04.2016 13:05 13,1 C 45 % 1018,7 hPa 0,0 l/m 14,3 km/h (3 Bft) O 84 1 min 0,000 mm 4,2 UV-I 836 W/m 1,4 C 9,1 C 17,7 km/h (3 Bft) 100,00 %
29.04.2016 13:06 13,0 C 44 % 1018,7 hPa 0,0 l/m 8,9 km/h (2 Bft) NO 49 1 min 0,000 mm 4,2 UV-I 846 W/m 1,0 C 11,5 C 11,3 km/h (2 Bft) 100,00 %
29.04.2016 13:07 12,9 C 44 % 1018,7 hPa 0,0 l/m 5,7 km/h (1 Bft) N-NO 24 1 min 0,000 mm 4,2 UV-I 844 W/m 1,0 C 12,9 C 9,7 km/h (2 Bft) 100,00 %
29.04.2016 13:08 12,9 C 50 % 1018,7 hPa 0,0 l/m 11,1 km/h (2 Bft) NO 56 1 min 0,000 mm 4,2 UV-I 845 W/m 2,7 C 10,3 C 17,7 km/h (3 Bft) 100,00 %
29.04.2016 13:09 13,1 C 52 % 1018,7 hPa 0,0 l/m 11,5 km/h (2 Bft) NO 45 1 min 0,000 mm 4,2 UV-I 846 W/m 3,5 C 10,3 C 16,1 km/h (3 Bft) 100,00 %
29.04.2016 13:10 13,1 C 51 % 1018,6 hPa 0,0 l/m 6,5 km/h (2 Bft) N-NO 26 1 min 0,000 mm 4,2 UV-I 846 W/m 3,2 C 13,1 C 8,0 km/h (2 Bft) 100,00 %
29.04.2016 13:11 13,2 C 53 % 1018,6 hPa 0,0 l/m 9,5 km/h (2 Bft) O-NO 57 1 min 0,000 mm 4,2 UV-I 844 W/m 3,8 C 11,4 C 14,5 km/h (3 Bft) 100,00 %
29.04.2016 13:12 13,2 C 48 % 1018,6 hPa 0,0 l/m 9,3 km/h (2 Bft) NO 35 1 min 0,000 mm 4,2 UV-I 841 W/m 2,4 C 11,5 C 14,5 km/h (3 Bft) 96,15 %
29.04.2016 13:13 13,2 C 44 % 1018,6 hPa 0,0 l/m 7,0 km/h (2 Bft) O 90 1 min 0,000 mm 4,3 UV-I 847 W/m 1,2 C 12,8 C 11,3 km/h (2 Bft) 100,00 %
29.04.2016 13:14 13,2 C 50 % 1018,6 hPa 0,0 l/m 16,8 km/h (3 Bft) O-NO 57 1 min 0,000 mm 4,3 UV-I 847 W/m 3,0 C 8,4 C 22,5 km/h (4 Bft) 100,00 %
29.04.2016 13:15 13,2 C 48 % 1018,6 hPa 0,0 l/m 12,8 km/h (3 Bft) NO 52 1 min 0,000 mm 4,3 UV-I 849 W/m 2,4 C 9,9 C 20,9 km/h (4 Bft) 100,00 %
29.04.2016 13:16 13,1 C 44 % 1018,6 hPa 0,0 l/m 10,5 km/h (2 Bft) O-NO 73 1 min 0,000 mm 4,3 UV-I 850 W/m 1,1 C 10,8 C 16,1 km/h (3 Bft) 100,00 %
29.04.2016 13:17 13,0 C 45 % 1018,6 hPa 0,0 l/m 6,1 km/h (2 Bft) O-NO 63 1 min 0,000 mm 4,3 UV-I 849 W/m 1,4 C 13,0 C 9,7 km/h (2 Bft) 100,00 %
29.04.2016 13:18 13,1 C 51 % 1018,6 hPa 0,0 l/m 4,7 km/h (1 Bft) O-NO 65 1 min 0,000 mm 4,2 UV-I 849 W/m 3,2 C 13,1 C 8,0 km/h (2 Bft) 100,00 %
29.04.2016 13:19 13,1 C 47 % 1018,6 hPa 0,0 l/m 0,9 km/h (0 Bft) NO 37 1 min 0,000 mm 4,2 UV-I 848 W/m 2,0 C 13,1 C 3,2 km/h (1 Bft) 95,83 %
29.04.2016 13:20 13,2 C 46 % 1018,6 hPa 0,0 l/m 1,8 km/h (1 Bft) N 10 1 min 0,000 mm 4,3 UV-I 844 W/m 1,8 C 13,2 C 6,4 km/h (2 Bft) 100,00 %
29.04.2016 13:21 13,3 C 54 % 1018,6 hPa 0,0 l/m 5,2 km/h (1 Bft) N-NO 14 1 min 0,000 mm 4,2 UV-I 845 W/m 4,2 C 13,3 C 12,9 km/h (3 Bft) 95,83 %
29.04.2016 13:22 13,3 C 54 % 1018,6 hPa 0,0 l/m 4,9 km/h (1 Bft) N-NO 17 1 min 0,000 mm 4,3 UV-I 842 W/m 4,2 C 13,3 C 8,0 km/h (2 Bft) 100,00 %
29.04.2016 13:23 13,3 C 52 % 1018,5 hPa 0,0 l/m 9,3 km/h (2 Bft) NO 35 1 min 0,000 mm 4,3 UV-I 845 W/m 3,7 C 11,6 C 14,5 km/h (3 Bft) 95,83 %
29.04.2016 13:24 13,3 C 50 % 1018,5 hPa 0,0 l/m 11,1 km/h (2 Bft) N 5 1 min 0,000 mm 4,3 UV-I 842 W/m 3,1 C 10,7 C 17,7 km/h (3 Bft) 95,83 %
29.04.2016 13:25 13,4 C 50 % 1018,5 hPa 0,0 l/m 10,7 km/h (2 Bft) NO 42 1 min 0,000 mm 4,3 UV-I 844 W/m 3,2 C 11,0 C 16,1 km/h (3 Bft) 95,65 %
29.04.2016 13:26 13,6 C 52 % 1018,5 hPa 0,0 l/m 14,8 km/h (3 Bft) O-NO 73 1 min 0,000 mm 4,3 UV-I 844 W/m 3,9 C 9,6 C 20,9 km/h (4 Bft) 95,83 %
29.04.2016 13:27 13,7 C 47 % 1018,5 hPa 0,0 l/m 13,9 km/h (3 Bft) NO 44 1 min 0,000 mm 4,3 UV-I 750 W/m 2,6 C 10,0 C 19,3 km/h (3 Bft) 100,00 %
29.04.2016 13:28 13,7 C 45 % 1018,5 hPa 0,0 l/m 11,7 km/h (2 Bft) N-NO 21 1 min 0,000 mm 4,3 UV-I 664 W/m 2,0 C 10,9 C 19,3 km/h (3 Bft) 95,83 %
29.04.2016 13:29 13,6 C 51 % 1018,5 hPa 0,0 l/m 6,0 km/h (2 Bft) NO 38 1 min 0,000 mm 4,2 UV-I 806 W/m 3,7 C 13,6 C 9,7 km/h (2 Bft) 100,00 %
29.04.2016 13:30 13,7 C 50 % 1018,4 hPa 0,0 l/m 9,9 km/h (2 Bft) NO 49 1 min 0,000 mm 3,9 UV-I 844 W/m 3,5 C 11,7 C 14,5 km/h (3 Bft) 96,30 %
29.04.2016 13:31 13,8 C 52 % 1018,4 hPa 0,0 l/m 15,1 km/h (3 Bft) N 5 1 min 0,000 mm 4,3 UV-I 844 W/m 4,1 C 9,7 C 20,9 km/h (4 Bft) 100,00 %
29.04.2016 13:32 13,7 C 45 % 1018,4 hPa 0,0 l/m 4,8 km/h (1 Bft) N-NO 25 1 min 0,000 mm 4,3 UV-I 844 W/m 2,0 C 13,7 C 8,0 km/h (2 Bft) 96,30 %
29.04.2016 13:33 13,5 C 44 % 1018,4 hPa 0,0 l/m 1,9 km/h (1 Bft) N-NO 27 1 min 0,000 mm 4,2 UV-I 844 W/m 1,5 C 13,5 C 4,8 km/h (1 Bft) 100,00 %
29.04.2016 13:34 13,4 C 52 % 1018,4 hPa 0,0 l/m 12,3 km/h (3 Bft) N 5 1 min 0,000 mm 4,3 UV-I 844 W/m 3,7 C 10,3 C 19,3 km/h (3 Bft) 95,83 %
29.04.2016 13:35 13,6 C 50 % 1018,4 hPa 0,0 l/m 12,7 km/h (3 Bft) N-NO 31 1 min 0,000 mm 4,3 UV-I 846 W/m 3,4 C 10,4 C 17,7 km/h (3 Bft) 100,00 %
29.04.2016 13:36 13,6 C 47 % 1018,4 hPa 0,0 l/m 8,3 km/h (2 Bft) N 5 1 min 0,000 mm 4,3 UV-I 846 W/m 2,5 C 12,5 C 11,3 km/h (2 Bft) 95,83 %
29.04.2016 13:37 13,6 C 46 % 1018,4 hPa 0,0 l/m 7,6 km/h (2 Bft) O 86 1 min 0,000 mm 4,3 UV-I 844 W/m 2,2 C 12,9 C 12,9 km/h (3 Bft) 95,65 %
29.04.2016 13:38 13,4 C 42 % 1018,4 hPa 0,0 l/m 3,1 km/h (1 Bft) N-NO 22 1 min 0,000 mm 4,3 UV-I 841 W/m 0,8 C 13,4 C 8,0 km/h (2 Bft) 100,00 %
29.04.2016 13:39 13,5 C 45 % 1018,4 hPa 0,0 l/m 8,5 km/h (2 Bft) NO 42 1 min 0,000 mm 4,3 UV-I 842 W/m 1,8 C 12,2 C 16,1 km/h (3 Bft) 95,65 %
29.04.2016 13:40 13,6 C 48 % 1018,3 hPa 0,0 l/m 11,2 km/h (2 Bft) N-NO 22 1 min 0,000 mm 4,3 UV-I 842 W/m 2,8 C 11,0 C 17,7 km/h (3 Bft) 95,83 %
29.04.2016 13:41 13,8 C 50 % 1018,3 hPa 0,0 l/m 11,5 km/h (2 Bft) NO 34 1 min 0,000 mm 4,3 UV-I 840 W/m 3,6 C 11,1 C 19,3 km/h (3 Bft) 95,83 %
29.04.2016 13:42 13,8 C 48 % 1018,3 hPa 0,0 l/m 17,4 km/h (3 Bft) NO 34 1 min 0,000 mm 4,3 UV-I 837 W/m 3,0 C 8,9 C 22,5 km/h (4 Bft) 100,00 %
29.04.2016 13:43 13,9 C 47 % 1018,2 hPa 0,0 l/m 11,7 km/h (2 Bft) N 9 1 min 0,000 mm 4,3 UV-I 837 W/m 2,8 C 11,1 C 19,3 km/h (3 Bft) 95,83 %
29.04.2016 13:44 13,9 C 47 % 1018,3 hPa 0,0 l/m 7,2 km/h (2 Bft) NO 36 1 min 0,000 mm 4,3 UV-I 837 W/m 2,8 C 13,4 C 16,1 km/h (3 Bft) 100,00 %
29.04.2016 13:45 13,9 C 54 % 1018,3 hPa 0,0 l/m 12,7 km/h (3 Bft) O-NO 60 1 min 0,000 mm 4,3 UV-I 796 W/m 4,7 C 10,7 C 17,7 km/h (3 Bft) 95,83 %
29.04.2016 13:46 13,9 C 49 % 1018,2 hPa 0,0 l/m 15,5 km/h (3 Bft) N-NO 29 1 min 0,000 mm 4,2 UV-I 816 W/m 3,4 C 9,7 C 19,3 km/h (3 Bft) 95,65 %
29.04.2016 13:47 14,0 C 48 % 1018,2 hPa 0,0 l/m 15,0 km/h (3 Bft) N 11 1 min 0,000 mm 4,2 UV-I 837 W/m 3,2 C 10,0 C 22,5 km/h (4 Bft) 100,00 %
29.04.2016 13:48 13,9 C 48 % 1018,2 hPa 0,0 l/m 3,6 km/h (1 Bft) NO 38 1 min 0,000 mm 4,2 UV-I 836 W/m 3,1 C 13,9 C 11,3 km/h (2 Bft) 91,30 %
29.04.2016 13:49 13,9 C 47 % 1018,2 hPa 0,0 l/m 13,1 km/h (3 Bft) O-NO 59 1 min 0,000 mm 4,2 UV-I 834 W/m 2,8 C 10,6 C 17,7 km/h (3 Bft) 100,00 %
29.04.2016 13:50 13,9 C 47 % 1018,2 hPa 0,0 l/m 13,9 km/h (3 Bft) N 11 1 min 0,000 mm 4,2 UV-I 835 W/m 2,8 C 10,3 C 17,7 km/h (3 Bft) 91,30 %
29.04.2016 13:51 13,8 C 43 % 1018,2 hPa 0,0 l/m 2,3 km/h (1 Bft) N 5 1 min 0,000 mm 4,2 UV-I 836 W/m 1,4 C 13,8 C 8,0 km/h (2 Bft) 100,00 %
29.04.2016 13:52 13,7 C 48 % 1018,2 hPa 0,0 l/m 10,2 km/h (2 Bft) N-NO 31 1 min 0,000 mm 4,2 UV-I 834 W/m 2,9 C 11,6 C 16,1 km/h (3 Bft) 100,00 %
29.04.2016 13:53 13,8 C 50 % 1018,2 hPa 0,0 l/m 12,2 km/h (2 Bft) N-NO 27 1 min 0,000 mm 4,2 UV-I 833 W/m 3,6 C 10,8 C 17,7 km/h (3 Bft) 100,00 %
29.04.2016 13:54 13,8 C 45 % 1018,2 hPa 0,0 l/m 11,2 km/h (2 Bft) NO 38 1 min 0,000 mm 4,2 UV-I 831 W/m 2,1 C 11,2 C 16,1 km/h (3 Bft) 95,65 %
29.04.2016 13:55 13,8 C 48 % 1018,3 hPa 0,0 l/m 7,1 km/h (2 Bft) NO 40 1 min 0,000 mm 4,2 UV-I 834 W/m 3,0 C 13,4 C 16,1 km/h (3 Bft) 95,83 %
29.04.2016 13:56 13,8 C 41 % 1018,2 hPa 0,0 l/m 6,8 km/h (2 Bft) N-NO 24 1 min 0,000 mm 4,2 UV-I 833 W/m 0,8 C 13,6 C 12,9 km/h (3 Bft) 100,00 %
29.04.2016 13:57 13,8 C 46 % 1018,2 hPa 0,0 l/m 6,9 km/h (2 Bft) NO 41 1 min 0,000 mm 4,2 UV-I 831 W/m 2,4 C 13,5 C 9,7 km/h (2 Bft) 100,00 %
29.04.2016 13:58 13,7 C 44 % 1018,3 hPa 0,0 l/m 9,5 km/h (2 Bft) N-NO 25 1 min 0,000 mm 4,2 UV-I 833 W/m 1,7 C 11,9 C 17,7 km/h (3 Bft) 100,00 %
29.04.2016 13:59 13,8 C 48 % 1018,2 hPa 0,0 l/m 13,4 km/h (3 Bft) N 9 1 min 0,000 mm 4,2 UV-I 831 W/m 3,0 C 10,3 C 17,7 km/h (3 Bft) 100,00 %
29.04.2016 14:00 13,8 C 45 % 1018,2 hPa 0,0 l/m 4,8 km/h (1 Bft) N-NO 26 1 min 0,000 mm 4,2 UV-I 831 W/m 2,1 C 13,8 C 8,0 km/h (2 Bft) 95,65 %
29.04.2016 14:02 13,7 C 44 % 1018,2 hPa 0,0 l/m 3,8 km/h (1 Bft) N-NO 23 2 min 0,482 mm 4,2 UV-I 826 W/m 1,7 C 13,7 C 8,0 km/h (2 Bft) 100,00 %
29.04.2016 14:03 13,8 C 43 % 1018,2 hPa 0,0 l/m 2,7 km/h (1 Bft) W-NW 300 1 min 0,000 mm 4,1 UV-I 824 W/m 1,4 C 13,8 C 4,8 km/h (1 Bft) 100,00 %
29.04.2016 14:04 13,7 C 42 % 1018,2 hPa 0,0 l/m 5,2 km/h (1 Bft) NW 311 1 min 0,000 mm 4,1 UV-I 823 W/m 1,0 C 13,7 C 9,7 km/h (2 Bft) 100,00 %
29.04.2016 14:05 13,7 C 38 % 1018,2 hPa 0,0 l/m 2,9 km/h (1 Bft) W-NW 299 1 min 0,000 mm 4,1 UV-I 823 W/m -0,4 C 13,7 C 4,8 km/h (1 Bft) 100,00 %
29.04.2016 14:06 13,7 C 42 % 1018,2 hPa 0,0 l/m 3,3 km/h (1 Bft) O-NO 76 1 min 0,000 mm 4,1 UV-I 821 W/m 1,0 C 13,7 C 12,9 km/h (3 Bft) 100,00 %
29.04.2016 14:07 13,8 C 44 % 1018,2 hPa 0,0 l/m 11,5 km/h (2 Bft) O-NO 57 1 min 0,000 mm 4,1 UV-I 820 W/m 1,8 C 11,1 C 14,5 km/h (3 Bft) 91,30 %
29.04.2016 14:08 13,9 C 44 % 1018,2 hPa 0,0 l/m 14,1 km/h (3 Bft) N-NO 13 1 min 0,000 mm 4,1 UV-I 818 W/m 1,9 C 10,2 C 17,7 km/h (3 Bft) 95,83 %
29.04.2016 14:09 14,0 C 48 % 1018,1 hPa 0,0 l/m 7,6 km/h (2 Bft) N-NO 31 1 min 0,000 mm 4,1 UV-I 817 W/m 3,2 C 13,3 C 12,9 km/h (3 Bft) 100,00 %
29.04.2016 14:10 14,0 C 45 % 1018,2 hPa 0,0 l/m 5,5 km/h (1 Bft) NO 43 1 min 0,000 mm 4,1 UV-I 820 W/m 2,3 C 14,0 C 12,9 km/h (3 Bft) 100,00 %
29.04.2016 14:11 13,9 C 45 % 1018,1 hPa 0,0 l/m 4,3 km/h (1 Bft) N 5 1 min 0,000 mm 4,1 UV-I 819 W/m 2,2 C 13,9 C 12,9 km/h (3 Bft) 91,30 %
29.04.2016 14:12 13,8 C 40 % 1018,1 hPa 0,0 l/m 2,1 km/h (1 Bft) NW 325 1 min 0,000 mm 4,1 UV-I 818 W/m 0,4 C 13,8 C 4,8 km/h (1 Bft) 100,00 %
29.04.2016 14:13 13,8 C 43 % 1018,1 hPa 0,0 l/m 1,4 km/h (1 Bft) N 11 1 min 0,000 mm 4,0 UV-I 818 W/m 1,4 C 13,8 C 3,2 km/h (1 Bft) 100,00 %
29.04.2016 14:14 13,8 C 41 % 1018,0 hPa 0,0 l/m 2,0 km/h (1 Bft) N-NO 12 1 min 0,000 mm 4,0 UV-I 801 W/m 0,8 C 13,8 C 3,2 km/h (1 Bft) 100,00 %
29.04.2016 14:15 13,8 C 41 % 1018,1 hPa 0,0 l/m 2,1 km/h (1 Bft) NO 46 1 min 0,000 mm 4,1 UV-I 808 W/m 0,8 C 13,8 C 6,4 km/h (2 Bft) 100,00 %
29.04.2016 14:16 13,9 C 44 % 1018,1 hPa 0,0 l/m 8,4 km/h (2 Bft) O-NO 67 1 min 0,000 mm 4,1 UV-I 814 W/m 1,9 C 12,7 C 14,5 km/h (3 Bft) 100,00 %
29.04.2016 14:17 14,0 C 42 % 1018,1 hPa 0,0 l/m 3,4 km/h (1 Bft) O 91 1 min 0,000 mm 4,1 UV-I 810 W/m 1,3 C 14,0 C 9,7 km/h (2 Bft) 92,86 %
29.04.2016 14:18 14,1 C 42 % 1018,1 hPa 0,0 l/m 12,4 km/h (3 Bft) O-NO 57 1 min 0,000 mm 4,0 UV-I 803 W/m 1,4 C 11,1 C 19,3 km/h (3 Bft) 100,00 %
29.04.2016 14:19 14,2 C 48 % 1018,1 hPa 0,0 l/m 9,7 km/h (2 Bft) NO 49 1 min 0,000 mm 4,0 UV-I 813 W/m 3,4 C 12,4 C 11,3 km/h (2 Bft) 100,00 %
29.04.2016 14:20 14,2 C 41 % 1018,1 hPa 0,0 l/m 11,1 km/h (2 Bft) NO 48 1 min 0,000 mm 4,0 UV-I 811 W/m 1,1 C 11,7 C 16,1 km/h (3 Bft) 100,00 %
29.04.2016 14:21 14,2 C 40 % 1018,1 hPa 0,0 l/m 4,6 km/h (1 Bft) O-NO 66 1 min 0,000 mm 4,0 UV-I 810 W/m 0,8 C 14,2 C 6,4 km/h (2 Bft) 100,00 %
29.04.2016 14:22 14,3 C 44 % 1018,0 hPa 0,0 l/m 2,5 km/h (1 Bft) O-NO 63 1 min 0,000 mm 4,0 UV-I 809 W/m 2,2 C 14,3 C 6,4 km/h (2 Bft) 100,00 %
29.04.2016 14:23 14,3 C 44 % 1018,1 hPa 0,0 l/m 6,2 km/h (2 Bft) NO 42 1 min 0,000 mm 4,0 UV-I 805 W/m 2,2 C 14,3 C 8,0 km/h (2 Bft) 100,00 %
29.04.2016 14:24 14,4 C 47 % 1018,0 hPa 0,0 l/m 6,8 km/h (2 Bft) O-NO 59 1 min 0,000 mm 4,0 UV-I 805 W/m 3,2 C 14,2 C 9,7 km/h (2 Bft) 95,65 %
29.04.2016 14:25 14,4 C 41 % 1018,1 hPa 0,0 l/m 8,0 km/h (2 Bft) O-NO 59 1 min 0,000 mm 3,9 UV-I 801 W/m 1,3 C 13,5 C 11,3 km/h (2 Bft) 100,00 %
29.04.2016 14:26 14,4 C 37 % 1018,1 hPa 0,0 l/m 4,4 km/h (1 Bft) O-NO 64 1 min 0,000 mm 3,9 UV-I 800 W/m -0,1 C 14,4 C 6,4 km/h (2 Bft) 100,00 %
29.04.2016 14:27 14,4 C 44 % 1018,0 hPa 0,0 l/m 6,2 km/h (2 Bft) NO 44 1 min 0,000 mm 3,9 UV-I 800 W/m 2,3 C 14,4 C 8,0 km/h (2 Bft) 100,00 %
29.04.2016 14:28 14,4 C 44 % 1018,0 hPa 0,0 l/m 10,4 km/h (2 Bft) N-NO 28 1 min 0,000 mm 3,8 UV-I 800 W/m 2,3 C 12,3 C 16,1 km/h (3 Bft) 100,00 %
29.04.2016 14:29 14,5 C 45 % 1018,0 hPa 0,0 l/m 3,2 km/h (1 Bft) N 5 1 min 0,000 mm 3,9 UV-I 794 W/m 2,7 C 14,5 C 6,4 km/h (2 Bft) 100,00 %
29.04.2016 14:30 14,7 C 50 % 1018,0 hPa 0,0 l/m 3,7 km/h (1 Bft) N 355 1 min 0,000 mm 3,9 UV-I 799 W/m 4,4 C 14,7 C 6,4 km/h (2 Bft) 100,00 %
29.04.2016 14:31 14,7 C 46 % 1018,0 hPa 0,0 l/m 2,3 km/h (1 Bft) N 355 1 min 0,000 mm 3,8 UV-I 797 W/m 3,2 C 14,7 C 4,8 km/h (1 Bft) 100,00 %
29.04.2016 14:32 14,7 C 43 % 1017,9 hPa 0,0 l/m 3,3 km/h (1 Bft) N-NO 13 1 min 0,000 mm 3,8 UV-I 797 W/m 2,3 C 14,7 C 4,8 km/h (1 Bft) 100,00 %
29.04.2016 14:33 14,6 C 42 % 1017,9 hPa 0,0 l/m 6,4 km/h (2 Bft) N-NW 346 1 min 0,000 mm 3,8 UV-I 796 W/m 1,8 C 14,6 C 11,3 km/h (2 Bft) 95,83 %
29.04.2016 14:34 14,6 C 41 % 1017,9 hPa 0,0 l/m 2,3 km/h (1 Bft) N-NW 342 1 min 0,000 mm 3,8 UV-I 795 W/m 1,5 C 14,6 C 4,8 km/h (1 Bft) 100,00 %
29.04.2016 14:35 14,6 C 43 % 1017,9 hPa 0,0 l/m 4,6 km/h (1 Bft) NW 307 1 min 0,000 mm 3,8 UV-I 795 W/m 2,2 C 14,6 C 9,7 km/h (2 Bft) 100,00 %
29.04.2016 14:36 14,5 C 41 % 1017,9 hPa 0,0 l/m 4,4 km/h (1 Bft) NO 34 1 min 0,000 mm 3,8 UV-I 757 W/m 1,4 C 14,5 C 12,9 km/h (3 Bft) 100,00 %
29.04.2016 14:37 14,6 C 46 % 1017,9 hPa 0,0 l/m 5,7 km/h (1 Bft) NO 40 1 min 0,000 mm 3,8 UV-I 747 W/m 3,1 C 14,6 C 12,9 km/h (3 Bft) 100,00 %
29.04.2016 14:38 14,6 C 41 % 1018,0 hPa 0,0 l/m 5,5 km/h (1 Bft) NO 35 1 min 0,000 mm 3,8 UV-I 793 W/m 1,5 C 14,6 C 9,7 km/h (2 Bft) 100,00 %
29.04.2016 14:39 14,7 C 44 % 1018,0 hPa 0,0 l/m 7,7 km/h (2 Bft) O-NO 66 1 min 0,000 mm 3,7 UV-I 793 W/m 2,6 C 14,0 C 9,7 km/h (2 Bft) 100,00 %
29.04.2016 14:40 14,8 C 37 % 1017,9 hPa 0,0 l/m 6,4 km/h (2 Bft) NO 40 1 min 0,000 mm 3,7 UV-I 789 W/m 0,3 C 14,8 C 8,0 km/h (2 Bft) 100,00 %
29.04.2016 14:41 14,8 C 45 % 1017,9 hPa 0,0 l/m 9,0 km/h (2 Bft) NO 40 1 min 0,000 mm 3,7 UV-I 788 W/m 3,0 C 13,4 C 12,9 km/h (3 Bft) 95,83 %
29.04.2016 14:42 14,9 C 45 % 1017,9 hPa 0,0 l/m 11,7 km/h (2 Bft) O-NO 63 1 min 0,000 mm 3,7 UV-I 786 W/m 3,1 C 12,3 C 16,1 km/h (3 Bft) 95,83 %
29.04.2016 14:43 14,8 C 37 % 1017,9 hPa 0,0 l/m 10,7 km/h (2 Bft) N-NO 17 1 min 0,000 mm 3,7 UV-I 785 W/m 0,3 C 12,6 C 16,1 km/h (3 Bft) 100,00 %
29.04.2016 14:44 14,8 C 40 % 1017,9 hPa 0,0 l/m 7,1 km/h (2 Bft) NO 55 1 min 0,000 mm 3,6 UV-I 783 W/m 1,3 C 14,4 C 11,3 km/h (2 Bft) 100,00 %
29.04.2016 14:45 14,7 C 40 % 1017,9 hPa 0,0 l/m 2,6 km/h (1 Bft) N 11 1 min 0,000 mm 3,6 UV-I 746 W/m 1,2 C 14,7 C 8,0 km/h (2 Bft) 100,00 %
29.04.2016 14:46 14,8 C 46 % 1017,9 hPa 0,0 l/m 3,8 km/h (1 Bft) N 5 1 min 0,000 mm 3,6 UV-I 683 W/m 3,3 C 14,8 C 8,0 km/h (2 Bft) 100,00 %
29.04.2016 14:47 14,7 C 42 % 1017,9 hPa 0,0 l/m 5,3 km/h (1 Bft) N-NO 25 1 min 0,000 mm 3,6 UV-I 663 W/m 1,9 C 14,7 C 6,4 km/h (2 Bft) 100,00 %
29.04.2016 14:48 14,6 C 39 % 1017,9 hPa 0,0 l/m 2,5 km/h (1 Bft) N-NO 25 1 min 0,000 mm 3,6 UV-I 705 W/m 0,8 C 14,6 C 4,8 km/h (1 Bft) 100,00 %
29.04.2016 14:49 14,3 C 35 % 1017,9 hPa 0,0 l/m 1,8 km/h (1 Bft) N 9 1 min 0,000 mm 3,6 UV-I 774 W/m -0,9 C 14,3 C 3,2 km/h (1 Bft) 100,00 %
29.04.2016 14:50 14,2 C 38 % 1017,9 hPa 0,0 l/m 2,3 km/h (1 Bft) O-NO 60 1 min 0,000 mm 3,5 UV-I 772 W/m 0,1 C 14,2 C 4,8 km/h (1 Bft) 100,00 %
29.04.2016 14:51 14,1 C 40 % 1017,9 hPa 0,0 l/m 3,0 km/h (1 Bft) O 80 1 min 0,000 mm 3,6 UV-I 772 W/m 0,7 C 14,1 C 12,9 km/h (3 Bft) 100,00 %
29.04.2016 14:52 14,2 C 38 % 1017,9 hPa 0,0 l/m 9,3 km/h (2 Bft) NO 41 1 min 0,000 mm 3,5 UV-I 697 W/m 0,1 C 12,6 C 14,5 km/h (3 Bft) 100,00 %
29.04.2016 14:53 14,3 C 43 % 1017,9 hPa 0,0 l/m 8,4 km/h (2 Bft) O-NO 65 1 min 0,000 mm 3,5 UV-I 770 W/m 1,9 C 13,1 C 12,9 km/h (3 Bft) 95,65 %
29.04.2016 14:54 14,4 C 42 % 1017,9 hPa 0,0 l/m 13,1 km/h (3 Bft) N-NO 29 1 min 0,000 mm 3,5 UV-I 767 W/m 1,7 C 11,1 C 17,7 km/h (3 Bft) 100,00 %
29.04.2016 14:55 14,6 C 40 % 1017,8 hPa 0,0 l/m 11,9 km/h (2 Bft) O-NO 78 1 min 0,000 mm 3,5 UV-I 766 W/m 1,2 C 11,9 C 16,1 km/h (3 Bft) 100,00 %
29.04.2016 14:56 14,6 C 39 % 1017,9 hPa 0,0 l/m 10,6 km/h (2 Bft) NO 45 1 min 0,000 mm 3,4 UV-I 763 W/m 0,8 C 12,4 C 16,1 km/h (3 Bft) 100,00 %
29.04.2016 14:57 14,7 C 41 % 1017,9 hPa 0,0 l/m 9,0 km/h (2 Bft) N-NO 26 1 min 0,000 mm 3,4 UV-I 717 W/m 1,6 C 13,3 C 14,5 km/h (3 Bft) 96,15 %
29.04.2016 14:58 14,8 C 43 % 1017,9 hPa 0,0 l/m 5,8 km/h (2 Bft) NO 43 1 min 0,000 mm 3,4 UV-I 762 W/m 2,3 C 14,8 C 8,0 km/h (2 Bft) 100,00 %
29.04.2016 14:59 14,8 C 42 % 1017,8 hPa 0,0 l/m 10,1 km/h (2 Bft) O-NO 59 1 min 0,000 mm 3,4 UV-I 758 W/m 2,0 C 12,9 C 16,1 km/h (3 Bft) 91,30 %
29.04.2016 15:00 14,8 C 39 % 1017,8 hPa 0,0 l/m 10,0 km/h (2 Bft) O-NO 57 1 min 0,457 mm 3,4 UV-I 756 W/m 1,0 C 12,9 C 17,7 km/h (3 Bft) 100,00 %
29.04.2016 15:02 14,7 C 36 % 1017,8 hPa 0,0 l/m 6,6 km/h (2 Bft) O 92 2 min 0,000 mm 3,3 UV-I 706 W/m -0,2 C 14,6 C 11,3 km/h (2 Bft) 98,00 %
29.04.2016 15:03 14,6 C 39 % 1017,8 hPa 0,0 l/m 5,2 km/h (1 Bft) O-NO 57 1 min 0,000 mm 3,3 UV-I 626 W/m 0,8 C 14,6 C 6,4 km/h (2 Bft) 100,00 %
29.04.2016 15:04 14,7 C 42 % 1017,8 hPa 0,0 l/m 7,2 km/h (2 Bft) NO 42 1 min 0,000 mm 3,3 UV-I 622 W/m 1,9 C 14,2 C 9,7 km/h (2 Bft) 100,00 %
29.04.2016 15:05 14,8 C 45 % 1017,8 hPa 0,0 l/m 6,5 km/h (2 Bft) NO 54 1 min 0,000 mm 3,3 UV-I 599 W/m 3,0 C 14,8 C 11,3 km/h (2 Bft) 91,67 %
29.04.2016 15:06 14,8 C 40 % 1017,8 hPa 0,0 l/m 7,2 km/h (2 Bft) O-NO 71 1 min 0,000 mm 3,3 UV-I 662 W/m 1,3 C 14,3 C 9,7 km/h (2 Bft) 100,00 %
29.04.2016 15:07 14,8 C 37 % 1017,8 hPa 0,0 l/m 6,1 km/h (2 Bft) O-SO 103 1 min 0,000 mm 3,2 UV-I 746 W/m 0,3 C 14,8 C 9,7 km/h (2 Bft) 93,33 %
29.04.2016 15:08 14,7 C 37 % 1017,8 hPa 0,0 l/m 5,6 km/h (1 Bft) O 95 1 min 0,000 mm 3,2 UV-I 746 W/m 0,2 C 14,7 C 6,4 km/h (2 Bft) 100,00 %
29.04.2016 15:09 14,6 C 36 % 1017,8 hPa 0,0 l/m 6,2 km/h (2 Bft) O-NO 70 1 min 0,000 mm 3,2 UV-I 744 W/m -0,3 C 14,6 C 8,0 km/h (2 Bft) 95,83 %
29.04.2016 15:10 14,6 C 38 % 1017,8 hPa 0,0 l/m 5,5 km/h (1 Bft) O-NO 61 1 min 0,000 mm 3,2 UV-I 740 W/m 0,4 C 14,6 C 8,0 km/h (2 Bft) 95,65 %
29.04.2016 15:11 14,7 C 40 % 1017,8 hPa 0,0 l/m 3,2 km/h (1 Bft) NO 49 1 min 0,000 mm 3,1 UV-I 742 W/m 1,2 C 14,7 C 4,8 km/h (1 Bft) 95,83 %
29.04.2016 15:12 14,7 C 43 % 1017,8 hPa 0,0 l/m 4,7 km/h (1 Bft) NO 51 1 min 0,000 mm 3,2 UV-I 742 W/m 2,3 C 14,7 C 6,4 km/h (2 Bft) 95,65 %
29.04.2016 15:13 14,9 C 44 % 1017,8 hPa 0,0 l/m 6,7 km/h (2 Bft) NO 55 1 min 0,000 mm 3,2 UV-I 741 W/m 2,8 C 14,7 C 9,7 km/h (2 Bft) 100,00 %
29.04.2016 15:14 15,0 C 38 % 1017,8 hPa 0,0 l/m 10,9 km/h (2 Bft) O-NO 57 1 min 0,000 mm 3,2 UV-I 740 W/m 0,8 C 12,7 C 16,1 km/h (3 Bft) 95,65 %
29.04.2016 15:15 14,9 C 35 % 1017,8 hPa 0,0 l/m 6,2 km/h (2 Bft) SO 124 1 min 0,000 mm 3,1 UV-I 736 W/m -0,4 C 14,9 C 11,3 km/h (2 Bft) 100,00 %
29.04.2016 15:16 14,8 C 39 % 1017,8 hPa 0,0 l/m 5,8 km/h (2 Bft) O 88 1 min 0,000 mm 3,1 UV-I 735 W/m 1,0 C 14,8 C 8,0 km/h (2 Bft) 95,65 %
29.04.2016 15:17 14,7 C 34 % 1017,8 hPa 0,0 l/m 1,6 km/h (1 Bft) SO 130 1 min 0,000 mm 3,1 UV-I 725 W/m -1,0 C 14,7 C 4,8 km/h (1 Bft) 96,30 %
29.04.2016 15:18 14,7 C 37 % 1017,8 hPa 0,0 l/m 3,2 km/h (1 Bft) S 177 1 min 0,000 mm 3,1 UV-I 720 W/m 0,2 C 14,7 C 6,4 km/h (2 Bft) 91,30 %
29.04.2016 15:19 14,7 C 36 % 1017,7 hPa 0,0 l/m 7,2 km/h (2 Bft) S-SO 160 1 min 0,000 mm 3,1 UV-I 728 W/m -0,2 C 14,2 C 14,5 km/h (3 Bft) 95,83 %
29.04.2016 15:20 14,7 C 36 % 1017,8 hPa 0,0 l/m 3,7 km/h (1 Bft) O-NO 58 1 min 0,000 mm 3,1 UV-I 726 W/m -0,2 C 14,7 C 4,8 km/h (1 Bft) 100,00 %
29.04.2016 15:21 14,7 C 44 % 1017,8 hPa 0,0 l/m 3,8 km/h (1 Bft) N-NO 22 1 min 0,000 mm 3,0 UV-I 716 W/m 2,6 C 14,7 C 6,4 km/h (2 Bft) 91,67 %
29.04.2016 15:22 14,8 C 38 % 1017,7 hPa 0,0 l/m 5,9 km/h (2 Bft) O-NO 78 1 min 0,000 mm 3,0 UV-I 651 W/m 0,6 C 14,8 C 14,5 km/h (3 Bft) 100,00 %
29.04.2016 15:23 14,8 C 38 % 1017,7 hPa 0,0 l/m 3,7 km/h (1 Bft) NO 51 1 min 0,000 mm 3,0 UV-I 721 W/m 0,6 C 14,8 C 6,4 km/h (2 Bft) 95,83 %
29.04.2016 15:24 14,7 C 36 % 1017,7 hPa 0,0 l/m 8,5 km/h (2 Bft) O-NO 65 1 min 0,000 mm 3,0 UV-I 719 W/m -0,2 C 13,5 C 11,3 km/h (2 Bft) 100,00 %
29.04.2016 15:25 14,7 C 36 % 1017,7 hPa 0,0 l/m 6,6 km/h (2 Bft) NO 50 1 min 0,000 mm 3,0 UV-I 716 W/m -0,2 C 14,6 C 9,7 km/h (2 Bft) 95,65 %
29.04.2016 15:26 14,8 C 39 % 1017,7 hPa 0,0 l/m 5,4 km/h (1 Bft) O-NO 66 1 min 0,000 mm 2,9 UV-I 715 W/m 1,0 C 14,8 C 8,0 km/h (2 Bft) 95,83 %
29.04.2016 15:27 14,7 C 38 % 1017,8 hPa 0,0 l/m 2,8 km/h (1 Bft) O-SO 121 1 min 0,000 mm 2,9 UV-I 712 W/m 0,5 C 14,7 C 4,8 km/h (1 Bft) 100,00 %
29.04.2016 15:28 14,7 C 36 % 1017,7 hPa 0,0 l/m 2,7 km/h (1 Bft) S-SO 159 1 min 0,000 mm 2,9 UV-I 684 W/m -0,2 C 14,7 C 4,8 km/h (1 Bft) 100,00 %
29.04.2016 15:29 14,5 C 35 % 1017,7 hPa 0,0 l/m 4,3 km/h (1 Bft) NO 39 1 min 0,000 mm 2,9 UV-I 620 W/m -0,8 C 14,5 C 8,0 km/h (2 Bft) 95,65 %
29.04.2016 15:30 14,5 C 37 % 1017,7 hPa 0,0 l/m 6,3 km/h (2 Bft) NO 47 1 min 0,000 mm 2,9 UV-I 672 W/m -0,0 C 14,5 C 9,7 km/h (2 Bft) 95,83 %
29.04.2016 15:31 14,5 C 40 % 1017,7 hPa 0,0 l/m 2,0 km/h (1 Bft) N-NO 29 1 min 0,000 mm 2,9 UV-I 704 W/m 1,1 C 14,5 C 4,8 km/h (1 Bft) 100,00 %
29.04.2016 15:32 14,7 C 39 % 1017,7 hPa 0,0 l/m 0,8 km/h (0 Bft) N-NO 29 1 min 0,000 mm 2,8 UV-I 703 W/m 0,9 C 14,7 C 1,6 km/h (1 Bft) 95,83 %
29.04.2016 15:33 14,7 C 38 % 1017,7 hPa 0,0 l/m 4,0 km/h (1 Bft) N-NO 20 1 min 0,000 mm 2,8 UV-I 703 W/m 0,5 C 14,7 C 8,0 km/h (2 Bft) 100,00 %
29.04.2016 15:34 14,7 C 41 % 1017,7 hPa 0,0 l/m 3,5 km/h (1 Bft) N-NO 14 1 min 0,000 mm 2,8 UV-I 701 W/m 1,6 C 14,7 C 6,4 km/h (2 Bft) 95,83 %
29.04.2016 15:35 14,8 C 44 % 1017,7 hPa 0,0 l/m 2,0 km/h (1 Bft) W-NW 295 1 min 0,000 mm 2,8 UV-I 695 W/m 2,7 C 14,8 C 3,2 km/h (1 Bft) 100,00 %
29.04.2016 15:36 14,8 C 43 % 1017,7 hPa 0,0 l/m 5,6 km/h (1 Bft) N-NO 16 1 min 0,000 mm 2,8 UV-I 695 W/m 2,3 C 14,8 C 9,7 km/h (2 Bft) 95,83 %
29.04.2016 15:37 14,9 C 44 % 1017,7 hPa 0,0 l/m 7,3 km/h (2 Bft) N-NO 32 1 min 0,000 mm 2,8 UV-I 694 W/m 2,8 C 14,4 C 9,7 km/h (2 Bft) 100,00 %
29.04.2016 15:38 15,0 C 42 % 1017,7 hPa 0,0 l/m 10,1 km/h (2 Bft) NO 35 1 min 0,000 mm 2,8 UV-I 686 W/m 2,2 C 13,1 C 14,5 km/h (3 Bft) 100,00 %
29.04.2016 15:39 15,0 C 44 % 1017,7 hPa 0,0 l/m 7,9 km/h (2 Bft) N-NO 31 1 min 0,000 mm 2,8 UV-I 689 W/m 2,9 C 14,2 C 12,9 km/h (3 Bft) 100,00 %
29.04.2016 15:40 15,0 C 40 % 1017,8 hPa 0,0 l/m 5,4 km/h (1 Bft) N-NO 20 1 min 0,000 mm 2,7 UV-I 689 W/m 1,5 C 15,0 C 8,0 km/h (2 Bft) 100,00 %
29.04.2016 15:41 14,9 C 41 % 1017,8 hPa 0,0 l/m 3,5 km/h (1 Bft) N-NO 17 1 min 0,000 mm 2,7 UV-I 688 W/m 1,8 C 14,9 C 6,4 km/h (2 Bft) 100,00 %
29.04.2016 15:42 14,9 C 43 % 1017,8 hPa 0,0 l/m 7,6 km/h (2 Bft) NO 35 1 min 0,000 mm 2,7 UV-I 680 W/m 2,4 C 14,2 C 12,9 km/h (3 Bft) 100,00 %
29.04.2016 15:43 14,9 C 39 % 1017,8 hPa 0,0 l/m 6,9 km/h (2 Bft) NO 49 1 min 0,000 mm 2,7 UV-I 681 W/m 1,1 C 14,6 C 9,7 km/h (2 Bft) 96,30 %
29.04.2016 15:44 14,8 C 36 % 1017,8 hPa 0,0 l/m 3,2 km/h (1 Bft) NO 42 1 min 0,000 mm 2,7 UV-I 681 W/m -0,1 C 14,8 C 4,8 km/h (1 Bft) 100,00 %
29.04.2016 15:45 14,7 C 35 % 1017,8 hPa 0,0 l/m 1,0 km/h (0 Bft) NO 42 1 min 0,000 mm 2,7 UV-I 680 W/m -0,6 C 14,7 C 1,6 km/h (1 Bft) 100,00 %
29.04.2016 15:46 14,6 C 35 % 1017,7 hPa 0,0 l/m 1,3 km/h (1 Bft) NO 42 1 min 0,000 mm 2,6 UV-I 676 W/m -0,7 C 14,6 C 3,2 km/h (1 Bft) 100,00 %
29.04.2016 15:47 14,6 C 36 % 1017,7 hPa 0,0 l/m 1,1 km/h (1 Bft) NO 42 1 min 0,000 mm 2,6 UV-I 674 W/m -0,3 C 14,6 C 1,6 km/h (1 Bft) 100,00 %
29.04.2016 15:48 14,6 C 39 % 1017,7 hPa 0,0 l/m 2,7 km/h (1 Bft) SW 215 1 min 0,000 mm 2,3 UV-I 673 W/m 0,8 C 14,6 C 4,8 km/h (1 Bft) 100,00 %
29.04.2016 15:49 14,7 C 40 % 1017,6 hPa 0,0 l/m 3,2 km/h (1 Bft) N-NO 13 1 min 0,000 mm 2,0 UV-I 671 W/m 1,2 C 14,7 C 4,8 km/h (1 Bft) 100,00 %
29.04.2016 15:50 14,7 C 40 % 1017,7 hPa 0,0 l/m 4,6 km/h (1 Bft) N-NO 22 1 min 0,000 mm 2,5 UV-I 668 W/m 1,2 C 14,7 C 8,0 km/h (2 Bft) 100,00 %
29.04.2016 15:51 14,8 C 43 % 1017,6 hPa 0,0 l/m 3,3 km/h (1 Bft) N 355 1 min 0,000 mm 2,6 UV-I 668 W/m 2,3 C 14,8 C 4,8 km/h (1 Bft) 100,00 %
29.04.2016 15:52 14,9 C 42 % 1017,6 hPa 0,0 l/m 4,2 km/h (1 Bft) NO 55 1 min 0,000 mm 2,6 UV-I 667 W/m 2,1 C 14,9 C 9,7 km/h (2 Bft) 95,65 %
29.04.2016 15:53 15,1 C 42 % 1017,6 hPa 0,0 l/m 7,6 km/h (2 Bft) O-NO 61 1 min 0,000 mm 2,5 UV-I 663 W/m 2,3 C 14,4 C 9,7 km/h (2 Bft) 100,00 %
29.04.2016 15:54 15,1 C 37 % 1017,6 hPa 0,0 l/m 9,3 km/h (2 Bft) NO 46 1 min 0,000 mm 2,5 UV-I 661 W/m 0,5 C 13,6 C 12,9 km/h (3 Bft) 100,00 %
29.04.2016 15:55 15,1 C 41 % 1017,5 hPa 0,0 l/m 8,6 km/h (2 Bft) O 90 1 min 0,000 mm 2,5 UV-I 658 W/m 2,0 C 13,9 C 12,9 km/h (3 Bft) 95,83 %
29.04.2016 15:56 15,2 C 37 % 1017,6 hPa 0,0 l/m 9,5 km/h (2 Bft) NO 42 1 min 0,000 mm 2,5 UV-I 654 W/m 0,6 C 13,6 C 12,9 km/h (3 Bft) 100,00 %
29.04.2016 15:57 15,3 C 41 % 1017,6 hPa 0,0 l/m 8,1 km/h (2 Bft) O-NO 64 1 min 0,000 mm 2,4 UV-I 653 W/m 2,1 C 14,4 C 12,9 km/h (3 Bft) 100,00 %
29.04.2016 15:58 15,2 C 35 % 1017,6 hPa 0,0 l/m 5,7 km/h (1 Bft) O-NO 58 1 min 0,000 mm 2,4 UV-I 649 W/m -0,2 C 15,2 C 8,0 km/h (2 Bft) 95,65 %
29.04.2016 15:59 15,1 C 37 % 1017,6 hPa 0,0 l/m 4,6 km/h (1 Bft) N-NO 28 1 min 0,000 mm 2,4 UV-I 648 W/m 0,5 C 15,1 C 9,7 km/h (2 Bft) 100,00 %
29.04.2016 16:00 14,9 C 37 % 1017,5 hPa 0,0 l/m 4,4 km/h (1 Bft) N-NO 33 1 min 0,000 mm 2,4 UV-I 646 W/m 0,3 C 14,9 C 11,3 km/h (2 Bft) 100,00 %
29.04.2016 16:02 14,8 C 37 % 1017,6 hPa 0,0 l/m 6,6 km/h (2 Bft) O-NO 63 2 min 0,407 mm 2,3 UV-I 642 W/m 0,3 C 14,7 C 12,9 km/h (3 Bft) 97,92 %
29.04.2016 16:03 14,8 C 36 % 1017,6 hPa 0,0 l/m 7,6 km/h (2 Bft) O-NO 69 1 min 0,000 mm 2,3 UV-I 638 W/m -0,1 C 14,1 C 11,3 km/h (2 Bft) 100,00 %
29.04.2016 16:04 14,8 C 37 % 1017,6 hPa 0,0 l/m 3,3 km/h (1 Bft) O-SO 107 1 min 0,000 mm 2,3 UV-I 636 W/m 0,3 C 14,8 C 4,8 km/h (1 Bft) 92,59 %
29.04.2016 16:05 14,8 C 36 % 1017,5 hPa 0,0 l/m 3,3 km/h (1 Bft) O-SO 111 1 min 0,000 mm 2,3 UV-I 634 W/m -0,1 C 14,8 C 11,3 km/h (2 Bft) 95,65 %
29.04.2016 16:06 14,8 C 38 % 1017,5 hPa 0,0 l/m 4,6 km/h (1 Bft) O-NO 59 1 min 0,000 mm 2,3 UV-I 615 W/m 0,6 C 14,8 C 9,7 km/h (2 Bft) 100,00 %
29.04.2016 16:07 14,8 C 40 % 1017,5 hPa 0,0 l/m 5,3 km/h (1 Bft) N-NO 30 1 min 0,000 mm 2,2 UV-I 623 W/m 1,3 C 14,8 C 6,4 km/h (2 Bft) 100,00 %
29.04.2016 16:08 14,9 C 42 % 1017,5 hPa 0,0 l/m 6,0 km/h (2 Bft) N-NO 30 1 min 0,000 mm 2,0 UV-I 626 W/m 2,1 C 14,9 C 8,0 km/h (2 Bft) 95,83 %
29.04.2016 16:09 14,9 C 39 % 1017,5 hPa 0,0 l/m 1,4 km/h (1 Bft) NO 39 1 min 0,000 mm 2,2 UV-I 624 W/m 1,1 C 14,9 C 4,8 km/h (1 Bft) 95,65 %
29.04.2016 16:10 15,1 C 44 % 1017,5 hPa 0,0 l/m 7,2 km/h (2 Bft) N 5 1 min 0,000 mm 2,2 UV-I 623 W/m 2,9 C 14,6 C 11,3 km/h (2 Bft) 100,00 %
29.04.2016 16:11 15,1 C 44 % 1017,5 hPa 0,0 l/m 4,5 km/h (1 Bft) N-NO 17 1 min 0,000 mm 2,2 UV-I 620 W/m 2,9 C 15,1 C 6,4 km/h (2 Bft) 95,65 %
29.04.2016 16:12 15,0 C 43 % 1017,5 hPa 0,0 l/m 4,2 km/h (1 Bft) NO 43 1 min 0,000 mm 2,2 UV-I 618 W/m 2,5 C 15,0 C 6,4 km/h (2 Bft) 95,83 %
29.04.2016 16:13 15,2 C 46 % 1017,5 hPa 0,0 l/m 9,8 km/h (2 Bft) N-NO 17 1 min 0,000 mm 2,2 UV-I 617 W/m 3,7 C 13,4 C 12,9 km/h (3 Bft) 95,65 %
29.04.2016 16:14 15,2 C 41 % 1017,5 hPa 0,0 l/m 3,6 km/h (1 Bft) N-NO 22 1 min 0,000 mm 2,2 UV-I 615 W/m 2,0 C 15,2 C 4,8 km/h (1 Bft) 100,00 %
29.04.2016 16:15 15,2 C 38 % 1017,5 hPa 0,0 l/m 5,1 km/h (1 Bft) N-NO 26 1 min 0,000 mm 2,1 UV-I 612 W/m 1,0 C 15,2 C 8,0 km/h (2 Bft) 100,00 %
29.04.2016 16:16 15,1 C 40 % 1017,5 hPa 0,0 l/m 7,6 km/h (2 Bft) N-NO 12 1 min 0,000 mm 2,0 UV-I 609 W/m 1,6 C 14,4 C 11,3 km/h (2 Bft) 95,65 %
29.04.2016 16:17 15,1 C 43 % 1017,5 hPa 0,0 l/m 3,1 km/h (1 Bft) N-NO 23 1 min 0,000 mm 1,9 UV-I 607 W/m 2,6 C 15,1 C 6,4 km/h (2 Bft) 100,00 %
29.04.2016 16:18 15,0 C 44 % 1017,5 hPa 0,0 l/m 3,6 km/h (1 Bft) N-NO 21 1 min 0,000 mm 2,1 UV-I 604 W/m 2,9 C 15,0 C 6,4 km/h (2 Bft) 100,00 %
29.04.2016 16:19 15,0 C 40 % 1017,5 hPa 0,0 l/m 2,4 km/h (1 Bft) N-NO 13 1 min 0,000 mm 2,1 UV-I 601 W/m 1,5 C 15,0 C 4,8 km/h (1 Bft) 100,00 %
29.04.2016 16:20 15,0 C 39 % 1017,5 hPa 0,0 l/m 3,2 km/h (1 Bft) O-NO 65 1 min 0,000 mm 2,1 UV-I 599 W/m 1,2 C 15,0 C 6,4 km/h (2 Bft) 100,00 %
29.04.2016 16:21 14,9 C 36 % 1017,5 hPa 0,0 l/m 1,7 km/h (1 Bft) O-SO 105 1 min 0,000 mm 2,1 UV-I 598 W/m -0,0 C 14,9 C 3,2 km/h (1 Bft) 95,83 %
29.04.2016 16:22 14,9 C 36 % 1017,5 hPa 0,0 l/m 3,6 km/h (1 Bft) SW 222 1 min 0,000 mm 2,1 UV-I 596 W/m -0,0 C 14,9 C 4,8 km/h (1 Bft) 95,65 %
29.04.2016 16:23 14,8 C 38 % 1017,5 hPa 0,0 l/m 5,1 km/h (1 Bft) W-SW 251 1 min 0,000 mm 2,1 UV-I 595 W/m 0,6 C 14,8 C 6,4 km/h (2 Bft) 95,83 %
29.04.2016 16:24 14,8 C 36 % 1017,5 hPa 0,0 l/m 4,4 km/h (1 Bft) W 261 1 min 0,000 mm 2,0 UV-I 592 W/m -0,1 C 14,8 C 4,8 km/h (1 Bft) 100,00 %
29.04.2016 16:25 14,8 C 36 % 1017,5 hPa 0,0 l/m 1,3 km/h (1 Bft) W 261 1 min 0,000 mm 2,0 UV-I 588 W/m -0,1 C 14,8 C 3,2 km/h (1 Bft) 100,00 %
29.04.2016 16:26 14,8 C 37 % 1017,5 hPa 0,0 l/m 0,5 km/h (0 Bft) W 261 1 min 0,000 mm 1,7 UV-I 585 W/m 0,3 C 14,8 C 1,6 km/h (1 Bft) 100,00 %
29.04.2016 16:27 14,8 C 39 % 1017,5 hPa 0,0 l/m 2,1 km/h (1 Bft) N 355 1 min 0,000 mm 1,9 UV-I 583 W/m 1,0 C 14,8 C 4,8 km/h (1 Bft) 100,00 %
29.04.2016 16:28 14,9 C 42 % 1017,4 hPa 0,0 l/m 3,2 km/h (1 Bft) W-SW 250 1 min 0,000 mm 1,9 UV-I 580 W/m 2,1 C 14,9 C 6,4 km/h (2 Bft) 95,65 %
29.04.2016 16:29 15,0 C 44 % 1017,4 hPa 0,0 l/m 3,2 km/h (1 Bft) NO 34 1 min 0,000 mm 1,8 UV-I 577 W/m 2,9 C 15,0 C 6,4 km/h (2 Bft) 100,00 %
29.04.2016 16:30 15,1 C 42 % 1017,4 hPa 0,0 l/m 4,1 km/h (1 Bft) N-NW 333 1 min 0,000 mm 1,6 UV-I 576 W/m 2,3 C 15,1 C 8,0 km/h (2 Bft) 100,00 %
29.04.2016 16:31 15,1 C 44 % 1017,4 hPa 0,0 l/m 2,7 km/h (1 Bft) N 10 1 min 0,000 mm 1,8 UV-I 573 W/m 2,9 C 15,1 C 3,2 km/h (1 Bft) 100,00 %
29.04.2016 16:32 15,1 C 41 % 1017,4 hPa 0,0 l/m 1,8 km/h (1 Bft) N 9 1 min 0,000 mm 1,9 UV-I 572 W/m 2,0 C 15,1 C 4,8 km/h (1 Bft) 100,00 %
29.04.2016 16:33 15,1 C 39 % 1017,4 hPa 0,0 l/m 2,2 km/h (1 Bft) S-SW 199 1 min 0,000 mm 1,8 UV-I 537 W/m 1,3 C 15,1 C 3,2 km/h (1 Bft) 100,00 %
29.04.2016 16:34 15,1 C 42 % 1017,3 hPa 0,0 l/m 2,8 km/h (1 Bft) N 350 1 min 0,000 mm 1,8 UV-I 518 W/m 2,3 C 15,1 C 4,8 km/h (1 Bft) 100,00 %
29.04.2016 16:35 15,2 C 44 % 1017,3 hPa 0,0 l/m 2,2 km/h (1 Bft) NW 306 1 min 0,000 mm 1,8 UV-I 534 W/m 3,0 C 15,2 C 3,2 km/h (1 Bft) 95,83 %
29.04.2016 16:36 15,2 C 43 % 1017,3 hPa 0,0 l/m 3,6 km/h (1 Bft) W-NW 302 1 min 0,000 mm 1,8 UV-I 550 W/m 2,7 C 15,2 C 8,0 km/h (2 Bft) 95,65 %
29.04.2016 16:37 15,2 C 43 % 1017,3 hPa 0,0 l/m 3,4 km/h (1 Bft) NW 325 1 min 0,000 mm 1,8 UV-I 559 W/m 2,7 C 15,2 C 6,4 km/h (2 Bft) 100,00 %
29.04.2016 16:38 15,2 C 41 % 1017,3 hPa 0,0 l/m 3,8 km/h (1 Bft) N-NO 31 1 min 0,000 mm 1,7 UV-I 554 W/m 2,0 C 15,2 C 8,0 km/h (2 Bft) 100,00 %
29.04.2016 16:39 15,3 C 44 % 1017,4 hPa 0,0 l/m 4,0 km/h (1 Bft) O 80 1 min 0,000 mm 1,7 UV-I 551 W/m 3,1 C 15,3 C 8,0 km/h (2 Bft) 100,00 %
29.04.2016 16:40 15,2 C 37 % 1017,4 hPa 0,0 l/m 7,2 km/h (2 Bft) NO 51 1 min 0,000 mm 1,7 UV-I 549 W/m 0,6 C 14,8 C 11,3 km/h (2 Bft) 100,00 %
29.04.2016 16:41 15,2 C 38 % 1017,4 hPa 0,0 l/m 3,6 km/h (1 Bft) N-NO 33 1 min 0,000 mm 1,7 UV-I 546 W/m 1,0 C 15,2 C 6,4 km/h (2 Bft) 100,00 %
29.04.2016 16:42 15,1 C 38 % 1017,4 hPa 0,0 l/m 3,4 km/h (1 Bft) NO 50 1 min 0,000 mm 1,7 UV-I 543 W/m 0,9 C 15,1 C 4,8 km/h (1 Bft) 100,00 %
29.04.2016 16:43 15,1 C 37 % 1017,4 hPa 0,0 l/m 2,2 km/h (1 Bft) O-SO 107 1 min 0,000 mm 1,7 UV-I 538 W/m 0,5 C 15,1 C 3,2 km/h (1 Bft) 100,00 %
29.04.2016 16:44 15,2 C 38 % 1017,4 hPa 0,0 l/m 1,6 km/h (1 Bft) NO 42 1 min 0,000 mm 1,6 UV-I 530 W/m 1,0 C 15,2 C 3,2 km/h (1 Bft) 100,00 %
29.04.2016 16:45 15,3 C 39 % 1017,3 hPa 0,0 l/m 3,2 km/h (1 Bft) N-NO 26 1 min 0,000 mm 1,6 UV-I 536 W/m 1,4 C 15,3 C 6,4 km/h (2 Bft) 100,00 %
29.04.2016 16:46 15,4 C 43 % 1017,3 hPa 0,0 l/m 3,9 km/h (1 Bft) N-NO 32 1 min 0,000 mm 1,5 UV-I 532 W/m 2,9 C 15,4 C 8,0 km/h (2 Bft) 100,00 %
29.04.2016 16:47 15,4 C 42 % 1017,3 hPa 0,0 l/m 7,5 km/h (2 Bft) NO 34 1 min 0,000 mm 1,6 UV-I 528 W/m 2,6 C 14,8 C 9,7 km/h (2 Bft) 100,00 %
29.04.2016 16:48 15,4 C 39 % 1017,4 hPa 0,0 l/m 6,6 km/h (2 Bft) NO 49 1 min 0,000 mm 1,6 UV-I 523 W/m 1,5 C 15,3 C 9,7 km/h (2 Bft) 100,00 %
29.04.2016 16:49 15,3 C 36 % 1017,3 hPa 0,0 l/m 5,9 km/h (2 Bft) NO 50 1 min 0,000 mm 1,6 UV-I 518 W/m 0,3 C 15,3 C 12,9 km/h (3 Bft) 100,00 %
29.04.2016 16:50 15,3 C 37 % 1017,3 hPa 0,0 l/m 3,1 km/h (1 Bft) NO 51 1 min 0,000 mm 1,3 UV-I 465 W/m 0,7 C 15,3 C 6,4 km/h (2 Bft) 100,00 %
29.04.2016 16:51 15,3 C 39 % 1017,4 hPa 0,0 l/m 4,7 km/h (1 Bft) O 94 1 min 0,000 mm 1,5 UV-I 488 W/m 1,4 C 15,3 C 6,4 km/h (2 Bft) 100,00 %
29.04.2016 16:52 15,3 C 37 % 1017,3 hPa 0,0 l/m 4,2 km/h (1 Bft) O-NO 61 1 min 0,000 mm 1,5 UV-I 425 W/m 0,7 C 15,3 C 6,4 km/h (2 Bft) 100,00 %
29.04.2016 16:53 15,3 C 39 % 1017,3 hPa 0,0 l/m 3,8 km/h (1 Bft) NO 40 1 min 0,000 mm 1,5 UV-I 476 W/m 1,4 C 15,3 C 8,0 km/h (2 Bft) 100,00 %
29.04.2016 16:54 15,3 C 39 % 1017,4 hPa 0,0 l/m 6,5 km/h (2 Bft) O-NO 68 1 min 0,000 mm 1,4 UV-I 504 W/m 1,4 C 15,3 C 9,7 km/h (2 Bft) 100,00 %
29.04.2016 16:55 15,4 C 36 % 1017,4 hPa 0,0 l/m 3,3 km/h (1 Bft) O-NO 78 1 min 0,000 mm 1,5 UV-I 504 W/m 0,4 C 15,4 C 4,8 km/h (1 Bft) 100,00 %
29.04.2016 16:56 15,3 C 35 % 1017,4 hPa 0,0 l/m 4,9 km/h (1 Bft) O 101 1 min 0,000 mm 1,4 UV-I 502 W/m -0,1 C 15,3 C 9,7 km/h (2 Bft) 100,00 %
29.04.2016 16:57 15,3 C 36 % 1017,4 hPa 0,0 l/m 3,0 km/h (1 Bft) NO 43 1 min 0,000 mm 1,4 UV-I 459 W/m 0,3 C 15,3 C 4,8 km/h (1 Bft) 100,00 %
29.04.2016 16:58 15,4 C 39 % 1017,3 hPa 0,0 l/m 5,7 km/h (1 Bft) O-NO 63 1 min 0,000 mm 1,4 UV-I 467 W/m 1,5 C 15,4 C 8,0 km/h (2 Bft) 96,15 %
29.04.2016 16:59 15,4 C 39 % 1017,3 hPa 0,0 l/m 4,8 km/h (1 Bft) O 90 1 min 0,000 mm 1,4 UV-I 496 W/m 1,5 C 15,4 C 8,0 km/h (2 Bft) 100,00 %
29.04.2016 17:00 15,4 C 36 % 1017,3 hPa 0,0 l/m 3,9 km/h (1 Bft) O 82 1 min 0,330 mm 1,4 UV-I 494 W/m 0,4 C 15,4 C 8,0 km/h (2 Bft) 95,65 %
29.04.2016 17:02 15,4 C 37 % 1017,4 hPa 0,0 l/m 9,8 km/h (2 Bft) NO 56 2 min 0,000 mm 1,4 UV-I 489 W/m 0,8 C 13,6 C 17,7 km/h (3 Bft) 98,00 %
29.04.2016 17:03 15,4 C 36 % 1017,3 hPa 0,0 l/m 12,7 km/h (3 Bft) O-NO 65 1 min 0,000 mm 1,3 UV-I 485 W/m 0,4 C 12,5 C 16,1 km/h (3 Bft) 95,83 %
29.04.2016 17:04 15,4 C 36 % 1017,3 hPa 0,0 l/m 8,0 km/h (2 Bft) NO 52 1 min 0,000 mm 1,3 UV-I 483 W/m 0,4 C 14,5 C 9,7 km/h (2 Bft) 92,86 %
29.04.2016 17:05 15,3 C 37 % 1017,3 hPa 0,0 l/m 9,4 km/h (2 Bft) O-NO 78 1 min 0,000 mm 1,3 UV-I 481 W/m 0,7 C 13,7 C 14,5 km/h (3 Bft) 95,83 %
29.04.2016 17:06 15,3 C 36 % 1017,3 hPa 0,0 l/m 7,7 km/h (2 Bft) NO 47 1 min 0,000 mm 1,3 UV-I 478 W/m 0,3 C 14,6 C 12,9 km/h (3 Bft) 100,00 %
29.04.2016 17:07 15,4 C 38 % 1017,3 hPa 0,0 l/m 10,3 km/h (2 Bft) O-NO 67 1 min 0,000 mm 1,3 UV-I 476 W/m 1,2 C 13,4 C 16,1 km/h (3 Bft) 95,83 %
29.04.2016 17:08 15,4 C 36 % 1017,3 hPa 0,0 l/m 9,9 km/h (2 Bft) O-NO 75 1 min 0,000 mm 1,3 UV-I 474 W/m 0,4 C 13,6 C 12,9 km/h (3 Bft) 100,00 %
29.04.2016 17:09 15,4 C 36 % 1017,3 hPa 0,0 l/m 8,9 km/h (2 Bft) O-NO 60 1 min 0,000 mm 1,3 UV-I 471 W/m 0,4 C 14,1 C 14,5 km/h (3 Bft) 95,83 %
29.04.2016 17:10 15,3 C 38 % 1017,2 hPa 0,0 l/m 8,6 km/h (2 Bft) O-NO 63 1 min 0,000 mm 1,2 UV-I 467 W/m 1,1 C 14,1 C 11,3 km/h (2 Bft) 95,65 %
29.04.2016 17:11 15,3 C 37 % 1017,3 hPa 0,0 l/m 6,0 km/h (2 Bft) O-NO 71 1 min 0,000 mm 1,2 UV-I 463 W/m 0,7 C 15,3 C 8,0 km/h (2 Bft) 95,83 %
29.04.2016 17:12 15,3 C 35 % 1017,3 hPa 0,0 l/m 4,5 km/h (1 Bft) O-NO 60 1 min 0,000 mm 1,2 UV-I 461 W/m -0,1 C 15,3 C 8,0 km/h (2 Bft) 96,15 %
29.04.2016 17:13 15,3 C 37 % 1017,3 hPa 0,0 l/m 8,5 km/h (2 Bft) NO 45 1 min 0,000 mm 1,2 UV-I 457 W/m 0,7 C 14,2 C 11,3 km/h (2 Bft) 100,00 %
29.04.2016 17:14 15,3 C 38 % 1017,3 hPa 0,0 l/m 10,1 km/h (2 Bft) NO 42 1 min 0,000 mm 1,2 UV-I 454 W/m 1,1 C 13,4 C 16,1 km/h (3 Bft) 96,15 %
29.04.2016 17:15 15,4 C 36 % 1017,3 hPa 0,0 l/m 5,8 km/h (2 Bft) NO 49 1 min 0,000 mm 1,2 UV-I 450 W/m 0,4 C 15,4 C 8,0 km/h (2 Bft) 100,00 %
29.04.2016 17:16 15,4 C 36 % 1017,2 hPa 0,0 l/m 11,8 km/h (2 Bft) NO 46 1 min 0,000 mm 1,1 UV-I 447 W/m 0,4 C 12,8 C 16,1 km/h (3 Bft) 95,65 %
29.04.2016 17:17 15,3 C 35 % 1017,2 hPa 0,0 l/m 10,5 km/h (2 Bft) O-NO 67 1 min 0,000 mm 1,1 UV-I 444 W/m -0,1 C 13,2 C 14,5 km/h (3 Bft) 100,00 %
29.04.2016 17:18 15,3 C 34 % 1017,2 hPa 0,0 l/m 8,2 km/h (2 Bft) NO 52 1 min 0,000 mm 1,1 UV-I 439 W/m -0,5 C 14,3 C 12,9 km/h (3 Bft) 95,65 %
29.04.2016 17:19 15,3 C 34 % 1017,2 hPa 0,0 l/m 5,5 km/h (1 Bft) O-NO 71 1 min 0,000 mm 1,1 UV-I 437 W/m -0,5 C 15,3 C 8,0 km/h (2 Bft) 95,83 %
29.04.2016 17:20 15,3 C 37 % 1017,2 hPa 0,0 l/m 5,6 km/h (1 Bft) O-NO 59 1 min 0,000 mm 1,1 UV-I 433 W/m 0,7 C 15,3 C 8,0 km/h (2 Bft) 95,65 %
29.04.2016 17:21 15,3 C 39 % 1017,3 hPa 0,0 l/m 4,6 km/h (1 Bft) NO 41 1 min 0,000 mm 1,1 UV-I 431 W/m 1,4 C 15,3 C 6,4 km/h (2 Bft) 91,67 %
29.04.2016 17:22 15,4 C 37 % 1017,3 hPa 0,0 l/m 6,3 km/h (2 Bft) O-NO 74 1 min 0,000 mm 1,0 UV-I 428 W/m 0,8 C 15,4 C 9,7 km/h (2 Bft) 100,00 %
29.04.2016 17:23 15,4 C 36 % 1017,3 hPa 0,0 l/m 5,8 km/h (2 Bft) N-NO 20 1 min 0,000 mm 1,0 UV-I 425 W/m 0,4 C 15,4 C 8,0 km/h (2 Bft) 95,65 %
29.04.2016 17:24 15,4 C 39 % 1017,2 hPa 0,0 l/m 2,7 km/h (1 Bft) N 9 1 min 0,000 mm 1,0 UV-I 420 W/m 1,5 C 15,4 C 6,4 km/h (2 Bft) 100,00 %
29.04.2016 17:25 15,4 C 42 % 1017,2 hPa 0,0 l/m 2,1 km/h (1 Bft) NO 42 1 min 0,000 mm 1,0 UV-I 417 W/m 2,6 C 15,4 C 3,2 km/h (1 Bft) 92,86 %
29.04.2016 17:26 15,3 C 41 % 1017,2 hPa 0,0 l/m 3,2 km/h (1 Bft) NO 38 1 min 0,000 mm 1,0 UV-I 412 W/m 2,1 C 15,3 C 6,4 km/h (2 Bft) 100,00 %
29.04.2016 17:27 15,3 C 39 % 1017,2 hPa 0,0 l/m 5,0 km/h (1 Bft) O-NO 66 1 min 0,000 mm 1,0 UV-I 410 W/m 1,4 C 15,3 C 6,4 km/h (2 Bft) 96,15 %
29.04.2016 17:28 15,3 C 38 % 1017,2 hPa 0,0 l/m 6,7 km/h (2 Bft) NO 42 1 min 0,000 mm 1,0 UV-I 410 W/m 1,1 C 15,1 C 9,7 km/h (2 Bft) 96,30 %
29.04.2016 17:29 15,3 C 37 % 1017,2 hPa 0,0 l/m 8,3 km/h (2 Bft) O-NO 69 1 min 0,000 mm 0,9 UV-I 406 W/m 0,7 C 14,3 C 12,9 km/h (3 Bft) 100,00 %
29.04.2016 17:30 15,3 C 39 % 1017,2 hPa 0,0 l/m 8,6 km/h (2 Bft) NO 51 1 min 0,000 mm 0,9 UV-I 404 W/m 1,4 C 14,1 C 11,3 km/h (2 Bft) 95,83 %
29.04.2016 17:31 15,3 C 40 % 1017,2 hPa 0,0 l/m 10,4 km/h (2 Bft) NO 50 1 min 0,000 mm 0,9 UV-I 401 W/m 1,8 C 13,3 C 16,1 km/h (3 Bft) 100,00 %
29.04.2016 17:32 15,3 C 38 % 1017,2 hPa 0,0 l/m 10,2 km/h (2 Bft) NO 38 1 min 0,000 mm 0,9 UV-I 398 W/m 1,1 C 13,4 C 14,5 km/h (3 Bft) 91,67 %
29.04.2016 17:33 15,2 C 42 % 1017,2 hPa 0,0 l/m 9,4 km/h (2 Bft) O-NO 57 1 min 0,000 mm 0,9 UV-I 396 W/m 2,4 C 13,6 C 14,5 km/h (3 Bft) 95,83 %
29.04.2016 17:34 15,2 C 39 % 1017,1 hPa 0,0 l/m 8,1 km/h (2 Bft) NO 56 1 min 0,000 mm 0,9 UV-I 381 W/m 1,3 C 14,3 C 11,3 km/h (2 Bft) 95,65 %
29.04.2016 17:35 15,3 C 37 % 1017,2 hPa 0,0 l/m 5,5 km/h (1 Bft) N 11 1 min 0,000 mm 0,9 UV-I 387 W/m 0,7 C 15,3 C 8,0 km/h (2 Bft) 100,00 %
29.04.2016 17:36 15,2 C 40 % 1017,1 hPa 0,0 l/m 6,1 km/h (2 Bft) N-NO 28 1 min 0,000 mm 0,9 UV-I 388 W/m 1,7 C 15,2 C 11,3 km/h (2 Bft) 100,00 %
29.04.2016 17:37 15,2 C 41 % 1017,1 hPa 0,0 l/m 8,3 km/h (2 Bft) NO 44 1 min 0,000 mm 0,9 UV-I 386 W/m 2,0 C 14,2 C 14,5 km/h (3 Bft) 100,00 %
29.04.2016 17:38 15,2 C 42 % 1017,1 hPa 0,0 l/m 8,6 km/h (2 Bft) O-NO 57 1 min 0,000 mm 0,8 UV-I 383 W/m 2,4 C 14,0 C 14,5 km/h (3 Bft) 100,00 %
29.04.2016 17:39 15,2 C 39 % 1017,1 hPa 0,0 l/m 9,5 km/h (2 Bft) NO 40 1 min 0,000 mm 0,8 UV-I 380 W/m 1,3 C 13,6 C 14,5 km/h (3 Bft) 95,83 %
29.04.2016 17:40 15,3 C 38 % 1017,1 hPa 0,0 l/m 12,1 km/h (2 Bft) NO 42 1 min 0,000 mm 0,8 UV-I 379 W/m 1,1 C 12,6 C 16,1 km/h (3 Bft) 100,00 %
29.04.2016 17:41 15,3 C 38 % 1017,1 hPa 0,0 l/m 7,8 km/h (2 Bft) NO 44 1 min 0,000 mm 0,8 UV-I 375 W/m 1,1 C 14,5 C 9,7 km/h (2 Bft) 100,00 %
29.04.2016 17:42 15,2 C 38 % 1017,1 hPa 0,0 l/m 5,7 km/h (1 Bft) N-NO 23 1 min 0,000 mm 0,8 UV-I 368 W/m 1,0 C 15,2 C 8,0 km/h (2 Bft) 100,00 %
29.04.2016 17:43 15,2 C 41 % 1017,1 hPa 0,0 l/m 4,4 km/h (1 Bft) N-NO 23 1 min 0,000 mm 0,8 UV-I 368 W/m 2,0 C 15,2 C 8,0 km/h (2 Bft) 100,00 %
29.04.2016 17:44 15,1 C 42 % 1017,1 hPa 0,0 l/m 6,4 km/h (2 Bft) N-NO 24 1 min 0,000 mm 0,8 UV-I 341 W/m 2,3 C 15,1 C 11,3 km/h (2 Bft) 100,00 %
29.04.2016 17:45 15,1 C 40 % 1017,1 hPa 0,0 l/m 6,1 km/h (2 Bft) NO 36 1 min 0,000 mm 0,8 UV-I 337 W/m 1,6 C 15,1 C 8,0 km/h (2 Bft) 100,00 %
29.04.2016 17:46 15,1 C 40 % 1017,1 hPa 0,0 l/m 8,0 km/h (2 Bft) O-NO 58 1 min 0,000 mm 0,7 UV-I 358 W/m 1,6 C 14,2 C 9,7 km/h (2 Bft) 95,65 %
29.04.2016 17:47 15,1 C 37 % 1017,1 hPa 0,0 l/m 8,3 km/h (2 Bft) NO 53 1 min 0,000 mm 0,7 UV-I 354 W/m 0,5 C 14,0 C 12,9 km/h (3 Bft) 100,00 %
29.04.2016 17:48 15,1 C 36 % 1017,1 hPa 0,0 l/m 5,4 km/h (1 Bft) O-SO 107 1 min 0,000 mm 0,7 UV-I 352 W/m 0,1 C 15,1 C 8,0 km/h (2 Bft) 95,65 %
29.04.2016 17:49 15,1 C 37 % 1017,1 hPa 0,0 l/m 5,7 km/h (1 Bft) NO 49 1 min 0,000 mm 0,7 UV-I 322 W/m 0,5 C 15,1 C 8,0 km/h (2 Bft) 100,00 %
29.04.2016 17:50 15,2 C 39 % 1017,1 hPa 0,0 l/m 7,2 km/h (2 Bft) O-NO 65 1 min 0,000 mm 0,7 UV-I 254 W/m 1,3 C 14,8 C 9,7 km/h (2 Bft) 100,00 %
29.04.2016 17:51 15,2 C 39 % 1017,1 hPa 0,0 l/m 7,2 km/h (2 Bft) O-NO 73 1 min 0,000 mm 0,7 UV-I 303 W/m 1,3 C 14,8 C 11,3 km/h (2 Bft) 95,83 %
29.04.2016 17:52 15,2 C 38 % 1017,1 hPa 0,0 l/m 6,0 km/h (2 Bft) O-NO 73 1 min 0,000 mm 0,7 UV-I 338 W/m 1,0 C 15,2 C 8,0 km/h (2 Bft) 100,00 %
29.04.2016 17:53 15,2 C 38 % 1017,1 hPa 0,0 l/m 10,1 km/h (2 Bft) O 84 1 min 0,000 mm 0,7 UV-I 315 W/m 1,0 C 13,3 C 12,9 km/h (3 Bft) 95,83 %
29.04.2016 17:54 15,2 C 37 % 1017,1 hPa 0,0 l/m 10,5 km/h (2 Bft) O-NO 63 1 min 0,000 mm 0,7 UV-I 321 W/m 0,6 C 13,1 C 12,9 km/h (3 Bft) 100,00 %
29.04.2016 17:55 15,2 C 36 % 1017,1 hPa 0,0 l/m 14,0 km/h (3 Bft) O-NO 76 1 min 0,000 mm 0,6 UV-I 277 W/m 0,2 C 11,8 C 16,1 km/h (3 Bft) 100,00 %
29.04.2016 17:56 15,2 C 38 % 1017,1 hPa 0,0 l/m 7,6 km/h (2 Bft) O-NO 61 1 min 0,000 mm 0,6 UV-I 327 W/m 1,0 C 14,5 C 12,9 km/h (3 Bft) 100,00 %
29.04.2016 17:57 15,2 C 37 % 1017,1 hPa 0,0 l/m 7,6 km/h (2 Bft) O-NO 75 1 min 0,000 mm 0,6 UV-I 324 W/m 0,6 C 14,5 C 12,9 km/h (3 Bft) 95,65 %
29.04.2016 17:58 15,1 C 36 % 1017,1 hPa 0,0 l/m 6,4 km/h (2 Bft) O-NO 64 1 min 0,000 mm 0,6 UV-I 322 W/m 0,1 C 15,1 C 11,3 km/h (2 Bft) 100,00 %
29.04.2016 17:59 15,1 C 37 % 1017,1 hPa 0,0 l/m 6,6 km/h (2 Bft) NO 55 1 min 0,000 mm 0,6 UV-I 318 W/m 0,5 C 15,0 C 9,7 km/h (2 Bft) 100,00 %
29.04.2016 18:00 15,1 C 38 % 1017,0 hPa 0,0 l/m 7,7 km/h (2 Bft) O-NO 76 1 min 0,000 mm 0,6 UV-I 316 W/m 0,9 C 14,4 C 9,7 km/h (2 Bft) 100,00 %
29.04.2016 18:02 15,1 C 37 % 1017,0 hPa 0,0 l/m 6,8 km/h (2 Bft) NO 49 2 min 0,279 mm 0,6 UV-I 312 W/m 0,5 C 14,9 C 12,9 km/h (3 Bft) 100,00 %
29.04.2016 18:03 15,1 C 39 % 1017,0 hPa 0,0 l/m 4,2 km/h (1 Bft) O-SO 105 1 min 0,000 mm 0,6 UV-I 307 W/m 1,3 C 15,1 C 6,4 km/h (2 Bft) 100,00 %
29.04.2016 18:04 15,2 C 36 % 1017,0 hPa 0,0 l/m 6,9 km/h (2 Bft) O-NO 64 1 min 0,000 mm 0,5 UV-I 304 W/m 0,2 C 14,9 C 8,0 km/h (2 Bft) 100,00 %
29.04.2016 18:05 15,2 C 38 % 1017,0 hPa 0,0 l/m 6,8 km/h (2 Bft) NO 47 1 min 0,000 mm 0,5 UV-I 301 W/m 1,0 C 15,0 C 8,0 km/h (2 Bft) 100,00 %
29.04.2016 18:06 15,2 C 36 % 1017,0 hPa 0,0 l/m 5,1 km/h (1 Bft) O 81 1 min 0,000 mm 0,5 UV-I 297 W/m 0,2 C 15,2 C 8,0 km/h (2 Bft) 100,00 %
29.04.2016 18:07 15,2 C 35 % 1017,0 hPa 0,0 l/m 5,4 km/h (1 Bft) O-NO 74 1 min 0,000 mm 0,5 UV-I 294 W/m -0,2 C 15,2 C 6,4 km/h (2 Bft) 100,00 %
29.04.2016 18:08 15,2 C 36 % 1017,0 hPa 0,0 l/m 5,1 km/h (1 Bft) O-NO 73 1 min 0,000 mm 0,5 UV-I 291 W/m 0,2 C 15,2 C 8,0 km/h (2 Bft) 100,00 %
29.04.2016 18:09 15,2 C 38 % 1017,0 hPa 0,0 l/m 7,4 km/h (2 Bft) O-NO 57 1 min 0,000 mm 0,5 UV-I 290 W/m 1,0 C 14,6 C 9,7 km/h (2 Bft) 95,65 %
29.04.2016 18:10 15,2 C 39 % 1017,0 hPa 0,0 l/m 8,6 km/h (2 Bft) O-NO 61 1 min 0,000 mm 0,5 UV-I 286 W/m 1,3 C 14,0 C 11,3 km/h (2 Bft) 95,83 %
29.04.2016 18:11 15,2 C 37 % 1017,0 hPa 0,0 l/m 7,4 km/h (2 Bft) NO 44 1 min 0,000 mm 0,5 UV-I 283 W/m 0,6 C 14,6 C 11,3 km/h (2 Bft) 95,65 %
29.04.2016 18:12 15,1 C 36 % 1017,0 hPa 0,0 l/m 7,4 km/h (2 Bft) NO 56 1 min 0,000 mm 0,5 UV-I 280 W/m 0,1 C 14,5 C 9,7 km/h (2 Bft) 100,00 %
29.04.2016 18:13 15,1 C 37 % 1017,0 hPa 0,0 l/m 7,3 km/h (2 Bft) NO 51 1 min 0,000 mm 0,5 UV-I 276 W/m 0,5 C 14,6 C 9,7 km/h (2 Bft) 100,00 %
29.04.2016 18:14 15,1 C 42 % 1017,0 hPa 0,0 l/m 7,6 km/h (2 Bft) NO 51 1 min 0,000 mm 0,5 UV-I 273 W/m 2,3 C 14,4 C 12,9 km/h (3 Bft) 95,83 %
29.04.2016 18:15 15,0 C 39 % 1016,9 hPa 0,0 l/m 6,8 km/h (2 Bft) O-NO 61 1 min 0,000 mm 0,2 UV-I 271 W/m 1,2 C 14,8 C 8,0 km/h (2 Bft) 100,00 %
29.04.2016 18:16 15,0 C 37 % 1016,9 hPa 0,0 l/m 8,6 km/h (2 Bft) O-NO 77 1 min 0,000 mm 0,0 UV-I 268 W/m 0,4 C 13,8 C 12,9 km/h (3 Bft) 100,00 %
29.04.2016 18:17 15,0 C 37 % 1016,9 hPa 0,0 l/m 3,3 km/h (1 Bft) O-NO 76 1 min 0,000 mm 0,0 UV-I 265 W/m 0,4 C 15,0 C 4,8 km/h (1 Bft) 100,00 %
29.04.2016 18:18 15,0 C 37 % 1016,9 hPa 0,0 l/m 4,0 km/h (1 Bft) O-NO 61 1 min 0,000 mm 0,0 UV-I 263 W/m 0,4 C 15,0 C 4,8 km/h (1 Bft) 100,00 %
29.04.2016 18:19 15,0 C 38 % 1016,9 hPa 0,0 l/m 4,8 km/h (1 Bft) O-NO 72 1 min 0,000 mm 0,0 UV-I 259 W/m 0,8 C 15,0 C 6,4 km/h (2 Bft) 95,83 %
29.04.2016 18:20 15,0 C 36 % 1016,9 hPa 0,0 l/m 7,8 km/h (2 Bft) O 82 1 min 0,000 mm 0,0 UV-I 243 W/m 0,1 C 14,2 C 11,3 km/h (2 Bft) 95,65 %
29.04.2016 18:21 15,0 C 37 % 1016,9 hPa 0,0 l/m 8,6 km/h (2 Bft) O-NO 66 1 min 0,000 mm 0,0 UV-I 247 W/m 0,4 C 13,8 C 12,9 km/h (3 Bft) 100,00 %
29.04.2016 18:22 14,9 C 38 % 1016,9 hPa 0,0 l/m 7,0 km/h (2 Bft) NO 43 1 min 0,000 mm 0,0 UV-I 250 W/m 0,7 C 14,6 C 12,9 km/h (3 Bft) 100,00 %
29.04.2016 18:23 14,9 C 38 % 1016,9 hPa 0,0 l/m 5,8 km/h (2 Bft) NO 49 1 min 0,000 mm 0,0 UV-I 244 W/m 0,7 C 14,9 C 6,4 km/h (2 Bft) 100,00 %
29.04.2016 18:24 14,9 C 40 % 1016,9 hPa 0,0 l/m 5,8 km/h (2 Bft) NO 42 1 min 0,000 mm 0,0 UV-I 243 W/m 1,4 C 14,9 C 8,0 km/h (2 Bft) 100,00 %
29.04.2016 18:25 14,9 C 38 % 1016,8 hPa 0,0 l/m 6,9 km/h (2 Bft) N-NO 22 1 min 0,000 mm 0,0 UV-I 240 W/m 0,7 C 14,6 C 9,7 km/h (2 Bft) 100,00 %
29.04.2016 18:26 14,9 C 38 % 1016,9 hPa 0,0 l/m 8,4 km/h (2 Bft) NO 40 1 min 0,000 mm 0,0 UV-I 237 W/m 0,7 C 13,8 C 11,3 km/h (2 Bft) 100,00 %
29.04.2016 18:27 14,9 C 40 % 1016,9 hPa 0,0 l/m 7,6 km/h (2 Bft) O-NO 70 1 min 0,000 mm 0,0 UV-I 233 W/m 1,4 C 14,2 C 11,3 km/h (2 Bft) 100,00 %
29.04.2016 18:28 14,9 C 39 % 1016,8 hPa 0,0 l/m 8,9 km/h (2 Bft) O-NO 73 1 min 0,000 mm 0,0 UV-I 230 W/m 1,1 C 13,5 C 12,9 km/h (3 Bft) 100,00 %
29.04.2016 18:29 14,9 C 39 % 1016,9 hPa 0,0 l/m 8,8 km/h (2 Bft) O-NO 71 1 min 0,000 mm 0,0 UV-I 227 W/m 1,1 C 13,6 C 12,9 km/h (3 Bft) 95,83 %
29.04.2016 18:30 14,9 C 39 % 1016,9 hPa 0,0 l/m 6,1 km/h (2 Bft) NO 46 1 min 0,000 mm 0,0 UV-I 224 W/m 1,1 C 14,9 C 8,0 km/h (2 Bft) 100,00 %
29.04.2016 18:31 14,9 C 39 % 1016,8 hPa 0,0 l/m 7,1 km/h (2 Bft) O-NO 74 1 min 0,000 mm 0,0 UV-I 220 W/m 1,1 C 14,5 C 8,0 km/h (2 Bft) 100,00 %
29.04.2016 18:32 14,9 C 37 % 1016,8 hPa 0,0 l/m 9,6 km/h (2 Bft) O-NO 76 1 min 0,000 mm 0,0 UV-I 218 W/m 0,3 C 13,2 C 14,5 km/h (3 Bft) 100,00 %
29.04.2016 18:33 14,9 C 37 % 1016,8 hPa 0,0 l/m 8,9 km/h (2 Bft) O-NO 65 1 min 0,000 mm 0,0 UV-I 214 W/m 0,3 C 13,5 C 12,9 km/h (3 Bft) 100,00 %
29.04.2016 18:34 14,9 C 37 % 1016,8 hPa 0,0 l/m 7,3 km/h (2 Bft) O-NO 76 1 min 0,000 mm 0,0 UV-I 211 W/m 0,3 C 14,4 C 11,3 km/h (2 Bft) 100,00 %
29.04.2016 18:35 14,8 C 38 % 1016,8 hPa 0,0 l/m 6,7 km/h (2 Bft) O-NO 68 1 min 0,000 mm 0,0 UV-I 206 W/m 0,6 C 14,6 C 11,3 km/h (2 Bft) 100,00 %
29.04.2016 18:36 14,8 C 39 % 1016,8 hPa 0,0 l/m 6,0 km/h (2 Bft) O 80 1 min 0,000 mm 0,0 UV-I 203 W/m 1,0 C 14,8 C 8,0 km/h (2 Bft) 100,00 %
29.04.2016 18:37 14,8 C 37 % 1016,8 hPa 0,0 l/m 7,2 km/h (2 Bft) O-NO 71 1 min 0,000 mm 0,0 UV-I 201 W/m 0,3 C 14,3 C 11,3 km/h (2 Bft) 100,00 %
29.04.2016 18:38 14,8 C 40 % 1016,8 hPa 0,0 l/m 5,0 km/h (1 Bft) O-NO 76 1 min 0,000 mm 0,0 UV-I 196 W/m 1,3 C 14,8 C 6,4 km/h (2 Bft) 100,00 %
29.04.2016 18:39 14,8 C 40 % 1016,7 hPa 0,0 l/m 5,0 km/h (1 Bft) O-NO 74 1 min 0,000 mm 0,0 UV-I 194 W/m 1,3 C 14,8 C 6,4 km/h (2 Bft) 100,00 %
29.04.2016 18:40 14,8 C 39 % 1016,7 hPa 0,0 l/m 9,0 km/h (2 Bft) O-NO 74 1 min 0,000 mm 0,0 UV-I 189 W/m 1,0 C 13,4 C 12,9 km/h (3 Bft) 100,00 %
29.04.2016 18:41 14,8 C 38 % 1016,7 hPa 0,0 l/m 8,6 km/h (2 Bft) O-NO 71 1 min 0,000 mm 0,0 UV-I 176 W/m 0,6 C 13,6 C 12,9 km/h (3 Bft) 100,00 %
29.04.2016 18:42 14,8 C 37 % 1016,7 hPa 0,0 l/m 7,9 km/h (2 Bft) NO 49 1 min 0,000 mm 0,0 UV-I 169 W/m 0,3 C 13,9 C 9,7 km/h (2 Bft) 100,00 %
29.04.2016 18:43 14,8 C 37 % 1016,7 hPa 0,0 l/m 6,6 km/h (2 Bft) O 80 1 min 0,000 mm 0,0 UV-I 180 W/m 0,3 C 14,7 C 9,7 km/h (2 Bft) 100,00 %
29.04.2016 18:44 14,8 C 37 % 1016,7 hPa 0,0 l/m 8,6 km/h (2 Bft) O-NO 69 1 min 0,000 mm 0,0 UV-I 177 W/m 0,3 C 13,6 C 12,9 km/h (3 Bft) 100,00 %
29.04.2016 18:45 14,8 C 37 % 1016,7 hPa 0,0 l/m 6,5 km/h (2 Bft) O-NO 59 1 min 0,000 mm 0,0 UV-I 174 W/m 0,3 C 14,8 C 9,7 km/h (2 Bft) 100,00 %
29.04.2016 18:46 14,7 C 39 % 1016,7 hPa 0,0 l/m 6,2 km/h (2 Bft) O-NO 64 1 min 0,000 mm 0,0 UV-I 171 W/m 0,9 C 14,7 C 11,3 km/h (2 Bft) 100,00 %
29.04.2016 18:47 14,7 C 40 % 1016,7 hPa 0,0 l/m 4,8 km/h (1 Bft) NO 53 1 min 0,000 mm 0,0 UV-I 167 W/m 1,2 C 14,7 C 6,4 km/h (2 Bft) 100,00 %
29.04.2016 18:48 14,7 C 40 % 1016,7 hPa 0,0 l/m 5,8 km/h (2 Bft) NO 55 1 min 0,000 mm 0,0 UV-I 164 W/m 1,2 C 14,7 C 8,0 km/h (2 Bft) 100,00 %
29.04.2016 18:49 14,7 C 40 % 1016,7 hPa 0,0 l/m 8,0 km/h (2 Bft) O-NO 66 1 min 0,000 mm 0,0 UV-I 160 W/m 1,2 C 13,8 C 11,3 km/h (2 Bft) 95,65 %
29.04.2016 18:50 14,6 C 40 % 1016,8 hPa 0,0 l/m 5,7 km/h (1 Bft) O-NO 64 1 min 0,000 mm 0,0 UV-I 157 W/m 1,2 C 14,6 C 8,0 km/h (2 Bft) 100,00 %
29.04.2016 18:51 14,6 C 39 % 1016,7 hPa 0,0 l/m 7,1 km/h (2 Bft) NO 53 1 min 0,000 mm 0,0 UV-I 153 W/m 0,8 C 14,2 C 9,7 km/h (2 Bft) 100,00 %
29.04.2016 18:52 14,7 C 39 % 1016,8 hPa 0,0 l/m 5,3 km/h (1 Bft) O-NO 64 1 min 0,000 mm 0,0 UV-I 151 W/m 0,9 C 14,7 C 6,4 km/h (2 Bft) 100,00 %
29.04.2016 18:53 14,7 C 39 % 1016,7 hPa 0,0 l/m 6,4 km/h (2 Bft) O-NO 67 1 min 0,000 mm 0,0 UV-I 147 W/m 0,9 C 14,7 C 9,7 km/h (2 Bft) 100,00 %
29.04.2016 18:54 14,7 C 40 % 1016,7 hPa 0,0 l/m 7,6 km/h (2 Bft) O-NO 72 1 min 0,000 mm 0,0 UV-I 143 W/m 1,2 C 14,0 C 9,7 km/h (2 Bft) 100,00 %
29.04.2016 18:55 14,6 C 39 % 1016,8 hPa 0,0 l/m 7,6 km/h (2 Bft) NO 49 1 min 0,000 mm 0,0 UV-I 140 W/m 0,8 C 13,9 C 9,7 km/h (2 Bft) 100,00 %
29.04.2016 18:56 14,7 C 39 % 1016,8 hPa 0,0 l/m 6,5 km/h (2 Bft) O-NO 59 1 min 0,000 mm 0,0 UV-I 138 W/m 0,9 C 14,7 C 8,0 km/h (2 Bft) 95,83 %
29.04.2016 18:57 14,7 C 38 % 1016,7 hPa 0,0 l/m 5,4 km/h (1 Bft) O-NO 57 1 min 0,000 mm 0,0 UV-I 134 W/m 0,5 C 14,7 C 6,4 km/h (2 Bft) 95,65 %
29.04.2016 18:58 14,6 C 38 % 1016,7 hPa 0,0 l/m 5,3 km/h (1 Bft) O-NO 69 1 min 0,000 mm 0,0 UV-I 132 W/m 0,4 C 14,6 C 8,0 km/h (2 Bft) 100,00 %
29.04.2016 18:59 14,6 C 39 % 1016,7 hPa 0,0 l/m 5,3 km/h (1 Bft) O-NO 59 1 min 0,000 mm 0,0 UV-I 128 W/m 0,8 C 14,6 C 8,0 km/h (2 Bft) 100,00 %
29.04.2016 19:00 14,6 C 39 % 1016,7 hPa 0,0 l/m 3,5 km/h (1 Bft) O-NO 57 1 min 0,000 mm 0,0 UV-I 125 W/m 0,8 C 14,6 C 4,8 km/h (1 Bft) 100,00 %
29.04.2016 19:02 14,6 C 42 % 1016,7 hPa 0,0 l/m 4,0 km/h (1 Bft) O-NO 73 2 min 0,178 mm 0,0 UV-I 120 W/m 1,8 C 14,6 C 6,4 km/h (2 Bft) 97,37 %
29.04.2016 19:03 14,6 C 43 % 1016,8 hPa 0,0 l/m 6,1 km/h (2 Bft) NO 53 1 min 0,000 mm 0,0 UV-I 116 W/m 2,2 C 14,6 C 8,0 km/h (2 Bft) 91,67 %
29.04.2016 19:04 14,5 C 41 % 1016,8 hPa 0,0 l/m 6,8 km/h (2 Bft) NO 49 1 min 0,000 mm 0,0 UV-I 113 W/m 1,4 C 14,3 C 8,0 km/h (2 Bft) 95,65 %
29.04.2016 19:05 14,4 C 41 % 1016,8 hPa 0,0 l/m 6,2 km/h (2 Bft) NO 47 1 min 0,000 mm 0,0 UV-I 110 W/m 1,3 C 14,4 C 8,0 km/h (2 Bft) 95,83 %
29.04.2016 19:06 14,4 C 41 % 1016,8 hPa 0,0 l/m 7,2 km/h (2 Bft) O-NO 67 1 min 0,000 mm 0,0 UV-I 106 W/m 1,3 C 13,9 C 9,7 km/h (2 Bft) 100,00 %
29.04.2016 19:07 14,4 C 42 % 1016,8 hPa 0,0 l/m 7,5 km/h (2 Bft) O-NO 61 1 min 0,000 mm 0,0 UV-I 104 W/m 1,7 C 13,8 C 9,7 km/h (2 Bft) 95,83 %
29.04.2016 19:08 14,3 C 41 % 1016,8 hPa 0,0 l/m 5,8 km/h (2 Bft) NO 54 1 min 0,000 mm 0,0 UV-I 101 W/m 1,2 C 14,3 C 8,0 km/h (2 Bft) 100,00 %
29.04.2016 19:09 14,3 C 41 % 1016,8 hPa 0,0 l/m 5,5 km/h (1 Bft) O-NO 61 1 min 0,000 mm 0,0 UV-I 100 W/m 1,2 C 14,3 C 9,7 km/h (2 Bft) 95,83 %
29.04.2016 19:10 14,3 C 41 % 1016,8 hPa 0,0 l/m 8,2 km/h (2 Bft) NO 51 1 min 0,000 mm 0,0 UV-I 96 W/m 1,2 C 13,3 C 11,3 km/h (2 Bft) 100,00 %
29.04.2016 19:11 14,3 C 42 % 1016,8 hPa 0,0 l/m 6,1 km/h (2 Bft) NO 50 1 min 0,000 mm 0,0 UV-I 92 W/m 1,6 C 14,3 C 8,0 km/h (2 Bft) 97,56 %
29.04.2016 19:12 14,3 C 41 % 1016,9 hPa 0,0 l/m 6,0 km/h (2 Bft) NO 43 1 min 0,000 mm 0,0 UV-I 91 W/m 1,2 C 14,3 C 8,0 km/h (2 Bft) 95,65 %
29.04.2016 19:13 14,2 C 44 % 1016,9 hPa 0,0 l/m 5,7 km/h (1 Bft) NO 46 1 min 0,000 mm 0,0 UV-I 88 W/m 2,1 C 14,2 C 8,0 km/h (2 Bft) 100,00 %
29.04.2016 19:14 14,2 C 44 % 1016,8 hPa 0,0 l/m 5,1 km/h (1 Bft) NO 54 1 min 0,000 mm 0,0 UV-I 84 W/m 2,1 C 14,2 C 6,4 km/h (2 Bft) 95,65 %
29.04.2016 19:15 14,1 C 44 % 1016,9 hPa 0,0 l/m 6,9 km/h (2 Bft) NO 35 1 min 0,000 mm 0,0 UV-I 83 W/m 2,0 C 13,8 C 8,0 km/h (2 Bft) 100,00 %
29.04.2016 19:16 14,0 C 44 % 1016,9 hPa 0,0 l/m 5,8 km/h (2 Bft) O-NO 59 0 min 0,000 mm 0,0 UV-I 79 W/m 1,9 C 14,0 C 8,0 km/h (2 Bft) 91,30 %
29.04.2016 19:17 13,9 C 44 % 1016,9 hPa 0,0 l/m 3,8 km/h (1 Bft) NO 51 0 min 0,000 mm 0,0 UV-I 77 W/m 1,9 C 13,9 C 4,8 km/h (1 Bft) 100,00 %
29.04.2016 19:18 13,8 C 44 % 1016,9 hPa 0,0 l/m 5,5 km/h (1 Bft) NO 41 0 min 0,000 mm 0,0 UV-I 75 W/m 1,8 C 13,8 C 6,4 km/h (2 Bft) 91,67 %
29.04.2016 19:19 13,8 C 44 % 1016,9 hPa 0,0 l/m 5,5 km/h (1 Bft) NO 52 0 min 0,000 mm 0,0 UV-I 73 W/m 1,8 C 13,8 C 6,4 km/h (2 Bft) 100,00 %
29.04.2016 19:20 13,7 C 45 % 1016,9 hPa 0,0 l/m 5,2 km/h (1 Bft) NO 48 0 min 0,000 mm 0,0 UV-I 70 W/m 2,0 C 13,7 C 8,0 km/h (2 Bft) 95,83 %
29.04.2016 19:21 13,7 C 43 % 1016,9 hPa 0,0 l/m 5,7 km/h (1 Bft) O-NO 61 0 min 0,000 mm 0,0 UV-I 67 W/m 1,4 C 13,7 C 6,4 km/h (2 Bft) 100,00 %
29.04.2016 19:22 13,7 C 44 % 1016,9 hPa 0,0 l/m 3,3 km/h (1 Bft) O-NO 61 0 min 0,000 mm 0,0 UV-I 65 W/m 1,7 C 13,7 C 4,8 km/h (1 Bft) 91,67 %
29.04.2016 19:23 13,7 C 45 % 1016,9 hPa 0,0 l/m 4,6 km/h (1 Bft) NO 56 0 min 0,000 mm 0,0 UV-I 63 W/m 2,0 C 13,7 C 6,4 km/h (2 Bft) 95,65 %
29.04.2016 19:24 13,7 C 45 % 1016,9 hPa 0,0 l/m 5,1 km/h (1 Bft) NO 51 0 min 0,000 mm 0,0 UV-I 61 W/m 2,0 C 13,7 C 6,4 km/h (2 Bft) 100,00 %
29.04.2016 19:25 13,7 C 45 % 1016,9 hPa 0,0 l/m 5,9 km/h (2 Bft) O-NO 57 0 min 0,000 mm 0,0 UV-I 59 W/m 2,0 C 13,7 C 8,0 km/h (2 Bft) 95,65 %
29.04.2016 19:26 13,7 C 45 % 1016,9 hPa 0,0 l/m 5,6 km/h (1 Bft) NO 53 0 min 0,000 mm 0,0 UV-I 56 W/m 2,0 C 13,7 C 8,0 km/h (2 Bft) 100,00 %
29.04.2016 19:27 13,7 C 45 % 1016,9 hPa 0,0 l/m 5,8 km/h (2 Bft) NO 53 0 min 0,000 mm 0,0 UV-I 56 W/m 2,0 C 13,7 C 8,0 km/h (2 Bft) 95,65 %
29.04.2016 19:28 13,7 C 46 % 1016,9 hPa 0,0 l/m 6,0 km/h (2 Bft) NO 49 0 min 0,000 mm 0,0 UV-I 53 W/m 2,3 C 13,7 C 8,0 km/h (2 Bft) 100,00 %
29.04.2016 19:29 13,7 C 45 % 1016,9 hPa 0,0 l/m 5,8 km/h (2 Bft) O-NO 64 0 min 0,000 mm 0,0 UV-I 50 W/m 2,0 C 13,7 C 6,4 km/h (2 Bft) 95,65 %
29.04.2016 19:30 13,7 C 46 % 1016,9 hPa 0,0 l/m 6,2 km/h (2 Bft) NO 54 0 min 0,000 mm 0,0 UV-I 48 W/m 2,3 C 13,7 C 8,0 km/h (2 Bft) 100,00 %
29.04.2016 19:31 13,7 C 46 % 1016,9 hPa 0,0 l/m 5,3 km/h (1 Bft) O-NO 61 0 min 0,000 mm 0,0 UV-I 46 W/m 2,3 C 13,7 C 8,0 km/h (2 Bft) 95,83 %
29.04.2016 19:32 13,6 C 47 % 1016,9 hPa 0,0 l/m 5,0 km/h (1 Bft) O-NO 59 0 min 0,000 mm 0,0 UV-I 44 W/m 2,5 C 13,6 C 6,4 km/h (2 Bft) 95,65 %
29.04.2016 19:33 13,6 C 47 % 1016,9 hPa 0,0 l/m 3,6 km/h (1 Bft) O-NO 57 0 min 0,000 mm 0,0 UV-I 42 W/m 2,5 C 13,6 C 4,8 km/h (1 Bft) 100,00 %
29.04.2016 19:34 13,5 C 47 % 1016,9 hPa 0,0 l/m 4,4 km/h (1 Bft) O-NO 65 0 min 0,000 mm 0,0 UV-I 40 W/m 2,4 C 13,5 C 6,4 km/h (2 Bft) 95,65 %
29.04.2016 19:35 13,5 C 46 % 1016,9 hPa 0,0 l/m 4,4 km/h (1 Bft) O-NO 68 0 min 0,000 mm 0,0 UV-I 40 W/m 2,1 C 13,5 C 6,4 km/h (2 Bft) 100,00 %
29.04.2016 19:36 13,4 C 48 % 1016,9 hPa 0,0 l/m 4,0 km/h (1 Bft) O-NO 66 0 min 0,000 mm 0,0 UV-I 38 W/m 2,6 C 13,4 C 4,8 km/h (1 Bft) 91,30 %
29.04.2016 19:37 13,3 C 48 % 1016,9 hPa 0,0 l/m 3,8 km/h (1 Bft) O-NO 70 0 min 0,000 mm 0,0 UV-I 36 W/m 2,5 C 13,3 C 6,4 km/h (2 Bft) 91,67 %
29.04.2016 19:38 13,2 C 49 % 1016,9 hPa 0,0 l/m 4,4 km/h (1 Bft) O-NO 69 0 min 0,000 mm 0,0 UV-I 33 W/m 2,7 C 13,2 C 6,4 km/h (2 Bft) 100,00 %
29.04.2016 19:39 13,1 C 50 % 1016,9 hPa 0,0 l/m 3,6 km/h (1 Bft) O-NO 69 0 min 0,000 mm 0,0 UV-I 32 W/m 2,9 C 13,1 C 4,8 km/h (1 Bft) 100,00 %
29.04.2016 19:40 13,0 C 48 % 1016,9 hPa 0,0 l/m 4,1 km/h (1 Bft) O-NO 64 0 min 0,000 mm 0,0 UV-I 30 W/m 2,3 C 13,0 C 4,8 km/h (1 Bft) 100,00 %
29.04.2016 19:41 13,0 C 48 % 1016,9 hPa 0,0 l/m 2,7 km/h (1 Bft) O-NO 64 0 min 0,000 mm 0,0 UV-I 27 W/m 2,3 C 13,0 C 4,8 km/h (1 Bft) 100,00 %
29.04.2016 19:42 13,0 C 48 % 1016,9 hPa 0,0 l/m 4,9 km/h (1 Bft) O-NO 59 0 min 0,000 mm 0,0 UV-I 25 W/m 2,3 C 13,0 C 6,4 km/h (2 Bft) 95,65 %
29.04.2016 19:43 13,0 C 48 % 1016,9 hPa 0,0 l/m 5,3 km/h (1 Bft) NO 55 0 min 0,000 mm 0,0 UV-I 24 W/m 2,3 C 13,0 C 8,0 km/h (2 Bft) 100,00 %
29.04.2016 19:44 13,0 C 48 % 1016,9 hPa 0,0 l/m 3,9 km/h (1 Bft) NO 53 0 min 0,000 mm 0,0 UV-I 21 W/m 2,3 C 13,0 C 4,8 km/h (1 Bft) 95,65 %
29.04.2016 19:45 13,0 C 48 % 1016,9 hPa 0,0 l/m 4,1 km/h (1 Bft) NO 55 0 min 0,000 mm 0,0 UV-I 21 W/m 2,3 C 13,0 C 4,8 km/h (1 Bft) 95,83 %
29.04.2016 19:46 12,9 C 48 % 1016,9 hPa 0,0 l/m 5,6 km/h (1 Bft) O-NO 58 0 min 0,000 mm 0,0 UV-I 19 W/m 2,2 C 12,9 C 6,4 km/h (2 Bft) 100,00 %
29.04.2016 19:47 12,9 C 47 % 1016,9 hPa 0,0 l/m 4,8 km/h (1 Bft) O-NO 58 0 min 0,000 mm 0,0 UV-I 19 W/m 1,9 C 12,9 C 6,4 km/h (2 Bft) 100,00 %
29.04.2016 19:48 12,9 C 48 % 1017,0 hPa 0,0 l/m 4,5 km/h (1 Bft) O-NO 62 0 min 0,000 mm 0,0 UV-I 18 W/m 2,2 C 12,9 C 6,4 km/h (2 Bft) 100,00 %
29.04.2016 19:49 12,8 C 49 % 1017,0 hPa 0,0 l/m 5,6 km/h (1 Bft) O-NO 64 0 min 0,000 mm 0,0 UV-I 18 W/m 2,4 C 12,8 C 6,4 km/h (2 Bft) 100,00 %
29.04.2016 19:50 12,8 C 49 % 1017,0 hPa 0,0 l/m 5,4 km/h (1 Bft) O-NO 57 0 min 0,000 mm 0,0 UV-I 18 W/m 2,4 C 12,8 C 6,4 km/h (2 Bft) 95,65 %
29.04.2016 19:51 12,7 C 48 % 1016,9 hPa 0,0 l/m 5,1 km/h (1 Bft) NO 53 0 min 0,000 mm 0,0 UV-I 18 W/m 2,0 C 12,7 C 6,4 km/h (2 Bft) 100,00 %
29.04.2016 19:52 12,7 C 48 % 1017,0 hPa 0,0 l/m 5,4 km/h (1 Bft) O-NO 59 0 min 0,000 mm 0,0 UV-I 16 W/m 2,0 C 12,7 C 8,0 km/h (2 Bft) 95,65 %
29.04.2016 19:53 12,7 C 47 % 1016,9 hPa 0,0 l/m 5,6 km/h (1 Bft) O-NO 65 0 min 0,000 mm 0,0 UV-I 16 W/m 1,7 C 12,7 C 6,4 km/h (2 Bft) 100,00 %
29.04.2016 19:54 12,7 C 48 % 1017,0 hPa 0,0 l/m 5,4 km/h (1 Bft) O-NO 61 0 min 0,000 mm 0,0 UV-I 16 W/m 2,0 C 12,7 C 6,4 km/h (2 Bft) 100,00 %
29.04.2016 19:55 12,6 C 48 % 1017,0 hPa 0,0 l/m 5,2 km/h (1 Bft) O-NO 57 0 min 0,000 mm 0,0 UV-I 15 W/m 1,9 C 12,6 C 6,4 km/h (2 Bft) 100,00 %
29.04.2016 19:56 12,6 C 51 % 1017,0 hPa 0,0 l/m 5,0 km/h (1 Bft) NO 56 0 min 0,000 mm 0,0 UV-I 14 W/m 2,7 C 12,6 C 6,4 km/h (2 Bft) 100,00 %
29.04.2016 19:57 12,4 C 50 % 1017,0 hPa 0,0 l/m 4,7 km/h (1 Bft) NO 45 0 min 0,000 mm 0,0 UV-I 14 W/m 2,3 C 12,4 C 6,4 km/h (2 Bft) 95,65 %
29.04.2016 19:58 12,3 C 50 % 1016,9 hPa 0,0 l/m 4,4 km/h (1 Bft) NO 51 0 min 0,000 mm 0,0 UV-I 13 W/m 2,2 C 12,3 C 4,8 km/h (1 Bft) 100,00 %
29.04.2016 19:59 12,2 C 51 % 1016,9 hPa 0,0 l/m 3,4 km/h (1 Bft) NO 56 0 min 0,000 mm 0,0 UV-I 12 W/m 2,4 C 12,2 C 4,8 km/h (1 Bft) 100,00 %
29.04.2016 20:00 12,1 C 52 % 1016,9 hPa 0,0 l/m 3,4 km/h (1 Bft) O-NO 65 0 min 0,000 mm 0,0 UV-I 12 W/m 2,5 C 12,1 C 6,4 km/h (2 Bft) 100,00 %
29.04.2016 20:02 11,9 C 52 % 1016,9 hPa 0,0 l/m 3,8 km/h (1 Bft) O-NO 62 2 min 0,076 mm 0,0 UV-I 12 W/m 2,4 C 11,9 C 6,4 km/h (2 Bft) 100,00 %
29.04.2016 20:03 11,8 C 52 % 1017,0 hPa 0,0 l/m 3,6 km/h (1 Bft) O-NO 62 1 min 0,000 mm 0,0 UV-I 11 W/m 2,3 C 11,8 C 4,8 km/h (1 Bft) 96,15 %
29.04.2016 20:04 11,8 C 52 % 1016,9 hPa 0,0 l/m 3,6 km/h (1 Bft) O-NO 62 0 min 0,000 mm 0,0 UV-I 10 W/m 2,3 C 11,8 C 4,8 km/h (1 Bft) 100,00 %
29.04.2016 20:05 11,8 C 51 % 1016,9 hPa 0,0 l/m 4,2 km/h (1 Bft) O-NO 63 0 min 0,000 mm 0,0 UV-I 9 W/m 2,0 C 11,8 C 6,4 km/h (2 Bft) 100,00 %
29.04.2016 20:06 11,8 C 50 % 1017,0 hPa 0,0 l/m 5,9 km/h (2 Bft) O-NO 62 0 min 0,000 mm 0,0 UV-I 9 W/m 1,7 C 11,8 C 8,0 km/h (2 Bft) 100,00 %
29.04.2016 20:07 11,8 C 51 % 1017,0 hPa 0,0 l/m 4,0 km/h (1 Bft) O-NO 61 0 min 0,000 mm 0,0 UV-I 9 W/m 2,0 C 11,8 C 4,8 km/h (1 Bft) 95,65 %
29.04.2016 20:08 11,8 C 52 % 1016,9 hPa 0,0 l/m 3,9 km/h (1 Bft) O-NO 57 0 min 0,000 mm 0,0 UV-I 7 W/m 2,3 C 11,8 C 4,8 km/h (1 Bft) 100,00 %
29.04.2016 20:09 11,8 C 52 % 1017,0 hPa 0,0 l/m 4,7 km/h (1 Bft) NO 53 0 min 0,000 mm 0,0 UV-I 7 W/m 2,3 C 11,8 C 6,4 km/h (2 Bft) 100,00 %
29.04.2016 20:10 11,8 C 52 % 1017,0 hPa 0,0 l/m 4,6 km/h (1 Bft) O-NO 69 0 min 0,000 mm 0,0 UV-I 7 W/m 2,3 C 11,8 C 6,4 km/h (2 Bft) 95,83 %
29.04.2016 20:11 11,7 C 52 % 1017,0 hPa 0,0 l/m 3,9 km/h (1 Bft) O-NO 67 0 min 0,000 mm 0,0 UV-I 6 W/m 2,2 C 11,7 C 6,4 km/h (2 Bft) 100,00 %
29.04.2016 20:12 11,6 C 52 % 1017,0 hPa 0,0 l/m 2,9 km/h (1 Bft) O-NO 67 0 min 0,000 mm 0,0 UV-I 5 W/m 2,1 C 11,6 C 4,8 km/h (1 Bft) 100,00 %
29.04.2016 20:13 11,4 C 52 % 1017,0 hPa 0,0 l/m 4,3 km/h (1 Bft) O-NO 67 0 min 0,000 mm 0,0 UV-I 5 W/m 1,9 C 11,4 C 4,8 km/h (1 Bft) 100,00 %
29.04.2016 20:14 11,4 C 53 % 1016,9 hPa 0,0 l/m 3,7 km/h (1 Bft) O-NO 67 0 min 0,000 mm 0,0 UV-I 5 W/m 2,2 C 11,4 C 4,8 km/h (1 Bft) 95,65 %
29.04.2016 20:15 11,3 C 52 % 1017,0 hPa 0,0 l/m 3,8 km/h (1 Bft) O-NO 67 0 min 0,000 mm 0,0 UV-I 5 W/m 1,8 C 11,3 C 4,8 km/h (1 Bft) 100,00 %
29.04.2016 20:16 11,3 C 52 % 1017,0 hPa 0,0 l/m 3,5 km/h (1 Bft) O-NO 67 0 min 0,000 mm 0,0 UV-I 3 W/m 1,8 C 11,3 C 4,8 km/h (1 Bft) 100,00 %
29.04.2016 20:17 11,3 C 52 % 1017,0 hPa 0,0 l/m 4,0 km/h (1 Bft) O-NO 67 0 min 0,000 mm 0,0 UV-I 0 W/m 1,8 C 11,3 C 4,8 km/h (1 Bft) 100,00 %
29.04.2016 20:18 11,3 C 52 % 1017,0 hPa 0,0 l/m 3,4 km/h (1 Bft) O-NO 67 0 min 0,000 mm 0,0 UV-I 0 W/m 1,8 C 11,3 C 4,8 km/h (1 Bft) 100,00 %
29.04.2016 20:19 11,3 C 52 % 1017,0 hPa 0,0 l/m 2,9 km/h (1 Bft) O-NO 67 0 min 0,000 mm 0,0 UV-I 0 W/m 1,8 C 11,3 C 4,8 km/h (1 Bft) 100,00 %
29.04.2016 20:20 11,3 C 53 % 1017,0 hPa 0,0 l/m 3,4 km/h (1 Bft) O-NO 67 0 min 0,000 mm 0,0 UV-I 0 W/m 2,1 C 11,3 C 4,8 km/h (1 Bft) 96,15 %
29.04.2016 20:21 11,2 C 52 % 1016,9 hPa 0,0 l/m 4,5 km/h (1 Bft) O-NO 67 0 min 0,000 mm 0,0 UV-I 0 W/m 1,7 C 11,2 C 6,4 km/h (2 Bft) 100,00 %
29.04.2016 20:22 11,2 C 52 % 1017,0 hPa 0,0 l/m 4,1 km/h (1 Bft) O-NO 69 0 min 0,000 mm 0,0 UV-I 0 W/m 1,7 C 11,2 C 4,8 km/h (1 Bft) 95,65 %
29.04.2016 20:23 11,1 C 53 % 1017,0 hPa 0,0 l/m 4,2 km/h (1 Bft) O-NO 69 0 min 0,000 mm 0,0 UV-I 0 W/m 1,9 C 11,1 C 4,8 km/h (1 Bft) 100,00 %
29.04.2016 20:24 11,0 C 52 % 1017,0 hPa 0,0 l/m 4,5 km/h (1 Bft) O-NO 69 0 min 0,000 mm 0,0 UV-I 0 W/m 1,5 C 11,0 C 6,4 km/h (2 Bft) 100,00 %
29.04.2016 20:25 10,9 C 53 % 1017,0 hPa 0,0 l/m 5,0 km/h (1 Bft) O-NO 72 0 min 0,000 mm 0,0 UV-I 0 W/m 1,7 C 10,9 C 6,4 km/h (2 Bft) 100,00 %
29.04.2016 20:26 10,9 C 53 % 1017,0 hPa 0,0 l/m 3,6 km/h (1 Bft) O-NO 72 0 min 0,000 mm 0,0 UV-I 0 W/m 1,7 C 10,9 C 4,8 km/h (1 Bft) 100,00 %
29.04.2016 20:27 10,9 C 53 % 1017,0 hPa 0,0 l/m 3,7 km/h (1 Bft) O-NO 72 0 min 0,000 mm 0,0 UV-I 0 W/m 1,7 C 10,9 C 4,8 km/h (1 Bft) 100,00 %
29.04.2016 20:28 10,8 C 53 % 1017,0 hPa 0,0 l/m 3,7 km/h (1 Bft) O-NO 72 0 min 0,000 mm 0,0 UV-I 0 W/m 1,6 C 10,8 C 4,8 km/h (1 Bft) 100,00 %
29.04.2016 20:29 10,8 C 52 % 1017,0 hPa 0,0 l/m 2,8 km/h (1 Bft) O-NO 72 0 min 0,000 mm 0,0 UV-I 0 W/m 1,3 C 10,8 C 4,8 km/h (1 Bft) 100,00 %
29.04.2016 20:30 10,8 C 53 % 1017,0 hPa 0,0 l/m 2,3 km/h (1 Bft) O-NO 72 0 min 0,000 mm 0,0 UV-I 0 W/m 1,6 C 10,8 C 3,2 km/h (1 Bft) 100,00 %
29.04.2016 20:31 10,9 C 52 % 1017,0 hPa 0,0 l/m 2,8 km/h (1 Bft) O-NO 72 0 min 0,000 mm 0,0 UV-I 0 W/m 1,4 C 10,9 C 4,8 km/h (1 Bft) 100,00 %
29.04.2016 20:32 10,9 C 51 % 1017,0 hPa 0,0 l/m 1,3 km/h (1 Bft) O-NO 72 0 min 0,000 mm 0,0 UV-I 0 W/m 1,2 C 10,9 C 3,2 km/h (1 Bft) 95,83 %
29.04.2016 20:33 10,9 C 52 % 1017,0 hPa 0,0 l/m 1,1 km/h (1 Bft) O-NO 72 0 min 0,000 mm 0,0 UV-I 0 W/m 1,4 C 10,9 C 3,2 km/h (1 Bft) 100,00 %
29.04.2016 20:34 10,9 C 52 % 1017,1 hPa 0,0 l/m 1,5 km/h (1 Bft) O-NO 72 0 min 0,000 mm 0,0 UV-I 0 W/m 1,4 C 10,9 C 3,2 km/h (1 Bft) 100,00 %
29.04.2016 20:35 10,9 C 52 % 1017,1 hPa 0,0 l/m 1,9 km/h (1 Bft) O-NO 72 0 min 0,000 mm 0,0 UV-I 0 W/m 1,4 C 10,9 C 3,2 km/h (1 Bft) 100,00 %
29.04.2016 20:36 10,8 C 52 % 1017,1 hPa 0,0 l/m 2,4 km/h (1 Bft) O-NO 72 0 min 0,000 mm 0,0 UV-I 0 W/m 1,3 C 10,8 C 3,2 km/h (1 Bft) 100,00 %
29.04.2016 20:37 10,8 C 52 % 1017,1 hPa 0,0 l/m 2,4 km/h (1 Bft) O-NO 72 0 min 0,000 mm 0,0 UV-I 0 W/m 1,3 C 10,8 C 3,2 km/h (1 Bft) 95,65 %
29.04.2016 20:38 10,7 C 53 % 1017,1 hPa 0,0 l/m 2,4 km/h (1 Bft) O-NO 72 0 min 0,000 mm 0,0 UV-I 0 W/m 1,5 C 10,7 C 3,2 km/h (1 Bft) 100,00 %
29.04.2016 20:39 10,7 C 52 % 1017,1 hPa 0,0 l/m 2,4 km/h (1 Bft) O-NO 72 0 min 0,000 mm 0,0 UV-I 0 W/m 1,3 C 10,7 C 3,2 km/h (1 Bft) 95,65 %
29.04.2016 20:40 10,6 C 53 % 1017,1 hPa 0,0 l/m 2,5 km/h (1 Bft) O-NO 72 0 min 0,000 mm 0,0 UV-I 0 W/m 1,4 C 10,6 C 3,2 km/h (1 Bft) 100,00 %
29.04.2016 20:41 10,6 C 53 % 1017,1 hPa 0,0 l/m 3,3 km/h (1 Bft) O-NO 72 0 min 0,000 mm 0,0 UV-I 0 W/m 1,4 C 10,6 C 4,8 km/h (1 Bft) 95,65 %
29.04.2016 20:42 10,5 C 53 % 1017,1 hPa 0,0 l/m 3,2 km/h (1 Bft) O-NO 72 0 min 0,000 mm 0,0 UV-I 0 W/m 1,3 C 10,5 C 4,8 km/h (1 Bft) 100,00 %
29.04.2016 20:43 10,5 C 54 % 1017,1 hPa 0,0 l/m 3,4 km/h (1 Bft) O-NO 72 0 min 0,000 mm 0,0 UV-I 0 W/m 1,6 C 10,5 C 4,8 km/h (1 Bft) 100,00 %
29.04.2016 20:44 10,4 C 53 % 1017,1 hPa 0,0 l/m 3,2 km/h (1 Bft) O-NO 72 0 min 0,000 mm 0,0 UV-I 0 W/m 1,2 C 10,4 C 4,8 km/h (1 Bft) 100,00 %
29.04.2016 20:45 10,4 C 54 % 1017,1 hPa 0,0 l/m 2,7 km/h (1 Bft) O-NO 72 0 min 0,000 mm 0,0 UV-I 0 W/m 1,5 C 10,4 C 4,8 km/h (1 Bft) 100,00 %
29.04.2016 20:46 10,3 C 53 % 1017,1 hPa 0,0 l/m 2,4 km/h (1 Bft) O-NO 72 0 min 0,000 mm 0,0 UV-I 0 W/m 1,1 C 10,3 C 3,2 km/h (1 Bft) 100,00 %
29.04.2016 20:47 10,3 C 54 % 1017,1 hPa 0,0 l/m 2,9 km/h (1 Bft) O-NO 72 0 min 0,000 mm 0,0 UV-I 0 W/m 1,4 C 10,3 C 3,2 km/h (1 Bft) 100,00 %
29.04.2016 20:48 10,3 C 54 % 1017,1 hPa 0,0 l/m 3,1 km/h (1 Bft) O-NO 72 0 min 0,000 mm 0,0 UV-I 0 W/m 1,4 C 10,3 C 4,8 km/h (1 Bft) 100,00 %
29.04.2016 20:49 10,2 C 54 % 1017,1 hPa 0,0 l/m 3,4 km/h (1 Bft) O-NO 72 0 min 0,000 mm 0,0 UV-I 0 W/m 1,3 C 10,2 C 6,4 km/h (2 Bft) 100,00 %
29.04.2016 20:50 10,2 C 54 % 1017,2 hPa 0,0 l/m 3,9 km/h (1 Bft) O-NO 72 0 min 0,000 mm 0,0 UV-I 0 W/m 1,3 C 10,2 C 4,8 km/h (1 Bft) 100,00 %
29.04.2016 20:51 10,1 C 55 % 1017,1 hPa 0,0 l/m 4,6 km/h (1 Bft) O-NO 72 0 min 0,000 mm 0,0 UV-I 0 W/m 1,5 C 10,1 C 4,8 km/h (1 Bft) 100,00 %
29.04.2016 20:52 10,1 C 53 % 1017,1 hPa 0,0 l/m 4,4 km/h (1 Bft) O-NO 72 0 min 0,000 mm 0,0 UV-I 0 W/m 1,0 C 10,1 C 4,8 km/h (1 Bft) 100,00 %
29.04.2016 20:53 10,1 C 53 % 1017,2 hPa 0,0 l/m 4,0 km/h (1 Bft) O-NO 72 0 min 0,000 mm 0,0 UV-I 0 W/m 1,0 C 10,1 C 6,4 km/h (2 Bft) 100,00 %
29.04.2016 20:54 10,2 C 52 % 1017,2 hPa 0,0 l/m 5,2 km/h (1 Bft) O-NO 77 0 min 0,000 mm 0,0 UV-I 0 W/m 0,8 C 10,2 C 6,4 km/h (2 Bft) 95,83 %
29.04.2016 20:55 10,2 C 53 % 1017,2 hPa 0,0 l/m 4,8 km/h (1 Bft) O-NO 77 0 min 0,000 mm 0,0 UV-I 0 W/m 1,1 C 10,2 C 6,4 km/h (2 Bft) 100,00 %
29.04.2016 20:56 10,2 C 54 % 1017,2 hPa 0,0 l/m 3,7 km/h (1 Bft) O-NO 77 0 min 0,000 mm 0,0 UV-I 0 W/m 1,3 C 10,2 C 4,8 km/h (1 Bft) 100,00 %
29.04.2016 20:57 10,1 C 54 % 1017,2 hPa 0,0 l/m 5,1 km/h (1 Bft) O-NO 77 0 min 0,000 mm 0,0 UV-I 0 W/m 1,2 C 10,1 C 6,4 km/h (2 Bft) 100,00 %
29.04.2016 20:58 10,1 C 54 % 1017,2 hPa 0,0 l/m 4,4 km/h (1 Bft) O-NO 76 0 min 0,000 mm 0,0 UV-I 0 W/m 1,2 C 10,1 C 4,8 km/h (1 Bft) 96,15 %
29.04.2016 20:59 10,1 C 53 % 1017,2 hPa 0,0 l/m 4,9 km/h (1 Bft) O-NO 76 0 min 0,000 mm 0,0 UV-I 0 W/m 1,0 C 10,1 C 6,4 km/h (2 Bft) 100,00 %
29.04.2016 21:00 10,1 C 54 % 1017,2 hPa 0,0 l/m 4,3 km/h (1 Bft) O-NO 77 0 min 0,000 mm 0,0 UV-I 0 W/m 1,2 C 10,1 C 6,4 km/h (2 Bft) 100,00 %
29.04.2016 21:02 10,1 C 53 % 1017,2 hPa 0,0 l/m 3,8 km/h (1 Bft) O-NO 71 0 min 0,026 mm 0,0 UV-I 0 W/m 1,0 C 10,1 C 4,8 km/h (1 Bft) 100,00 %
29.04.2016 21:03 10,2 C 53 % 1017,2 hPa 0,0 l/m 4,6 km/h (1 Bft) O-NO 71 0 min 0,000 mm 0,0 UV-I 0 W/m 1,1 C 10,2 C 6,4 km/h (2 Bft) 100,00 %
29.04.2016 21:04 10,2 C 53 % 1017,2 hPa 0,0 l/m 4,4 km/h (1 Bft) O-NO 71 0 min 0,000 mm 0,0 UV-I 0 W/m 1,1 C 10,2 C 4,8 km/h (1 Bft) 95,65 %
29.04.2016 21:05 10,2 C 53 % 1017,2 hPa 0,0 l/m 4,6 km/h (1 Bft) O-NO 71 0 min 0,000 mm 0,0 UV-I 0 W/m 1,1 C 10,2 C 4,8 km/h (1 Bft) 100,00 %
29.04.2016 21:06 10,2 C 53 % 1017,2 hPa 0,0 l/m 5,1 km/h (1 Bft) O-NO 74 0 min 0,000 mm 0,0 UV-I 0 W/m 1,1 C 10,2 C 6,4 km/h (2 Bft) 100,00 %
29.04.2016 21:07 10,2 C 53 % 1017,2 hPa 0,0 l/m 4,3 km/h (1 Bft) O-NO 72 0 min 0,000 mm 0,0 UV-I 0 W/m 1,1 C 10,2 C 4,8 km/h (1 Bft) 100,00 %
29.04.2016 21:08 10,3 C 52 % 1017,2 hPa 0,0 l/m 4,6 km/h (1 Bft) O-NO 73 0 min 0,000 mm 0,0 UV-I 0 W/m 0,9 C 10,3 C 6,4 km/h (2 Bft) 96,15 %
29.04.2016 21:09 10,3 C 53 % 1017,3 hPa 0,0 l/m 5,5 km/h (1 Bft) O-NO 78 0 min 0,000 mm 0,0 UV-I 0 W/m 1,1 C 10,3 C 6,4 km/h (2 Bft) 100,00 %
29.04.2016 21:10 10,3 C 54 % 1017,3 hPa 0,0 l/m 5,3 km/h (1 Bft) O 82 0 min 0,000 mm 0,0 UV-I 0 W/m 1,4 C 10,3 C 6,4 km/h (2 Bft) 100,00 %
29.04.2016 21:11 10,2 C 54 % 1017,3 hPa 0,0 l/m 4,4 km/h (1 Bft) O 87 0 min 0,000 mm 0,0 UV-I 0 W/m 1,3 C 10,2 C 6,4 km/h (2 Bft) 100,00 %
29.04.2016 21:12 10,0 C 54 % 1017,3 hPa 0,0 l/m 4,6 km/h (1 Bft) O-NO 63 0 min 0,000 mm 0,0 UV-I 0 W/m 1,1 C 10,0 C 6,4 km/h (2 Bft) 95,65 %
29.04.2016 21:13 9,9 C 53 % 1017,3 hPa 0,0 l/m 5,5 km/h (1 Bft) O 96 0 min 0,000 mm 0,0 UV-I 0 W/m 0,8 C 9,9 C 8,0 km/h (2 Bft) 95,83 %
29.04.2016 21:14 9,9 C 53 % 1017,3 hPa 0,0 l/m 6,0 km/h (2 Bft) O-NO 78 0 min 0,000 mm 0,0 UV-I 0 W/m 0,8 C 9,9 C 8,0 km/h (2 Bft) 100,00 %
29.04.2016 21:15 9,9 C 52 % 1017,4 hPa 0,0 l/m 6,2 km/h (2 Bft) O 84 0 min 0,000 mm 0,0 UV-I 0 W/m 0,5 C 9,9 C 11,3 km/h (2 Bft) 95,65 %
29.04.2016 21:16 9,9 C 52 % 1017,4 hPa 0,0 l/m 6,0 km/h (2 Bft) O-NO 63 0 min 0,000 mm 0,0 UV-I 0 W/m 0,5 C 9,9 C 9,7 km/h (2 Bft) 100,00 %
29.04.2016 21:17 10,0 C 52 % 1017,4 hPa 0,0 l/m 5,8 km/h (2 Bft) O 82 0 min 0,000 mm 0,0 UV-I 0 W/m 0,6 C 10,0 C 9,7 km/h (2 Bft) 100,00 %
29.04.2016 21:18 10,1 C 51 % 1017,4 hPa 0,0 l/m 5,3 km/h (1 Bft) O 86 0 min 0,000 mm 0,0 UV-I 0 W/m 0,4 C 10,1 C 6,4 km/h (2 Bft) 95,83 %
29.04.2016 21:19 10,2 C 51 % 1017,4 hPa 0,0 l/m 5,2 km/h (1 Bft) O 79 0 min 0,000 mm 0,0 UV-I 0 W/m 0,5 C 10,2 C 8,0 km/h (2 Bft) 100,00 %
29.04.2016 21:20 10,3 C 50 % 1017,4 hPa 0,0 l/m 7,6 km/h (2 Bft) O 89 0 min 0,000 mm 0,0 UV-I 0 W/m 0,3 C 9,4 C 12,9 km/h (3 Bft) 95,83 %
29.04.2016 21:21 10,4 C 50 % 1017,4 hPa 0,0 l/m 7,2 km/h (2 Bft) O-NO 63 0 min 0,000 mm 0,0 UV-I 0 W/m 0,4 C 9,8 C 11,3 km/h (2 Bft) 100,00 %
29.04.2016 21:22 10,4 C 50 % 1017,4 hPa 0,0 l/m 6,5 km/h (2 Bft) O 85 0 min 0,000 mm 0,0 UV-I 0 W/m 0,4 C 10,4 C 11,3 km/h (2 Bft) 91,67 %
29.04.2016 21:23 10,4 C 51 % 1017,4 hPa 0,0 l/m 6,2 km/h (2 Bft) O-NO 78 0 min 0,000 mm 0,0 UV-I 0 W/m 0,7 C 10,4 C 11,3 km/h (2 Bft) 86,96 %
29.04.2016 21:24 10,4 C 51 % 1017,4 hPa 0,0 l/m 8,5 km/h (2 Bft) O-NO 60 0 min 0,000 mm 0,0 UV-I 0 W/m 0,7 C 8,9 C 11,3 km/h (2 Bft) 100,00 %
29.04.2016 21:25 10,4 C 51 % 1017,4 hPa 0,0 l/m 7,0 km/h (2 Bft) O-NO 77 0 min 0,000 mm 0,0 UV-I 0 W/m 0,7 C 10,0 C 11,3 km/h (2 Bft) 96,15 %
29.04.2016 21:26 10,4 C 51 % 1017,4 hPa 0,0 l/m 5,9 km/h (2 Bft) O-NO 75 0 min 0,000 mm 0,0 UV-I 0 W/m 0,7 C 10,4 C 8,0 km/h (2 Bft) 100,00 %
29.04.2016 21:27 10,4 C 50 % 1017,4 hPa 0,0 l/m 6,8 km/h (2 Bft) O-NO 76 0 min 0,000 mm 0,0 UV-I 0 W/m 0,4 C 10,1 C 9,7 km/h (2 Bft) 91,30 %
29.04.2016 21:28 10,4 C 51 % 1017,4 hPa 0,0 l/m 6,8 km/h (2 Bft) O-NO 70 0 min 0,000 mm 0,0 UV-I 0 W/m 0,7 C 10,1 C 8,0 km/h (2 Bft) 100,00 %
29.04.2016 21:29 10,4 C 51 % 1017,5 hPa 0,0 l/m 6,1 km/h (2 Bft) O-NO 74 0 min 0,000 mm 0,0 UV-I 0 W/m 0,7 C 10,4 C 8,0 km/h (2 Bft) 82,61 %
29.04.2016 21:30 10,4 C 51 % 1017,4 hPa 0,0 l/m 7,3 km/h (2 Bft) O-NO 74 0 min 0,000 mm 0,0 UV-I 0 W/m 0,7 C 9,8 C 11,3 km/h (2 Bft) 95,83 %
29.04.2016 21:31 10,4 C 51 % 1017,5 hPa 0,0 l/m 5,3 km/h (1 Bft) O-NO 77 0 min 0,000 mm 0,0 UV-I 0 W/m 0,7 C 10,4 C 11,3 km/h (2 Bft) 100,00 %
29.04.2016 21:32 10,4 C 52 % 1017,4 hPa 0,0 l/m 5,0 km/h (1 Bft) O-NO 74 0 min 0,000 mm 0,0 UV-I 0 W/m 1,0 C 10,4 C 8,0 km/h (2 Bft) 100,00 %
29.04.2016 21:33 10,4 C 52 % 1017,4 hPa 0,0 l/m 5,6 km/h (1 Bft) O-NO 62 0 min 0,000 mm 0,0 UV-I 0 W/m 1,0 C 10,4 C 8,0 km/h (2 Bft) 96,43 %
29.04.2016 21:34 10,3 C 53 % 1017,4 hPa 0,0 l/m 5,5 km/h (1 Bft) O-NO 64 0 min 0,000 mm 0,0 UV-I 0 W/m 1,1 C 10,3 C 8,0 km/h (2 Bft) 95,65 %
29.04.2016 21:35 10,3 C 53 % 1017,4 hPa 0,0 l/m 7,1 km/h (2 Bft) O-NO 71 0 min 0,000 mm 0,0 UV-I 0 W/m 1,1 C 9,8 C 9,7 km/h (2 Bft) 100,00 %
29.04.2016 21:36 10,2 C 54 % 1017,4 hPa 0,0 l/m 6,4 km/h (2 Bft) O-NO 62 0 min 0,000 mm 0,0 UV-I 0 W/m 1,3 C 10,2 C 8,0 km/h (2 Bft) 95,65 %
29.04.2016 21:37 10,2 C 54 % 1017,4 hPa 0,0 l/m 6,4 km/h (2 Bft) O-NO 78 0 min 0,000 mm 0,0 UV-I 0 W/m 1,3 C 10,2 C 8,0 km/h (2 Bft) 100,00 %
29.04.2016 21:38 10,1 C 54 % 1017,4 hPa 0,0 l/m 4,8 km/h (1 Bft) O-NO 58 0 min 0,000 mm 0,0 UV-I 0 W/m 1,2 C 10,1 C 6,4 km/h (2 Bft) 95,65 %
29.04.2016 21:39 10,0 C 55 % 1017,5 hPa 0,0 l/m 6,9 km/h (2 Bft) O 82 0 min 0,000 mm 0,0 UV-I 0 W/m 1,4 C 9,6 C 8,0 km/h (2 Bft) 95,83 %
29.04.2016 21:40 9,9 C 55 % 1017,4 hPa 0,0 l/m 6,0 km/h (2 Bft) O-NO 74 0 min 0,000 mm 0,0 UV-I 0 W/m 1,3 C 9,9 C 8,0 km/h (2 Bft) 100,00 %
29.04.2016 21:41 9,9 C 55 % 1017,4 hPa 0,0 l/m 7,8 km/h (2 Bft) O-NO 63 0 min 0,000 mm 0,0 UV-I 0 W/m 1,3 C 8,9 C 11,3 km/h (2 Bft) 95,83 %
29.04.2016 21:42 9,9 C 55 % 1017,4 hPa 0,0 l/m 6,5 km/h (2 Bft) O-NO 71 0 min 0,000 mm 0,0 UV-I 0 W/m 1,3 C 9,9 C 8,0 km/h (2 Bft) 100,00 %
29.04.2016 21:43 9,8 C 56 % 1017,4 hPa 0,0 l/m 6,6 km/h (2 Bft) O-NO 65 0 min 0,000 mm 0,0 UV-I 0 W/m 1,4 C 9,7 C 9,7 km/h (2 Bft) 91,67 %
29.04.2016 21:44 9,8 C 56 % 1017,4 hPa 0,0 l/m 7,8 km/h (2 Bft) O-NO 69 0 min 0,000 mm 0,0 UV-I 0 W/m 1,4 C 8,8 C 11,3 km/h (2 Bft) 100,00 %
29.04.2016 21:45 9,8 C 56 % 1017,4 hPa 0,0 l/m 7,4 km/h (2 Bft) O 86 0 min 0,000 mm 0,0 UV-I 0 W/m 1,4 C 9,1 C 9,7 km/h (2 Bft) 95,83 %
29.04.2016 21:46 9,8 C 57 % 1017,4 hPa 0,0 l/m 7,8 km/h (2 Bft) O 86 0 min 0,000 mm 0,0 UV-I 0 W/m 1,7 C 8,8 C 12,9 km/h (3 Bft) 95,65 %
29.04.2016 21:47 9,7 C 57 % 1017,4 hPa 0,0 l/m 7,6 km/h (2 Bft) O-NO 72 0 min 0,000 mm 0,0 UV-I 0 W/m 1,6 C 8,8 C 11,3 km/h (2 Bft) 100,00 %
29.04.2016 21:48 9,7 C 57 % 1017,5 hPa 0,0 l/m 8,9 km/h (2 Bft) O-NO 78 0 min 0,000 mm 0,0 UV-I 0 W/m 1,6 C 7,9 C 14,5 km/h (3 Bft) 95,65 %
29.04.2016 21:49 9,7 C 57 % 1017,5 hPa 0,0 l/m 8,7 km/h (2 Bft) O 80 0 min 0,000 mm 0,0 UV-I 0 W/m 1,6 C 8,1 C 12,9 km/h (3 Bft) 100,00 %
29.04.2016 21:50 9,7 C 57 % 1017,4 hPa 0,0 l/m 6,4 km/h (2 Bft) NO 40 0 min 0,000 mm 0,0 UV-I 0 W/m 1,6 C 9,7 C 8,0 km/h (2 Bft) 100,00 %
29.04.2016 21:51 9,7 C 58 % 1017,5 hPa 0,0 l/m 7,8 km/h (2 Bft) O-NO 71 0 min 0,000 mm 0,0 UV-I 0 W/m 1,8 C 8,7 C 9,7 km/h (2 Bft) 96,55 %
29.04.2016 21:52 9,7 C 58 % 1017,5 hPa 0,0 l/m 10,2 km/h (2 Bft) O-NO 78 0 min 0,000 mm 0,0 UV-I 0 W/m 1,8 C 7,1 C 14,5 km/h (3 Bft) 96,15 %
29.04.2016 21:53 9,7 C 58 % 1017,5 hPa 0,0 l/m 13,3 km/h (3 Bft) NO 53 0 min 0,000 mm 0,0 UV-I 0 W/m 1,8 C 5,5 C 17,7 km/h (3 Bft) 100,00 %
29.04.2016 21:54 9,7 C 58 % 1017,5 hPa 0,0 l/m 12,9 km/h (3 Bft) O 80 0 min 0,000 mm 0,0 UV-I 0 W/m 1,8 C 5,7 C 17,7 km/h (3 Bft) 95,65 %
29.04.2016 21:55 9,7 C 58 % 1017,5 hPa 0,0 l/m 12,0 km/h (2 Bft) O-NO 75 0 min 0,000 mm 0,0 UV-I 0 W/m 1,8 C 6,2 C 14,5 km/h (3 Bft) 100,00 %
29.04.2016 21:56 9,7 C 58 % 1017,5 hPa 0,0 l/m 11,5 km/h (2 Bft) O-NO 67 0 min 0,000 mm 0,0 UV-I 0 W/m 1,8 C 6,4 C 16,1 km/h (3 Bft) 100,00 %
29.04.2016 21:57 9,7 C 58 % 1017,5 hPa 0,0 l/m 10,9 km/h (2 Bft) O 85 0 min 0,000 mm 0,0 UV-I 0 W/m 1,8 C 6,8 C 14,5 km/h (3 Bft) 95,65 %
29.04.2016 21:58 9,7 C 58 % 1017,4 hPa 0,0 l/m 14,5 km/h (3 Bft) O 89 0 min 0,000 mm 0,0 UV-I 0 W/m 1,8 C 5,0 C 17,7 km/h (3 Bft) 100,00 %
29.04.2016 21:59 9,8 C 58 % 1017,5 hPa 0,0 l/m 13,6 km/h (3 Bft) O-NO 75 0 min 0,000 mm 0,0 UV-I 0 W/m 1,9 C 5,5 C 19,3 km/h (3 Bft) 95,65 %
29.04.2016 22:00 9,8 C 58 % 1017,5 hPa 0,0 l/m 14,3 km/h (3 Bft) O-NO 67 0 min 0,000 mm 0,0 UV-I 0 W/m 1,9 C 5,2 C 19,3 km/h (3 Bft) 100,00 %
29.04.2016 22:02 9,8 C 58 % 1017,5 hPa 0,0 l/m 12,0 km/h (2 Bft) O 83 0 min 0,051 mm 0,0 UV-I 0 W/m 1,9 C 6,3 C 19,3 km/h (3 Bft) 100,00 %
29.04.2016 22:03 9,8 C 58 % 1017,5 hPa 0,0 l/m 11,0 km/h (2 Bft) O-NO 77 0 min 0,000 mm 0,0 UV-I 0 W/m 1,9 C 6,8 C 17,7 km/h (3 Bft) 100,00 %
29.04.2016 22:04 9,8 C 58 % 1017,5 hPa 0,0 l/m 13,1 km/h (3 Bft) O 79 0 min 0,000 mm 0,0 UV-I 0 W/m 1,9 C 5,7 C 20,9 km/h (4 Bft) 100,00 %
29.04.2016 22:05 9,8 C 58 % 1017,5 hPa 0,0 l/m 10,8 km/h (2 Bft) O-NO 74 0 min 0,000 mm 0,0 UV-I 0 W/m 1,9 C 6,9 C 14,5 km/h (3 Bft) 100,00 %
29.04.2016 22:06 9,8 C 59 % 1017,5 hPa 0,0 l/m 12,1 km/h (2 Bft) O 96 0 min 0,000 mm 0,0 UV-I 0 W/m 2,2 C 6,2 C 16,1 km/h (3 Bft) 95,83 %
29.04.2016 22:07 9,8 C 59 % 1017,5 hPa 0,0 l/m 13,9 km/h (3 Bft) O-NO 64 0 min 0,000 mm 0,0 UV-I 0 W/m 2,2 C 5,4 C 19,3 km/h (3 Bft) 100,00 %
29.04.2016 22:08 9,8 C 59 % 1017,4 hPa 0,0 l/m 13,6 km/h (3 Bft) O 80 0 min 0,000 mm 0,0 UV-I 0 W/m 2,2 C 5,5 C 16,1 km/h (3 Bft) 95,83 %
29.04.2016 22:09 9,7 C 59 % 1017,4 hPa 0,0 l/m 12,2 km/h (2 Bft) O 85 0 min 0,000 mm 0,0 UV-I 0 W/m 2,1 C 6,1 C 16,1 km/h (3 Bft) 100,00 %
29.04.2016 22:10 9,7 C 59 % 1017,5 hPa 0,0 l/m 12,0 km/h (2 Bft) O-NO 78 0 min 0,000 mm 0,0 UV-I 0 W/m 2,1 C 6,2 C 16,1 km/h (3 Bft) 100,00 %
29.04.2016 22:11 9,7 C 59 % 1017,4 hPa 0,0 l/m 13,4 km/h (3 Bft) O 80 0 min 0,000 mm 0,0 UV-I 0 W/m 2,1 C 5,5 C 22,5 km/h (4 Bft) 100,00 %
29.04.2016 22:12 9,7 C 59 % 1017,5 hPa 0,0 l/m 10,5 km/h (2 Bft) O 80 0 min 0,000 mm 0,0 UV-I 0 W/m 2,1 C 7,0 C 12,9 km/h (3 Bft) 100,00 %
29.04.2016 22:13 9,7 C 59 % 1017,4 hPa 0,0 l/m 9,3 km/h (2 Bft) O-SO 106 0 min 0,000 mm 0,0 UV-I 0 W/m 2,1 C 7,7 C 17,7 km/h (3 Bft) 100,00 %
29.04.2016 22:14 9,7 C 60 % 1017,4 hPa 0,0 l/m 9,1 km/h (2 Bft) NO 56 0 min 0,000 mm 0,0 UV-I 0 W/m 2,3 C 7,8 C 14,5 km/h (3 Bft) 100,00 %
29.04.2016 22:15 9,6 C 59 % 1017,4 hPa 0,0 l/m 9,5 km/h (2 Bft) O 97 0 min 0,000 mm 0,0 UV-I 0 W/m 2,0 C 7,5 C 12,9 km/h (3 Bft) 100,00 %
29.04.2016 22:16 9,6 C 59 % 1017,4 hPa 0,0 l/m 7,6 km/h (2 Bft) O 87 0 min 0,000 mm 0,0 UV-I 0 W/m 2,0 C 8,7 C 11,3 km/h (2 Bft) 100,00 %
29.04.2016 22:17 9,6 C 60 % 1017,4 hPa 0,0 l/m 9,9 km/h (2 Bft) O-NO 77 0 min 0,000 mm 0,0 UV-I 0 W/m 2,2 C 7,2 C 12,9 km/h (3 Bft) 95,83 %
29.04.2016 22:18 9,6 C 60 % 1017,4 hPa 0,0 l/m 8,6 km/h (2 Bft) O 87 0 min 0,000 mm 0,0 UV-I 0 W/m 2,2 C 8,0 C 12,9 km/h (3 Bft) 95,65 %
29.04.2016 22:19 9,6 C 60 % 1017,4 hPa 0,0 l/m 10,0 km/h (2 Bft) O 88 0 min 0,000 mm 0,0 UV-I 0 W/m 2,2 C 7,2 C 16,1 km/h (3 Bft) 100,00 %
29.04.2016 22:20 9,6 C 60 % 1017,4 hPa 0,0 l/m 7,6 km/h (2 Bft) O 82 0 min 0,000 mm 0,0 UV-I 0 W/m 2,2 C 8,7 C 11,3 km/h (2 Bft) 100,00 %
29.04.2016 22:21 9,6 C 59 % 1017,4 hPa 0,0 l/m 7,6 km/h (2 Bft) O-NO 74 0 min 0,000 mm 0,0 UV-I 0 W/m 2,0 C 8,7 C 12,9 km/h (3 Bft) 100,00 %
29.04.2016 22:22 9,5 C 60 % 1017,3 hPa 0,0 l/m 12,5 km/h (3 Bft) O-NO 65 0 min 0,000 mm 0,0 UV-I 0 W/m 2,1 C 5,7 C 17,7 km/h (3 Bft) 100,00 %
29.04.2016 22:23 9,6 C 59 % 1017,3 hPa 0,0 l/m 9,0 km/h (2 Bft) O-SO 119 0 min 0,000 mm 0,0 UV-I 0 W/m 2,0 C 7,8 C 14,5 km/h (3 Bft) 100,00 %
29.04.2016 22:24 9,5 C 59 % 1017,3 hPa 0,0 l/m 9,7 km/h (2 Bft) O-NO 63 0 min 0,000 mm 0,0 UV-I 0 W/m 1,9 C 7,2 C 14,5 km/h (3 Bft) 100,00 %
29.04.2016 22:25 9,5 C 59 % 1017,3 hPa 0,0 l/m 7,6 km/h (2 Bft) SO 128 0 min 0,000 mm 0,0 UV-I 0 W/m 1,9 C 8,6 C 12,9 km/h (3 Bft) 100,00 %
29.04.2016 22:26 9,5 C 60 % 1017,2 hPa 0,0 l/m 8,9 km/h (2 Bft) O 91 0 min 0,000 mm 0,0 UV-I 0 W/m 2,1 C 7,7 C 14,5 km/h (3 Bft) 100,00 %
29.04.2016 22:27 9,5 C 60 % 1017,2 hPa 0,0 l/m 11,9 km/h (2 Bft) O-NO 60 0 min 0,000 mm 0,0 UV-I 0 W/m 2,1 C 6,0 C 16,1 km/h (3 Bft) 100,00 %
29.04.2016 22:28 9,5 C 59 % 1017,3 hPa 0,0 l/m 11,6 km/h (2 Bft) O 93 0 min 0,000 mm 0,0 UV-I 0 W/m 1,9 C 6,1 C 19,3 km/h (3 Bft) 95,65 %
29.04.2016 22:29 9,5 C 60 % 1017,3 hPa 0,0 l/m 8,1 km/h (2 Bft) NO 53 0 min 0,000 mm 0,0 UV-I 0 W/m 2,1 C 8,3 C 16,1 km/h (3 Bft) 100,00 %
29.04.2016 22:30 9,4 C 60 % 1017,3 hPa 0,0 l/m 11,3 km/h (2 Bft) O-NO 76 0 min 0,000 mm 0,0 UV-I 0 W/m 2,0 C 6,2 C 14,5 km/h (3 Bft) 100,00 %
29.04.2016 22:31 9,4 C 60 % 1017,3 hPa 0,0 l/m 12,7 km/h (3 Bft) O 88 0 min 0,000 mm 0,0 UV-I 0 W/m 2,0 C 5,5 C 14,5 km/h (3 Bft) 100,00 %
29.04.2016 22:32 9,4 C 59 % 1017,3 hPa 0,0 l/m 7,8 km/h (2 Bft) O 84 0 min 0,000 mm 0,0 UV-I 0 W/m 1,8 C 8,4 C 12,9 km/h (3 Bft) 100,00 %
29.04.2016 22:33 9,4 C 59 % 1017,3 hPa 0,0 l/m 11,7 km/h (2 Bft) O-NO 65 0 min 0,000 mm 0,0 UV-I 0 W/m 1,8 C 6,0 C 17,7 km/h (3 Bft) 91,67 %
29.04.2016 22:34 9,4 C 60 % 1017,3 hPa 0,0 l/m 11,1 km/h (2 Bft) O-NO 72 0 min 0,000 mm 0,0 UV-I 0 W/m 2,0 C 6,3 C 14,5 km/h (3 Bft) 100,00 %
29.04.2016 22:35 9,4 C 60 % 1017,3 hPa 0,0 l/m 9,0 km/h (2 Bft) O-SO 107 0 min 0,000 mm 0,0 UV-I 0 W/m 2,0 C 7,6 C 12,9 km/h (3 Bft) 100,00 %
29.04.2016 22:36 9,4 C 60 % 1017,3 hPa 0,0 l/m 11,6 km/h (2 Bft) O-NO 70 0 min 0,000 mm 0,0 UV-I 0 W/m 2,0 C 6,0 C 16,1 km/h (3 Bft) 100,00 %
29.04.2016 22:37 9,4 C 59 % 1017,3 hPa 0,0 l/m 11,3 km/h (2 Bft) O 89 0 min 0,000 mm 0,0 UV-I 0 W/m 1,8 C 6,2 C 16,1 km/h (3 Bft) 100,00 %
29.04.2016 22:38 9,4 C 59 % 1017,3 hPa 0,0 l/m 9,1 km/h (2 Bft) O-NO 68 0 min 0,000 mm 0,0 UV-I 0 W/m 1,8 C 7,5 C 12,9 km/h (3 Bft) 100,00 %
29.04.2016 22:39 9,4 C 59 % 1017,3 hPa 0,0 l/m 10,5 km/h (2 Bft) O 79 0 min 0,000 mm 0,0 UV-I 0 W/m 1,8 C 6,6 C 16,1 km/h (3 Bft) 100,00 %
29.04.2016 22:40 9,4 C 60 % 1017,3 hPa 0,0 l/m 7,6 km/h (2 Bft) O-NO 74 0 min 0,000 mm 0,0 UV-I 0 W/m 2,0 C 8,5 C 12,9 km/h (3 Bft) 95,83 %
29.04.2016 22:41 9,4 C 60 % 1017,3 hPa 0,0 l/m 9,1 km/h (2 Bft) O 82 0 min 0,000 mm 0,0 UV-I 0 W/m 2,0 C 7,5 C 14,5 km/h (3 Bft) 100,00 %
29.04.2016 22:42 9,3 C 60 % 1017,3 hPa 0,0 l/m 9,8 km/h (2 Bft) O 86 0 min 0,000 mm 0,0 UV-I 0 W/m 1,9 C 6,9 C 12,9 km/h (3 Bft) 100,00 %
29.04.2016 22:43 9,3 C 60 % 1017,3 hPa 0,0 l/m 8,6 km/h (2 Bft) O-NO 65 0 min 0,000 mm 0,0 UV-I 0 W/m 1,9 C 7,7 C 12,9 km/h (3 Bft) 100,00 %
29.04.2016 22:44 9,2 C 60 % 1017,3 hPa 0,0 l/m 7,8 km/h (2 Bft) O-NO 63 0 min 0,000 mm 0,0 UV-I 0 W/m 1,8 C 8,2 C 11,3 km/h (2 Bft) 100,00 %
29.04.2016 22:45 9,2 C 60 % 1017,3 hPa 0,0 l/m 12,2 km/h (2 Bft) O 92 0 min 0,000 mm 0,0 UV-I 0 W/m 1,8 C 5,5 C 16,1 km/h (3 Bft) 92,59 %
29.04.2016 22:46 9,2 C 61 % 1017,4 hPa 0,0 l/m 9,0 km/h (2 Bft) O 83 0 min 0,000 mm 0,0 UV-I 0 W/m 2,1 C 7,3 C 12,9 km/h (3 Bft) 100,00 %
29.04.2016 22:47 9,2 C 60 % 1017,3 hPa 0,0 l/m 11,1 km/h (2 Bft) O-NO 65 0 min 0,000 mm 0,0 UV-I 0 W/m 1,8 C 6,1 C 14,5 km/h (3 Bft) 95,65 %
29.04.2016 22:48 9,2 C 61 % 1017,3 hPa 0,0 l/m 10,1 km/h (2 Bft) O-NO 69 0 min 0,000 mm 0,0 UV-I 0 W/m 2,1 C 6,7 C 12,9 km/h (3 Bft) 100,00 %
29.04.2016 22:49 9,2 C 60 % 1017,3 hPa 0,0 l/m 9,7 km/h (2 Bft) SO 125 0 min 0,000 mm 0,0 UV-I 0 W/m 1,8 C 6,9 C 17,7 km/h (3 Bft) 100,00 %
29.04.2016 22:50 9,2 C 60 % 1017,3 hPa 0,0 l/m 6,8 km/h (2 Bft) O 95 0 min 0,000 mm 0,0 UV-I 0 W/m 1,8 C 8,9 C 9,7 km/h (2 Bft) 96,30 %
29.04.2016 22:51 9,2 C 60 % 1017,3 hPa 0,0 l/m 10,0 km/h (2 Bft) O-NO 73 0 min 0,000 mm 0,0 UV-I 0 W/m 1,8 C 6,7 C 14,5 km/h (3 Bft) 91,30 %
29.04.2016 22:52 9,1 C 60 % 1017,3 hPa 0,0 l/m 7,6 km/h (2 Bft) O 87 0 min 0,000 mm 0,0 UV-I 0 W/m 1,8 C 8,2 C 14,5 km/h (3 Bft) 100,00 %
29.04.2016 22:53 9,1 C 60 % 1017,3 hPa 0,0 l/m 10,4 km/h (2 Bft) O-NO 70 0 min 0,000 mm 0,0 UV-I 0 W/m 1,8 C 6,4 C 14,5 km/h (3 Bft) 100,00 %
29.04.2016 22:54 9,1 C 60 % 1017,3 hPa 0,0 l/m 9,4 km/h (2 Bft) O 81 0 min 0,000 mm 0,0 UV-I 0 W/m 1,8 C 7,0 C 16,1 km/h (3 Bft) 100,00 %
29.04.2016 22:55 9,1 C 60 % 1017,3 hPa 0,0 l/m 9,6 km/h (2 Bft) O-SO 104 0 min 0,000 mm 0,0 UV-I 0 W/m 1,8 C 6,8 C 12,9 km/h (3 Bft) 100,00 %
29.04.2016 22:56 9,1 C 60 % 1017,3 hPa 0,0 l/m 11,0 km/h (2 Bft) O-NO 71 0 min 0,000 mm 0,0 UV-I 0 W/m 1,8 C 6,0 C 14,5 km/h (3 Bft) 100,00 %
29.04.2016 22:57 9,1 C 60 % 1017,3 hPa 0,0 l/m 10,2 km/h (2 Bft) O-NO 67 0 min 0,000 mm 0,0 UV-I 0 W/m 1,8 C 6,5 C 14,5 km/h (3 Bft) 100,00 %
29.04.2016 22:58 9,1 C 60 % 1017,3 hPa 0,0 l/m 9,1 km/h (2 Bft) O-NO 60 0 min 0,000 mm 0,0 UV-I 0 W/m 1,8 C 7,2 C 12,9 km/h (3 Bft) 100,00 %
29.04.2016 22:59 9,1 C 60 % 1017,3 hPa 0,0 l/m 9,2 km/h (2 Bft) NO 55 0 min 0,000 mm 0,0 UV-I 0 W/m 1,8 C 7,1 C 12,9 km/h (3 Bft) 100,00 %
29.04.2016 23:00 9,1 C 60 % 1017,3 hPa 0,0 l/m 10,4 km/h (2 Bft) O-NO 67 0 min 0,000 mm 0,0 UV-I 0 W/m 1,8 C 6,4 C 14,5 km/h (3 Bft) 100,00 %
29.04.2016 23:02 9,1 C 61 % 1017,3 hPa 0,0 l/m 10,2 km/h (2 Bft) O-NO 74 0 min 0,050 mm 0,0 UV-I 0 W/m 2,0 C 6,5 C 12,9 km/h (3 Bft) 100,00 %
29.04.2016 23:03 9,0 C 61 % 1017,3 hPa 0,0 l/m 10,0 km/h (2 Bft) O-NO 71 0 min 0,000 mm 0,0 UV-I 0 W/m 1,9 C 6,5 C 14,5 km/h (3 Bft) 100,00 %
29.04.2016 23:04 8,9 C 61 % 1017,2 hPa 0,0 l/m 9,5 km/h (2 Bft) O-NO 65 0 min 0,000 mm 0,0 UV-I 0 W/m 1,8 C 6,7 C 12,9 km/h (3 Bft) 100,00 %
29.04.2016 23:05 8,8 C 61 % 1017,3 hPa 0,0 l/m 9,1 km/h (2 Bft) O-NO 63 0 min 0,000 mm 0,0 UV-I 0 W/m 1,7 C 6,8 C 12,9 km/h (3 Bft) 95,83 %
29.04.2016 23:06 8,8 C 61 % 1017,2 hPa 0,0 l/m 9,8 km/h (2 Bft) O-NO 74 0 min 0,000 mm 0,0 UV-I 0 W/m 1,7 C 6,4 C 12,9 km/h (3 Bft) 100,00 %
29.04.2016 23:07 8,8 C 62 % 1017,2 hPa 0,0 l/m 7,8 km/h (2 Bft) O-NO 74 0 min 0,000 mm 0,0 UV-I 0 W/m 1,9 C 7,7 C 11,3 km/h (2 Bft) 100,00 %
29.04.2016 23:08 8,7 C 62 % 1017,2 hPa 0,0 l/m 7,6 km/h (2 Bft) O 91 0 min 0,000 mm 0,0 UV-I 0 W/m 1,8 C 7,8 C 12,9 km/h (3 Bft) 100,00 %
29.04.2016 23:09 8,7 C 62 % 1017,2 hPa 0,0 l/m 9,6 km/h (2 Bft) O 82 0 min 0,000 mm 0,0 UV-I 0 W/m 1,8 C 6,4 C 12,9 km/h (3 Bft) 100,00 %
29.04.2016 23:10 8,6 C 62 % 1017,2 hPa 0,0 l/m 8,0 km/h (2 Bft) O 79 0 min 0,000 mm 0,0 UV-I 0 W/m 1,7 C 7,4 C 12,9 km/h (3 Bft) 100,00 %
29.04.2016 23:11 8,6 C 62 % 1017,2 hPa 0,0 l/m 7,6 km/h (2 Bft) O-NO 67 0 min 0,000 mm 0,0 UV-I 0 W/m 1,7 C 7,7 C 12,9 km/h (3 Bft) 100,00 %
29.04.2016 23:12 8,5 C 62 % 1017,2 hPa 0,0 l/m 9,6 km/h (2 Bft) NO 49 0 min 0,000 mm 0,0 UV-I 0 W/m 1,6 C 6,2 C 12,9 km/h (3 Bft) 100,00 %
29.04.2016 23:13 8,5 C 63 % 1017,2 hPa 0,0 l/m 10,6 km/h (2 Bft) O-NO 74 0 min 0,000 mm 0,0 UV-I 0 W/m 1,9 C 5,6 C 12,9 km/h (3 Bft) 100,00 %
29.04.2016 23:14 8,5 C 63 % 1017,2 hPa 0,0 l/m 10,8 km/h (2 Bft) O-NO 71 0 min 0,000 mm 0,0 UV-I 0 W/m 1,9 C 5,5 C 14,5 km/h (3 Bft) 100,00 %
29.04.2016 23:15 8,4 C 63 % 1017,2 hPa 0,0 l/m 9,5 km/h (2 Bft) O-NO 70 0 min 0,000 mm 0,0 UV-I 0 W/m 1,8 C 6,1 C 12,9 km/h (3 Bft) 100,00 %
29.04.2016 23:16 8,4 C 63 % 1017,2 hPa 0,0 l/m 9,9 km/h (2 Bft) O-NO 71 0 min 0,000 mm 0,0 UV-I 0 W/m 1,8 C 5,9 C 12,9 km/h (3 Bft) 100,00 %
29.04.2016 23:17 8,4 C 63 % 1017,2 hPa 0,0 l/m 9,5 km/h (2 Bft) O 89 0 min 0,000 mm 0,0 UV-I 0 W/m 1,8 C 6,1 C 12,9 km/h (3 Bft) 100,00 %
29.04.2016 23:18 8,4 C 62 % 1017,2 hPa 0,0 l/m 9,1 km/h (2 Bft) O-NO 73 0 min 0,000 mm 0,0 UV-I 0 W/m 1,6 C 6,4 C 11,3 km/h (2 Bft) 100,00 %
29.04.2016 23:19 8,4 C 62 % 1017,2 hPa 0,0 l/m 10,5 km/h (2 Bft) O 91 0 min 0,000 mm 0,0 UV-I 0 W/m 1,6 C 5,5 C 16,1 km/h (3 Bft) 100,00 %
29.04.2016 23:20 8,4 C 62 % 1017,2 hPa 0,0 l/m 9,6 km/h (2 Bft) O-NO 59 0 min 0,000 mm 0,0 UV-I 0 W/m 1,6 C 6,1 C 12,9 km/h (3 Bft) 100,00 %
29.04.2016 23:21 8,4 C 62 % 1017,2 hPa 0,0 l/m 10,5 km/h (2 Bft) O-NO 71 0 min 0,000 mm 0,0 UV-I 0 W/m 1,6 C 5,5 C 14,5 km/h (3 Bft) 95,65 %
29.04.2016 23:22 8,4 C 62 % 1017,2 hPa 0,0 l/m 8,9 km/h (2 Bft) O-NO 68 0 min 0,000 mm 0,0 UV-I 0 W/m 1,6 C 6,5 C 12,9 km/h (3 Bft) 100,00 %
29.04.2016 23:23 8,4 C 62 % 1017,2 hPa 0,0 l/m 11,5 km/h (2 Bft) O-NO 65 0 min 0,000 mm 0,0 UV-I 0 W/m 1,6 C 4,9 C 14,5 km/h (3 Bft) 100,00 %
29.04.2016 23:24 8,5 C 62 % 1017,2 hPa 0,0 l/m 9,5 km/h (2 Bft) O-NO 62 0 min 0,000 mm 0,0 UV-I 0 W/m 1,6 C 6,3 C 12,9 km/h (3 Bft) 100,00 %
29.04.2016 23:25 8,4 C 62 % 1017,1 hPa 0,0 l/m 10,0 km/h (2 Bft) O-NO 65 0 min 0,000 mm 0,0 UV-I 0 W/m 1,6 C 5,8 C 12,9 km/h (3 Bft) 100,00 %
29.04.2016 23:26 8,4 C 62 % 1017,2 hPa 0,0 l/m 11,0 km/h (2 Bft) O 81 0 min 0,000 mm 0,0 UV-I 0 W/m 1,6 C 5,2 C 16,1 km/h (3 Bft) 100,00 %
29.04.2016 23:27 8,4 C 62 % 1017,1 hPa 0,0 l/m 9,9 km/h (2 Bft) O-NO 78 0 min 0,000 mm 0,0 UV-I 0 W/m 1,6 C 5,9 C 14,5 km/h (3 Bft) 91,30 %
29.04.2016 23:28 8,4 C 62 % 1017,1 hPa 0,0 l/m 11,5 km/h (2 Bft) O-NO 69 0 min 0,000 mm 0,0 UV-I 0 W/m 1,6 C 4,9 C 16,1 km/h (3 Bft) 100,00 %
29.04.2016 23:29 8,4 C 62 % 1017,1 hPa 0,0 l/m 10,8 km/h (2 Bft) O-NO 66 0 min 0,000 mm 0,0 UV-I 0 W/m 1,6 C 5,3 C 17,7 km/h (3 Bft) 95,83 %
29.04.2016 23:30 8,4 C 62 % 1017,2 hPa 0,0 l/m 9,5 km/h (2 Bft) O-NO 70 0 min 0,000 mm 0,0 UV-I 0 W/m 1,6 C 6,1 C 12,9 km/h (3 Bft) 100,00 %
29.04.2016 23:31 8,4 C 62 % 1017,2 hPa 0,0 l/m 11,3 km/h (2 Bft) O 80 0 min 0,000 mm 0,0 UV-I 0 W/m 1,6 C 5,1 C 16,1 km/h (3 Bft) 95,83 %
29.04.2016 23:32 8,3 C 63 % 1017,1 hPa 0,0 l/m 9,7 km/h (2 Bft) O-NO 60 0 min 0,000 mm 0,0 UV-I 0 W/m 1,7 C 5,9 C 12,9 km/h (3 Bft) 95,65 %
29.04.2016 23:33 8,3 C 63 % 1017,2 hPa 0,0 l/m 8,4 km/h (2 Bft) O-NO 57 0 min 0,000 mm 0,0 UV-I 0 W/m 1,7 C 6,8 C 12,9 km/h (3 Bft) 95,83 %
29.04.2016 23:34 8,3 C 63 % 1017,1 hPa 0,0 l/m 8,9 km/h (2 Bft) O-NO 72 0 min 0,000 mm 0,0 UV-I 0 W/m 1,7 C 6,4 C 11,3 km/h (2 Bft) 96,15 %
29.04.2016 23:35 8,2 C 63 % 1017,1 hPa 0,0 l/m 7,1 km/h (2 Bft) O-NO 67 0 min 0,000 mm 0,0 UV-I 0 W/m 1,6 C 7,7 C 11,3 km/h (2 Bft) 100,00 %
29.04.2016 23:36 8,2 C 63 % 1017,1 hPa 0,0 l/m 10,5 km/h (2 Bft) O 88 0 min 0,000 mm 0,0 UV-I 0 W/m 1,6 C 5,3 C 16,1 km/h (3 Bft) 91,30 %
29.04.2016 23:37 8,2 C 63 % 1017,2 hPa 0,0 l/m 10,8 km/h (2 Bft) O-NO 70 0 min 0,000 mm 0,0 UV-I 0 W/m 1,6 C 5,1 C 17,7 km/h (3 Bft) 100,00 %
29.04.2016 23:38 8,2 C 63 % 1017,2 hPa 0,0 l/m 10,8 km/h (2 Bft) NO 48 0 min 0,000 mm 0,0 UV-I 0 W/m 1,6 C 5,1 C 14,5 km/h (3 Bft) 91,30 %
29.04.2016 23:39 8,2 C 63 % 1017,1 hPa 0,0 l/m 8,3 km/h (2 Bft) O-NO 78 0 min 0,000 mm 0,0 UV-I 0 W/m 1,6 C 6,7 C 11,3 km/h (2 Bft) 100,00 %
29.04.2016 23:40 8,2 C 64 % 1017,2 hPa 0,0 l/m 7,1 km/h (2 Bft) O 80 0 min 0,000 mm 0,0 UV-I 0 W/m 1,8 C 7,7 C 11,3 km/h (2 Bft) 95,65 %
29.04.2016 23:41 8,1 C 64 % 1017,2 hPa 0,0 l/m 8,4 km/h (2 Bft) O-NO 65 0 min 0,000 mm 0,0 UV-I 0 W/m 1,7 C 6,6 C 12,9 km/h (3 Bft) 95,83 %
29.04.2016 23:42 8,1 C 64 % 1017,2 hPa 0,0 l/m 7,6 km/h (2 Bft) O-NO 59 0 min 0,000 mm 0,0 UV-I 0 W/m 1,7 C 7,2 C 11,3 km/h (2 Bft) 95,65 %
29.04.2016 23:43 8,0 C 65 % 1017,1 hPa 0,0 l/m 7,8 km/h (2 Bft) NO 52 0 min 0,000 mm 0,0 UV-I 0 W/m 1,8 C 6,9 C 11,3 km/h (2 Bft) 95,83 %
29.04.2016 23:44 7,9 C 65 % 1017,2 hPa 0,0 l/m 9,7 km/h (2 Bft) O-NO 57 0 min 0,000 mm 0,0 UV-I 0 W/m 1,7 C 5,5 C 12,9 km/h (3 Bft) 100,00 %
29.04.2016 23:45 7,9 C 65 % 1017,2 hPa 0,0 l/m 8,4 km/h (2 Bft) O-NO 70 0 min 0,000 mm 0,0 UV-I 0 W/m 1,7 C 6,4 C 11,3 km/h (2 Bft) 95,83 %
29.04.2016 23:46 7,8 C 65 % 1017,2 hPa 0,0 l/m 8,6 km/h (2 Bft) O 84 0 min 0,000 mm 0,0 UV-I 0 W/m 1,6 C 6,1 C 14,5 km/h (3 Bft) 100,00 %
29.04.2016 23:47 7,8 C 65 % 1017,2 hPa 0,0 l/m 8,8 km/h (2 Bft) O-NO 73 0 min 0,000 mm 0,0 UV-I 0 W/m 1,6 C 6,0 C 11,3 km/h (2 Bft) 96,30 %
29.04.2016 23:48 7,8 C 65 % 1017,2 hPa 0,0 l/m 8,6 km/h (2 Bft) O-NO 65 0 min 0,000 mm 0,0 UV-I 0 W/m 1,6 C 6,1 C 14,5 km/h (3 Bft) 86,96 %
29.04.2016 23:49 7,8 C 65 % 1017,2 hPa 0,0 l/m 10,5 km/h (2 Bft) O-NO 64 0 min 0,000 mm 0,0 UV-I 0 W/m 1,6 C 4,9 C 12,9 km/h (3 Bft) 100,00 %
29.04.2016 23:50 7,7 C 65 % 1017,2 hPa 0,0 l/m 9,9 km/h (2 Bft) O 83 0 min 0,000 mm 0,0 UV-I 0 W/m 1,5 C 5,1 C 14,5 km/h (3 Bft) 95,65 %
29.04.2016 23:51 7,7 C 65 % 1017,2 hPa 0,0 l/m 9,5 km/h (2 Bft) O-NO 76 0 min 0,000 mm 0,0 UV-I 0 W/m 1,5 C 5,4 C 12,9 km/h (3 Bft) 100,00 %
29.04.2016 23:52 7,7 C 65 % 1017,2 hPa 0,0 l/m 11,8 km/h (2 Bft) O-NO 69 0 min 0,000 mm 0,0 UV-I 0 W/m 1,5 C 4,0 C 16,1 km/h (3 Bft) 95,65 %
29.04.2016 23:53 7,7 C 66 % 1017,2 hPa 0,0 l/m 10,5 km/h (2 Bft) O-NO 74 0 min 0,000 mm 0,0 UV-I 0 W/m 1,8 C 4,7 C 17,7 km/h (3 Bft) 100,00 %
29.04.2016 23:54 7,7 C 65 % 1017,2 hPa 0,0 l/m 10,5 km/h (2 Bft) O-NO 61 0 min 0,000 mm 0,0 UV-I 0 W/m 1,5 C 4,7 C 14,5 km/h (3 Bft) 95,65 %
29.04.2016 23:55 7,7 C 66 % 1017,1 hPa 0,0 l/m 10,1 km/h (2 Bft) O-NO 71 0 min 0,000 mm 0,0 UV-I 0 W/m 1,8 C 5,0 C 14,5 km/h (3 Bft) 100,00 %
29.04.2016 23:56 7,7 C 66 % 1017,2 hPa 0,0 l/m 9,8 km/h (2 Bft) O-NO 64 0 min 0,000 mm 0,0 UV-I 0 W/m 1,8 C 5,2 C 14,5 km/h (3 Bft) 93,33 %
29.04.2016 23:57 7,7 C 66 % 1017,2 hPa 0,0 l/m 7,4 km/h (2 Bft) O-NO 63 0 min 0,000 mm 0,0 UV-I 0 W/m 1,8 C 6,9 C 11,3 km/h (2 Bft) 95,65 %
29.04.2016 23:58 7,7 C 66 % 1017,2 hPa 0,0 l/m 8,3 km/h (2 Bft) O-NO 57 0 min 0,000 mm 0,0 UV-I 0 W/m 1,8 C 6,2 C 12,9 km/h (3 Bft) 95,83 %
29.04.2016 23:59 7,7 C 66 % 1017,2 hPa 0,0 l/m 8,3 km/h (2 Bft) NO 39 0 min 0,000 mm 0,0 UV-I 0 W/m 1,8 C 6,2 C 12,9 km/h (3 Bft) 100,00 %
_ Min-Zeit 05:46 15:17 18:39 - 03:53 - - - - - - 05:44 05:46 03:53 21:29
Minimum _ -1,0 C 34 % 1016,7 hPa - 0,0 km/h (0 Bft) - - - - - - -2,0 C -1,0 C 0,0 km/h (0 Bft) 82,61 %
_ Max-Zeit 17:00 05:55 08:25 00:00 13:42 - - 08:02 14:02 12:42 13:03 12:06 16:46 12:26 00:06
Maximum _ 15,5 C 94 % 1020,0 hPa 0,0 l/m 17,4 km/h
NO (3 Bft)
- - 2 min 0,482 mm 4,3 UV-I 851 W/m 5,6 C 15,4 C 24,1 km/h
NO (4 Bft)
100,00 %
Durchschnitt _ 7,8 C 66 % 1018,4 hPa #0,0 l/m 5,5 km/h (1 Bft) O-NO - #12:14 h #3,962 mm 2,6 UV-I 475 W/m 1,0 C 7,1 C 8,2 km/h (2 Bft) 98,35 %